<?xml version="1.0" encoding="UTF-8"?>
<gpx creator="Wikiloc - https://www.wikiloc.com" version="1.1" xmlns="http://www.topografix.com/GPX/1/1" xmlns:xsi="http://www.w3.org/2001/XMLSchema-instance" xsi:schemaLocation="http://www.topografix.com/GPX/1/1 http://www.topografix.com/GPX/1/1/gpx.xsd">
  <metadata>
    <name>Wikiloc - Matelica</name>
    <author>
      <name>RobertoFreeMountain</name>
      <link href="https://www.wikiloc.com/wikiloc/user.do?id=1344131">
        <text>RobertoFreeMountain on Wikiloc</text>
      </link>
    </author>
    <link href="https://www.wikiloc.com/mountain-biking-trails/matelica-103939431">
      <text>Matelica on Wikiloc</text>
    </link>
    <time>2022-05-22T15:00:32Z</time>
  </metadata>
  <trk>
    <name>Matelica</name>
    <cmt></cmt>
    <desc></desc>
    <trkseg>
      <trkpt lat="43.252173" lon="13.007340">
        <ele>369.252</ele>
        <time>2022-05-22T09:13:00Z</time>
      </trkpt>
      <trkpt lat="43.252189" lon="13.007349">
        <ele>369.053</ele>
        <time>2022-05-22T09:13:01Z</time>
      </trkpt>
      <trkpt lat="43.252304" lon="13.007381">
        <ele>368.608</ele>
        <time>2022-05-22T09:13:11Z</time>
      </trkpt>
      <trkpt lat="43.252380" lon="13.007481">
        <ele>369.009</ele>
        <time>2022-05-22T09:14:12Z</time>
      </trkpt>
      <trkpt lat="43.252548" lon="13.007604">
        <ele>369.086</ele>
        <time>2022-05-22T09:14:19Z</time>
      </trkpt>
      <trkpt lat="43.252705" lon="13.007595">
        <ele>368.695</ele>
        <time>2022-05-22T09:14:23Z</time>
      </trkpt>
      <trkpt lat="43.252772" lon="13.007572">
        <ele>368.268</ele>
        <time>2022-05-22T09:14:26Z</time>
      </trkpt>
      <trkpt lat="43.252794" lon="13.007588">
        <ele>368.034</ele>
        <time>2022-05-22T09:14:27Z</time>
      </trkpt>
      <trkpt lat="43.252812" lon="13.007611">
        <ele>368.018</ele>
        <time>2022-05-22T09:14:28Z</time>
      </trkpt>
      <trkpt lat="43.253039" lon="13.008043">
        <ele>366.834</ele>
        <time>2022-05-22T09:14:40Z</time>
      </trkpt>
      <trkpt lat="43.253047" lon="13.008068">
        <ele>366.869</ele>
        <time>2022-05-22T09:14:41Z</time>
      </trkpt>
      <trkpt lat="43.253046" lon="13.008095">
        <ele>366.838</ele>
        <time>2022-05-22T09:14:42Z</time>
      </trkpt>
      <trkpt lat="43.253039" lon="13.008116">
        <ele>366.896</ele>
        <time>2022-05-22T09:14:43Z</time>
      </trkpt>
      <trkpt lat="43.253028" lon="13.008144">
        <ele>366.622</ele>
        <time>2022-05-22T09:14:44Z</time>
      </trkpt>
      <trkpt lat="43.253007" lon="13.008173">
        <ele>366.662</ele>
        <time>2022-05-22T09:14:45Z</time>
      </trkpt>
      <trkpt lat="43.252986" lon="13.008196">
        <ele>366.608</ele>
        <time>2022-05-22T09:14:46Z</time>
      </trkpt>
      <trkpt lat="43.252962" lon="13.008217">
        <ele>366.609</ele>
        <time>2022-05-22T09:14:47Z</time>
      </trkpt>
      <trkpt lat="43.252929" lon="13.008237">
        <ele>366.683</ele>
        <time>2022-05-22T09:14:48Z</time>
      </trkpt>
      <trkpt lat="43.252890" lon="13.008248">
        <ele>366.682</ele>
        <time>2022-05-22T09:14:49Z</time>
      </trkpt>
      <trkpt lat="43.252855" lon="13.008252">
        <ele>366.655</ele>
        <time>2022-05-22T09:14:50Z</time>
      </trkpt>
      <trkpt lat="43.252482" lon="13.008434">
        <ele>366.631</ele>
        <time>2022-05-22T09:15:03Z</time>
      </trkpt>
      <trkpt lat="43.252482" lon="13.008435">
        <ele>366.825</ele>
        <time>2022-05-22T09:15:06Z</time>
      </trkpt>
      <trkpt lat="43.252435" lon="13.008498">
        <ele>367.241</ele>
        <time>2022-05-22T09:15:47Z</time>
      </trkpt>
      <trkpt lat="43.252429" lon="13.008513">
        <ele>367.286</ele>
        <time>2022-05-22T09:15:48Z</time>
      </trkpt>
      <trkpt lat="43.252436" lon="13.008523">
        <ele>367.275</ele>
        <time>2022-05-22T09:15:49Z</time>
      </trkpt>
      <trkpt lat="43.252451" lon="13.008517">
        <ele>367.233</ele>
        <time>2022-05-22T09:15:50Z</time>
      </trkpt>
      <trkpt lat="43.252466" lon="13.008495">
        <ele>367.281</ele>
        <time>2022-05-22T09:15:51Z</time>
      </trkpt>
      <trkpt lat="43.252482" lon="13.008468">
        <ele>367.261</ele>
        <time>2022-05-22T09:15:52Z</time>
      </trkpt>
      <trkpt lat="43.252505" lon="13.008443">
        <ele>367.217</ele>
        <time>2022-05-22T09:15:53Z</time>
      </trkpt>
      <trkpt lat="43.252533" lon="13.008426">
        <ele>367.209</ele>
        <time>2022-05-22T09:15:54Z</time>
      </trkpt>
      <trkpt lat="43.252565" lon="13.008412">
        <ele>367.219</ele>
        <time>2022-05-22T09:15:55Z</time>
      </trkpt>
      <trkpt lat="43.253015" lon="13.008290">
        <ele>366.848</ele>
        <time>2022-05-22T09:16:08Z</time>
      </trkpt>
      <trkpt lat="43.253444" lon="13.008130">
        <ele>366.841</ele>
        <time>2022-05-22T09:16:20Z</time>
      </trkpt>
      <trkpt lat="43.253604" lon="13.008132">
        <ele>366.877</ele>
        <time>2022-05-22T09:16:24Z</time>
      </trkpt>
      <trkpt lat="43.253632" lon="13.008163">
        <ele>366.821</ele>
        <time>2022-05-22T09:16:25Z</time>
      </trkpt>
      <trkpt lat="43.253656" lon="13.008209">
        <ele>366.877</ele>
        <time>2022-05-22T09:16:26Z</time>
      </trkpt>
      <trkpt lat="43.253675" lon="13.008264">
        <ele>366.642</ele>
        <time>2022-05-22T09:16:27Z</time>
      </trkpt>
      <trkpt lat="43.253687" lon="13.008321">
        <ele>366.431</ele>
        <time>2022-05-22T09:16:28Z</time>
      </trkpt>
      <trkpt lat="43.253698" lon="13.008379">
        <ele>366.089</ele>
        <time>2022-05-22T09:16:29Z</time>
      </trkpt>
      <trkpt lat="43.253802" lon="13.008848">
        <ele>363.075</ele>
        <time>2022-05-22T09:16:36Z</time>
      </trkpt>
      <trkpt lat="43.253828" lon="13.008950">
        <ele>361.628</ele>
        <time>2022-05-22T09:16:38Z</time>
      </trkpt>
      <trkpt lat="43.253821" lon="13.009008">
        <ele>361.420</ele>
        <time>2022-05-22T09:16:39Z</time>
      </trkpt>
      <trkpt lat="43.253815" lon="13.009079">
        <ele>361.009</ele>
        <time>2022-05-22T09:16:40Z</time>
      </trkpt>
      <trkpt lat="43.253804" lon="13.009154">
        <ele>360.818</ele>
        <time>2022-05-22T09:16:41Z</time>
      </trkpt>
      <trkpt lat="43.253800" lon="13.009233">
        <ele>360.617</ele>
        <time>2022-05-22T09:16:42Z</time>
      </trkpt>
      <trkpt lat="43.253793" lon="13.009320">
        <ele>360.270</ele>
        <time>2022-05-22T09:16:43Z</time>
      </trkpt>
      <trkpt lat="43.253786" lon="13.009402">
        <ele>359.876</ele>
        <time>2022-05-22T09:16:44Z</time>
      </trkpt>
      <trkpt lat="43.253806" lon="13.009488">
        <ele>359.260</ele>
        <time>2022-05-22T09:16:45Z</time>
      </trkpt>
      <trkpt lat="43.253813" lon="13.009561">
        <ele>358.886</ele>
        <time>2022-05-22T09:16:46Z</time>
      </trkpt>
      <trkpt lat="43.253811" lon="13.009628">
        <ele>358.471</ele>
        <time>2022-05-22T09:16:47Z</time>
      </trkpt>
      <trkpt lat="43.253824" lon="13.009696">
        <ele>358.010</ele>
        <time>2022-05-22T09:16:48Z</time>
      </trkpt>
      <trkpt lat="43.253860" lon="13.009746">
        <ele>357.618</ele>
        <time>2022-05-22T09:16:49Z</time>
      </trkpt>
      <trkpt lat="43.253909" lon="13.009769">
        <ele>357.433</ele>
        <time>2022-05-22T09:16:50Z</time>
      </trkpt>
      <trkpt lat="43.253962" lon="13.009782">
        <ele>357.223</ele>
        <time>2022-05-22T09:16:51Z</time>
      </trkpt>
      <trkpt lat="43.254022" lon="13.009790">
        <ele>357.015</ele>
        <time>2022-05-22T09:16:52Z</time>
      </trkpt>
      <trkpt lat="43.254083" lon="13.009793">
        <ele>356.809</ele>
        <time>2022-05-22T09:16:53Z</time>
      </trkpt>
      <trkpt lat="43.254801" lon="13.009710">
        <ele>353.624</ele>
        <time>2022-05-22T09:17:04Z</time>
      </trkpt>
      <trkpt lat="43.255178" lon="13.009730">
        <ele>353.013</ele>
        <time>2022-05-22T09:17:10Z</time>
      </trkpt>
      <trkpt lat="43.255238" lon="13.009753">
        <ele>352.886</ele>
        <time>2022-05-22T09:17:11Z</time>
      </trkpt>
      <trkpt lat="43.255292" lon="13.009782">
        <ele>352.862</ele>
        <time>2022-05-22T09:17:12Z</time>
      </trkpt>
      <trkpt lat="43.255341" lon="13.009814">
        <ele>352.846</ele>
        <time>2022-05-22T09:17:13Z</time>
      </trkpt>
      <trkpt lat="43.255389" lon="13.009849">
        <ele>352.882</ele>
        <time>2022-05-22T09:17:14Z</time>
      </trkpt>
      <trkpt lat="43.255435" lon="13.009892">
        <ele>352.897</ele>
        <time>2022-05-22T09:17:15Z</time>
      </trkpt>
      <trkpt lat="43.256176" lon="13.010682">
        <ele>351.496</ele>
        <time>2022-05-22T09:17:31Z</time>
      </trkpt>
      <trkpt lat="43.257017" lon="13.011548">
        <ele>348.434</ele>
        <time>2022-05-22T09:17:48Z</time>
      </trkpt>
      <trkpt lat="43.257633" lon="13.011978">
        <ele>347.474</ele>
        <time>2022-05-22T09:18:00Z</time>
      </trkpt>
      <trkpt lat="43.257689" lon="13.011984">
        <ele>347.456</ele>
        <time>2022-05-22T09:18:01Z</time>
      </trkpt>
      <trkpt lat="43.257743" lon="13.011984">
        <ele>347.421</ele>
        <time>2022-05-22T09:18:02Z</time>
      </trkpt>
      <trkpt lat="43.258670" lon="13.012008">
        <ele>347.009</ele>
        <time>2022-05-22T09:18:20Z</time>
      </trkpt>
      <trkpt lat="43.258964" lon="13.012179">
        <ele>346.878</ele>
        <time>2022-05-22T09:18:27Z</time>
      </trkpt>
      <trkpt lat="43.259596" lon="13.012575">
        <ele>347.077</ele>
        <time>2022-05-22T09:18:42Z</time>
      </trkpt>
      <trkpt lat="43.259956" lon="13.012838">
        <ele>347.060</ele>
        <time>2022-05-22T09:18:51Z</time>
      </trkpt>
      <trkpt lat="43.259989" lon="13.012878">
        <ele>347.076</ele>
        <time>2022-05-22T09:18:52Z</time>
      </trkpt>
      <trkpt lat="43.260025" lon="13.012914">
        <ele>347.210</ele>
        <time>2022-05-22T09:18:53Z</time>
      </trkpt>
      <trkpt lat="43.260063" lon="13.012942">
        <ele>347.476</ele>
        <time>2022-05-22T09:18:54Z</time>
      </trkpt>
      <trkpt lat="43.260105" lon="13.012951">
        <ele>347.451</ele>
        <time>2022-05-22T09:18:55Z</time>
      </trkpt>
      <trkpt lat="43.260146" lon="13.012939">
        <ele>347.680</ele>
        <time>2022-05-22T09:18:56Z</time>
      </trkpt>
      <trkpt lat="43.260187" lon="13.012902">
        <ele>347.888</ele>
        <time>2022-05-22T09:18:57Z</time>
      </trkpt>
      <trkpt lat="43.260222" lon="13.012854">
        <ele>348.087</ele>
        <time>2022-05-22T09:18:58Z</time>
      </trkpt>
      <trkpt lat="43.260253" lon="13.012801">
        <ele>348.242</ele>
        <time>2022-05-22T09:18:59Z</time>
      </trkpt>
      <trkpt lat="43.260324" lon="13.012702">
        <ele>348.626</ele>
        <time>2022-05-22T09:19:01Z</time>
      </trkpt>
      <trkpt lat="43.260362" lon="13.012663">
        <ele>348.609</ele>
        <time>2022-05-22T09:19:02Z</time>
      </trkpt>
      <trkpt lat="43.260398" lon="13.012630">
        <ele>348.639</ele>
        <time>2022-05-22T09:19:03Z</time>
      </trkpt>
      <trkpt lat="43.260435" lon="13.012604">
        <ele>348.698</ele>
        <time>2022-05-22T09:19:04Z</time>
      </trkpt>
      <trkpt lat="43.260474" lon="13.012586">
        <ele>348.651</ele>
        <time>2022-05-22T09:19:05Z</time>
      </trkpt>
      <trkpt lat="43.260512" lon="13.012574">
        <ele>348.687</ele>
        <time>2022-05-22T09:19:06Z</time>
      </trkpt>
      <trkpt lat="43.260546" lon="13.012565">
        <ele>349.081</ele>
        <time>2022-05-22T09:19:07Z</time>
      </trkpt>
      <trkpt lat="43.260930" lon="13.012473">
        <ele>352.047</ele>
        <time>2022-05-22T09:19:24Z</time>
      </trkpt>
      <trkpt lat="43.260930" lon="13.012473">
        <ele>352.262</ele>
        <time>2022-05-22T09:19:25Z</time>
      </trkpt>
      <trkpt lat="43.260999" lon="13.012434">
        <ele>352.461</ele>
        <time>2022-05-22T09:19:48Z</time>
      </trkpt>
      <trkpt lat="43.261027" lon="13.012427">
        <ele>352.469</ele>
        <time>2022-05-22T09:19:49Z</time>
      </trkpt>
      <trkpt lat="43.261612" lon="13.012128">
        <ele>355.496</ele>
        <time>2022-05-22T09:20:09Z</time>
      </trkpt>
      <trkpt lat="43.261954" lon="13.011793">
        <ele>358.431</ele>
        <time>2022-05-22T09:20:23Z</time>
      </trkpt>
      <trkpt lat="43.262089" lon="13.011617">
        <ele>359.624</ele>
        <time>2022-05-22T09:20:34Z</time>
      </trkpt>
      <trkpt lat="43.262129" lon="13.011561">
        <ele>359.609</ele>
        <time>2022-05-22T09:20:52Z</time>
      </trkpt>
      <trkpt lat="43.262145" lon="13.011546">
        <ele>359.630</ele>
        <time>2022-05-22T09:20:53Z</time>
      </trkpt>
      <trkpt lat="43.262164" lon="13.011529">
        <ele>359.629</ele>
        <time>2022-05-22T09:20:54Z</time>
      </trkpt>
      <trkpt lat="43.262184" lon="13.011512">
        <ele>359.612</ele>
        <time>2022-05-22T09:20:55Z</time>
      </trkpt>
      <trkpt lat="43.262444" lon="13.011030">
        <ele>358.238</ele>
        <time>2022-05-22T09:21:10Z</time>
      </trkpt>
      <trkpt lat="43.262835" lon="13.010317">
        <ele>357.652</ele>
        <time>2022-05-22T09:21:28Z</time>
      </trkpt>
      <trkpt lat="43.262912" lon="13.010206">
        <ele>357.488</ele>
        <time>2022-05-22T09:21:32Z</time>
      </trkpt>
      <trkpt lat="43.262934" lon="13.010211">
        <ele>357.423</ele>
        <time>2022-05-22T09:21:33Z</time>
      </trkpt>
      <trkpt lat="43.262955" lon="13.010234">
        <ele>357.452</ele>
        <time>2022-05-22T09:21:34Z</time>
      </trkpt>
      <trkpt lat="43.262971" lon="13.010263">
        <ele>357.270</ele>
        <time>2022-05-22T09:21:35Z</time>
      </trkpt>
      <trkpt lat="43.262980" lon="13.010295">
        <ele>357.221</ele>
        <time>2022-05-22T09:21:36Z</time>
      </trkpt>
      <trkpt lat="43.262991" lon="13.010320">
        <ele>357.241</ele>
        <time>2022-05-22T09:21:37Z</time>
      </trkpt>
      <trkpt lat="43.263005" lon="13.010335">
        <ele>357.205</ele>
        <time>2022-05-22T09:21:38Z</time>
      </trkpt>
      <trkpt lat="43.263021" lon="13.010336">
        <ele>357.009</ele>
        <time>2022-05-22T09:21:39Z</time>
      </trkpt>
      <trkpt lat="43.263038" lon="13.010328">
        <ele>357.033</ele>
        <time>2022-05-22T09:21:40Z</time>
      </trkpt>
      <trkpt lat="43.263053" lon="13.010308">
        <ele>357.092</ele>
        <time>2022-05-22T09:21:41Z</time>
      </trkpt>
      <trkpt lat="43.263063" lon="13.010279">
        <ele>357.085</ele>
        <time>2022-05-22T09:21:42Z</time>
      </trkpt>
      <trkpt lat="43.263070" lon="13.010243">
        <ele>357.081</ele>
        <time>2022-05-22T09:21:43Z</time>
      </trkpt>
      <trkpt lat="43.263076" lon="13.010203">
        <ele>357.075</ele>
        <time>2022-05-22T09:21:44Z</time>
      </trkpt>
      <trkpt lat="43.263079" lon="13.010159">
        <ele>357.081</ele>
        <time>2022-05-22T09:21:45Z</time>
      </trkpt>
      <trkpt lat="43.263082" lon="13.010112">
        <ele>356.876</ele>
        <time>2022-05-22T09:21:46Z</time>
      </trkpt>
      <trkpt lat="43.263087" lon="13.010066">
        <ele>356.825</ele>
        <time>2022-05-22T09:21:47Z</time>
      </trkpt>
      <trkpt lat="43.263097" lon="13.010021">
        <ele>356.853</ele>
        <time>2022-05-22T09:21:48Z</time>
      </trkpt>
      <trkpt lat="43.263112" lon="13.009976">
        <ele>356.638</ele>
        <time>2022-05-22T09:21:49Z</time>
      </trkpt>
      <trkpt lat="43.263130" lon="13.009932">
        <ele>356.470</ele>
        <time>2022-05-22T09:21:50Z</time>
      </trkpt>
      <trkpt lat="43.263150" lon="13.009889">
        <ele>356.417</ele>
        <time>2022-05-22T09:21:51Z</time>
      </trkpt>
      <trkpt lat="43.263173" lon="13.009848">
        <ele>356.209</ele>
        <time>2022-05-22T09:21:52Z</time>
      </trkpt>
      <trkpt lat="43.263202" lon="13.009807">
        <ele>356.284</ele>
        <time>2022-05-22T09:21:53Z</time>
      </trkpt>
      <trkpt lat="43.263232" lon="13.009758">
        <ele>356.033</ele>
        <time>2022-05-22T09:21:54Z</time>
      </trkpt>
      <trkpt lat="43.263259" lon="13.009700">
        <ele>356.046</ele>
        <time>2022-05-22T09:21:55Z</time>
      </trkpt>
      <trkpt lat="43.263283" lon="13.009637">
        <ele>355.842</ele>
        <time>2022-05-22T09:21:56Z</time>
      </trkpt>
      <trkpt lat="43.263309" lon="13.009576">
        <ele>355.496</ele>
        <time>2022-05-22T09:21:57Z</time>
      </trkpt>
      <trkpt lat="43.263341" lon="13.009520">
        <ele>355.252</ele>
        <time>2022-05-22T09:21:58Z</time>
      </trkpt>
      <trkpt lat="43.263375" lon="13.009467">
        <ele>354.857</ele>
        <time>2022-05-22T09:21:59Z</time>
      </trkpt>
      <trkpt lat="43.263664" lon="13.009044">
        <ele>353.886</ele>
        <time>2022-05-22T09:22:08Z</time>
      </trkpt>
      <trkpt lat="43.263699" lon="13.009015">
        <ele>353.674</ele>
        <time>2022-05-22T09:22:09Z</time>
      </trkpt>
      <trkpt lat="43.263737" lon="13.008998">
        <ele>353.696</ele>
        <time>2022-05-22T09:22:10Z</time>
      </trkpt>
      <trkpt lat="43.264122" lon="13.008881">
        <ele>353.231</ele>
        <time>2022-05-22T09:22:20Z</time>
      </trkpt>
      <trkpt lat="43.264150" lon="13.008912">
        <ele>353.024</ele>
        <time>2022-05-22T09:22:21Z</time>
      </trkpt>
      <trkpt lat="43.264175" lon="13.008942">
        <ele>353.009</ele>
        <time>2022-05-22T09:22:22Z</time>
      </trkpt>
      <trkpt lat="43.264204" lon="13.008958">
        <ele>353.070</ele>
        <time>2022-05-22T09:22:23Z</time>
      </trkpt>
      <trkpt lat="43.264236" lon="13.008957">
        <ele>353.019</ele>
        <time>2022-05-22T09:22:24Z</time>
      </trkpt>
      <trkpt lat="43.264268" lon="13.008946">
        <ele>353.012</ele>
        <time>2022-05-22T09:22:25Z</time>
      </trkpt>
      <trkpt lat="43.264299" lon="13.008924">
        <ele>353.258</ele>
        <time>2022-05-22T09:22:26Z</time>
      </trkpt>
      <trkpt lat="43.264324" lon="13.008886">
        <ele>353.242</ele>
        <time>2022-05-22T09:22:27Z</time>
      </trkpt>
      <trkpt lat="43.264341" lon="13.008837">
        <ele>353.028</ele>
        <time>2022-05-22T09:22:28Z</time>
      </trkpt>
      <trkpt lat="43.264351" lon="13.008786">
        <ele>352.873</ele>
        <time>2022-05-22T09:22:29Z</time>
      </trkpt>
      <trkpt lat="43.264360" lon="13.008740">
        <ele>352.852</ele>
        <time>2022-05-22T09:22:30Z</time>
      </trkpt>
      <trkpt lat="43.264374" lon="13.008700">
        <ele>352.660</ele>
        <time>2022-05-22T09:22:31Z</time>
      </trkpt>
      <trkpt lat="43.264391" lon="13.008666">
        <ele>352.458</ele>
        <time>2022-05-22T09:22:32Z</time>
      </trkpt>
      <trkpt lat="43.264414" lon="13.008639">
        <ele>352.452</ele>
        <time>2022-05-22T09:22:33Z</time>
      </trkpt>
      <trkpt lat="43.264443" lon="13.008619">
        <ele>352.217</ele>
        <time>2022-05-22T09:22:34Z</time>
      </trkpt>
      <trkpt lat="43.264477" lon="13.008603">
        <ele>352.209</ele>
        <time>2022-05-22T09:22:35Z</time>
      </trkpt>
      <trkpt lat="43.265245" lon="13.008318">
        <ele>350.096</ele>
        <time>2022-05-22T09:22:55Z</time>
      </trkpt>
      <trkpt lat="43.265623" lon="13.008449">
        <ele>350.225</ele>
        <time>2022-05-22T09:23:08Z</time>
      </trkpt>
      <trkpt lat="43.265609" lon="13.009004">
        <ele>350.878</ele>
        <time>2022-05-22T09:23:20Z</time>
      </trkpt>
      <trkpt lat="43.265782" lon="13.009221">
        <ele>351.284</ele>
        <time>2022-05-22T09:23:29Z</time>
      </trkpt>
      <trkpt lat="43.266336" lon="13.009120">
        <ele>351.218</ele>
        <time>2022-05-22T09:23:44Z</time>
      </trkpt>
      <trkpt lat="43.267079" lon="13.008985">
        <ele>350.464</ele>
        <time>2022-05-22T09:24:02Z</time>
      </trkpt>
      <trkpt lat="43.267784" lon="13.008818">
        <ele>349.299</ele>
        <time>2022-05-22T09:24:19Z</time>
      </trkpt>
      <trkpt lat="43.267813" lon="13.008817">
        <ele>349.088</ele>
        <time>2022-05-22T09:24:25Z</time>
      </trkpt>
      <trkpt lat="43.267860" lon="13.008769">
        <ele>349.216</ele>
        <time>2022-05-22T09:27:04Z</time>
      </trkpt>
      <trkpt lat="43.267886" lon="13.008756">
        <ele>349.276</ele>
        <time>2022-05-22T09:27:05Z</time>
      </trkpt>
      <trkpt lat="43.268091" lon="13.008712">
        <ele>349.090</ele>
        <time>2022-05-22T09:27:12Z</time>
      </trkpt>
      <trkpt lat="43.268113" lon="13.008740">
        <ele>349.019</ele>
        <time>2022-05-22T09:27:13Z</time>
      </trkpt>
      <trkpt lat="43.268130" lon="13.008777">
        <ele>349.009</ele>
        <time>2022-05-22T09:27:14Z</time>
      </trkpt>
      <trkpt lat="43.268240" lon="13.009259">
        <ele>349.058</ele>
        <time>2022-05-22T09:27:28Z</time>
      </trkpt>
      <trkpt lat="43.268522" lon="13.009194">
        <ele>348.877</ele>
        <time>2022-05-22T09:27:38Z</time>
      </trkpt>
      <trkpt lat="43.269287" lon="13.008906">
        <ele>347.060</ele>
        <time>2022-05-22T09:27:56Z</time>
      </trkpt>
      <trkpt lat="43.269382" lon="13.008858">
        <ele>346.656</ele>
        <time>2022-05-22T09:27:58Z</time>
      </trkpt>
      <trkpt lat="43.269428" lon="13.008826">
        <ele>346.630</ele>
        <time>2022-05-22T09:27:59Z</time>
      </trkpt>
      <trkpt lat="43.269472" lon="13.008788">
        <ele>346.456</ele>
        <time>2022-05-22T09:28:00Z</time>
      </trkpt>
      <trkpt lat="43.269514" lon="13.008745">
        <ele>346.241</ele>
        <time>2022-05-22T09:28:01Z</time>
      </trkpt>
      <trkpt lat="43.269553" lon="13.008698">
        <ele>346.240</ele>
        <time>2022-05-22T09:28:02Z</time>
      </trkpt>
      <trkpt lat="43.269590" lon="13.008648">
        <ele>346.018</ele>
        <time>2022-05-22T09:28:03Z</time>
      </trkpt>
      <trkpt lat="43.270259" lon="13.007718">
        <ele>344.411</ele>
        <time>2022-05-22T09:28:22Z</time>
      </trkpt>
      <trkpt lat="43.270540" lon="13.007323">
        <ele>343.821</ele>
        <time>2022-05-22T09:28:30Z</time>
      </trkpt>
      <trkpt lat="43.270579" lon="13.007296">
        <ele>343.603</ele>
        <time>2022-05-22T09:28:31Z</time>
      </trkpt>
      <trkpt lat="43.270621" lon="13.007283">
        <ele>343.609</ele>
        <time>2022-05-22T09:28:32Z</time>
      </trkpt>
      <trkpt lat="43.270662" lon="13.007284">
        <ele>343.692</ele>
        <time>2022-05-22T09:28:33Z</time>
      </trkpt>
      <trkpt lat="43.270701" lon="13.007300">
        <ele>343.661</ele>
        <time>2022-05-22T09:28:34Z</time>
      </trkpt>
      <trkpt lat="43.270742" lon="13.007326">
        <ele>343.444</ele>
        <time>2022-05-22T09:28:35Z</time>
      </trkpt>
      <trkpt lat="43.270784" lon="13.007357">
        <ele>343.490</ele>
        <time>2022-05-22T09:28:36Z</time>
      </trkpt>
      <trkpt lat="43.271504" lon="13.007842">
        <ele>343.284</ele>
        <time>2022-05-22T09:28:54Z</time>
      </trkpt>
      <trkpt lat="43.271831" lon="13.008093">
        <ele>342.210</ele>
        <time>2022-05-22T09:29:05Z</time>
      </trkpt>
      <trkpt lat="43.271832" lon="13.008093">
        <ele>342.285</ele>
        <time>2022-05-22T09:29:06Z</time>
      </trkpt>
      <trkpt lat="43.271876" lon="13.008109">
        <ele>342.234</ele>
        <time>2022-05-22T09:30:20Z</time>
      </trkpt>
      <trkpt lat="43.271895" lon="13.008120">
        <ele>342.232</ele>
        <time>2022-05-22T09:30:21Z</time>
      </trkpt>
      <trkpt lat="43.271919" lon="13.008139">
        <ele>342.253</ele>
        <time>2022-05-22T09:30:22Z</time>
      </trkpt>
      <trkpt lat="43.272470" lon="13.008561">
        <ele>341.004</ele>
        <time>2022-05-22T09:30:37Z</time>
      </trkpt>
      <trkpt lat="43.272655" lon="13.008706">
        <ele>340.814</ele>
        <time>2022-05-22T09:30:42Z</time>
      </trkpt>
      <trkpt lat="43.272680" lon="13.008750">
        <ele>340.809</ele>
        <time>2022-05-22T09:30:43Z</time>
      </trkpt>
      <trkpt lat="43.272699" lon="13.008801">
        <ele>340.896</ele>
        <time>2022-05-22T09:30:44Z</time>
      </trkpt>
      <trkpt lat="43.272710" lon="13.008858">
        <ele>340.835</ele>
        <time>2022-05-22T09:30:45Z</time>
      </trkpt>
      <trkpt lat="43.272715" lon="13.008918">
        <ele>340.878</ele>
        <time>2022-05-22T09:30:46Z</time>
      </trkpt>
      <trkpt lat="43.272717" lon="13.008978">
        <ele>340.834</ele>
        <time>2022-05-22T09:30:47Z</time>
      </trkpt>
      <trkpt lat="43.272761" lon="13.010261">
        <ele>342.428</ele>
        <time>2022-05-22T09:31:10Z</time>
      </trkpt>
      <trkpt lat="43.272816" lon="13.011505">
        <ele>344.674</ele>
        <time>2022-05-22T09:31:34Z</time>
      </trkpt>
      <trkpt lat="43.272865" lon="13.012387">
        <ele>346.029</ele>
        <time>2022-05-22T09:31:51Z</time>
      </trkpt>
      <trkpt lat="43.272907" lon="13.013319">
        <ele>344.658</ele>
        <time>2022-05-22T09:32:05Z</time>
      </trkpt>
      <trkpt lat="43.272924" lon="13.014132">
        <ele>345.826</ele>
        <time>2022-05-22T09:32:20Z</time>
      </trkpt>
      <trkpt lat="43.272909" lon="13.014735">
        <ele>348.011</ele>
        <time>2022-05-22T09:32:36Z</time>
      </trkpt>
      <trkpt lat="43.272933" lon="13.015455">
        <ele>351.021</ele>
        <time>2022-05-22T09:32:55Z</time>
      </trkpt>
      <trkpt lat="43.272918" lon="13.016046">
        <ele>354.003</ele>
        <time>2022-05-22T09:33:11Z</time>
      </trkpt>
      <trkpt lat="43.273047" lon="13.016521">
        <ele>357.009</ele>
        <time>2022-05-22T09:33:27Z</time>
      </trkpt>
      <trkpt lat="43.273234" lon="13.016884">
        <ele>357.482</ele>
        <time>2022-05-22T09:33:42Z</time>
      </trkpt>
      <trkpt lat="43.273238" lon="13.016889">
        <ele>357.431</ele>
        <time>2022-05-22T09:33:45Z</time>
      </trkpt>
      <trkpt lat="43.273248" lon="13.016999">
        <ele>357.654</ele>
        <time>2022-05-22T09:35:06Z</time>
      </trkpt>
      <trkpt lat="43.273488" lon="13.017562">
        <ele>356.270</ele>
        <time>2022-05-22T09:35:19Z</time>
      </trkpt>
      <trkpt lat="43.273939" lon="13.018457">
        <ele>355.854</ele>
        <time>2022-05-22T09:35:38Z</time>
      </trkpt>
      <trkpt lat="43.274100" lon="13.018829">
        <ele>355.830</ele>
        <time>2022-05-22T09:35:45Z</time>
      </trkpt>
      <trkpt lat="43.274248" lon="13.019760">
        <ele>356.665</ele>
        <time>2022-05-22T09:36:01Z</time>
      </trkpt>
      <trkpt lat="43.274340" lon="13.020467">
        <ele>359.054</ele>
        <time>2022-05-22T09:36:15Z</time>
      </trkpt>
      <trkpt lat="43.274595" lon="13.021242">
        <ele>361.892</ele>
        <time>2022-05-22T09:36:32Z</time>
      </trkpt>
      <trkpt lat="43.274970" lon="13.021800">
        <ele>363.454</ele>
        <time>2022-05-22T09:36:47Z</time>
      </trkpt>
      <trkpt lat="43.275217" lon="13.022049">
        <ele>362.656</ele>
        <time>2022-05-22T09:36:52Z</time>
      </trkpt>
      <trkpt lat="43.275266" lon="13.022119">
        <ele>361.611</ele>
        <time>2022-05-22T09:36:53Z</time>
      </trkpt>
      <trkpt lat="43.275305" lon="13.022200">
        <ele>361.209</ele>
        <time>2022-05-22T09:36:54Z</time>
      </trkpt>
      <trkpt lat="43.275699" lon="13.023009">
        <ele>357.896</ele>
        <time>2022-05-22T09:37:03Z</time>
      </trkpt>
      <trkpt lat="43.276012" lon="13.023563">
        <ele>356.855</ele>
        <time>2022-05-22T09:37:12Z</time>
      </trkpt>
      <trkpt lat="43.276190" lon="13.023873">
        <ele>359.828</ele>
        <time>2022-05-22T09:37:20Z</time>
      </trkpt>
      <trkpt lat="43.276419" lon="13.024283">
        <ele>363.044</ele>
        <time>2022-05-22T09:37:32Z</time>
      </trkpt>
      <trkpt lat="43.276633" lon="13.024681">
        <ele>366.258</ele>
        <time>2022-05-22T09:37:44Z</time>
      </trkpt>
      <trkpt lat="43.276876" lon="13.025145">
        <ele>369.244</ele>
        <time>2022-05-22T09:38:01Z</time>
      </trkpt>
      <trkpt lat="43.276876" lon="13.025144">
        <ele>369.679</ele>
        <time>2022-05-22T09:38:04Z</time>
      </trkpt>
      <trkpt lat="43.276918" lon="13.025207">
        <ele>369.618</ele>
        <time>2022-05-22T09:39:19Z</time>
      </trkpt>
      <trkpt lat="43.277236" lon="13.025790">
        <ele>371.876</ele>
        <time>2022-05-22T09:39:36Z</time>
      </trkpt>
      <trkpt lat="43.277471" lon="13.026210">
        <ele>375.059</ele>
        <time>2022-05-22T09:39:50Z</time>
      </trkpt>
      <trkpt lat="43.277749" lon="13.026570">
        <ele>378.203</ele>
        <time>2022-05-22T09:40:05Z</time>
      </trkpt>
      <trkpt lat="43.277986" lon="13.026904">
        <ele>381.423</ele>
        <time>2022-05-22T09:40:21Z</time>
      </trkpt>
      <trkpt lat="43.278183" lon="13.027205">
        <ele>384.609</ele>
        <time>2022-05-22T09:40:35Z</time>
      </trkpt>
      <trkpt lat="43.278310" lon="13.027507">
        <ele>387.896</ele>
        <time>2022-05-22T09:40:47Z</time>
      </trkpt>
      <trkpt lat="43.278447" lon="13.027841">
        <ele>391.085</ele>
        <time>2022-05-22T09:41:01Z</time>
      </trkpt>
      <trkpt lat="43.278617" lon="13.028121">
        <ele>394.088</ele>
        <time>2022-05-22T09:41:13Z</time>
      </trkpt>
      <trkpt lat="43.278805" lon="13.028551">
        <ele>397.034</ele>
        <time>2022-05-22T09:41:29Z</time>
      </trkpt>
      <trkpt lat="43.278976" lon="13.029016">
        <ele>397.298</ele>
        <time>2022-05-22T09:41:42Z</time>
      </trkpt>
      <trkpt lat="43.279085" lon="13.029415">
        <ele>400.454</ele>
        <time>2022-05-22T09:41:55Z</time>
      </trkpt>
      <trkpt lat="43.279287" lon="13.030006">
        <ele>399.449</ele>
        <time>2022-05-22T09:42:07Z</time>
      </trkpt>
      <trkpt lat="43.279307" lon="13.030056">
        <ele>399.288</ele>
        <time>2022-05-22T09:42:08Z</time>
      </trkpt>
      <trkpt lat="43.279516" lon="13.030632">
        <ele>398.446</ele>
        <time>2022-05-22T09:42:20Z</time>
      </trkpt>
      <trkpt lat="43.279728" lon="13.031032">
        <ele>397.465</ele>
        <time>2022-05-22T09:42:28Z</time>
      </trkpt>
      <trkpt lat="43.279899" lon="13.031780">
        <ele>395.468</ele>
        <time>2022-05-22T09:42:39Z</time>
      </trkpt>
      <trkpt lat="43.280016" lon="13.032226">
        <ele>397.214</ele>
        <time>2022-05-22T09:42:50Z</time>
      </trkpt>
      <trkpt lat="43.280223" lon="13.032463">
        <ele>399.209</ele>
        <time>2022-05-22T09:43:02Z</time>
      </trkpt>
      <trkpt lat="43.280245" lon="13.032443">
        <ele>400.227</ele>
        <time>2022-05-22T09:43:09Z</time>
      </trkpt>
      <trkpt lat="43.280220" lon="13.032421">
        <ele>400.226</ele>
        <time>2022-05-22T09:43:11Z</time>
      </trkpt>
      <trkpt lat="43.280097" lon="13.032343">
        <ele>399.249</ele>
        <time>2022-05-22T09:43:15Z</time>
      </trkpt>
      <trkpt lat="43.279967" lon="13.032133">
        <ele>398.065</ele>
        <time>2022-05-22T09:43:20Z</time>
      </trkpt>
      <trkpt lat="43.279767" lon="13.031239">
        <ele>395.839</ele>
        <time>2022-05-22T09:43:32Z</time>
      </trkpt>
      <trkpt lat="43.279618" lon="13.030803">
        <ele>397.475</ele>
        <time>2022-05-22T09:43:44Z</time>
      </trkpt>
      <trkpt lat="43.279536" lon="13.030590">
        <ele>398.480</ele>
        <time>2022-05-22T09:43:53Z</time>
      </trkpt>
      <trkpt lat="43.279524" lon="13.030569">
        <ele>398.429</ele>
        <time>2022-05-22T09:43:54Z</time>
      </trkpt>
      <trkpt lat="43.279517" lon="13.030542">
        <ele>398.617</ele>
        <time>2022-05-22T09:43:55Z</time>
      </trkpt>
      <trkpt lat="43.279513" lon="13.030514">
        <ele>398.623</ele>
        <time>2022-05-22T09:43:56Z</time>
      </trkpt>
      <trkpt lat="43.279506" lon="13.030462">
        <ele>398.883</ele>
        <time>2022-05-22T09:43:58Z</time>
      </trkpt>
      <trkpt lat="43.279497" lon="13.030437">
        <ele>398.811</ele>
        <time>2022-05-22T09:43:59Z</time>
      </trkpt>
      <trkpt lat="43.279487" lon="13.030414">
        <ele>399.009</ele>
        <time>2022-05-22T09:44:00Z</time>
      </trkpt>
      <trkpt lat="43.279443" lon="13.030278">
        <ele>399.233</ele>
        <time>2022-05-22T09:44:06Z</time>
      </trkpt>
      <trkpt lat="43.279423" lon="13.030277">
        <ele>399.472</ele>
        <time>2022-05-22T09:44:08Z</time>
      </trkpt>
      <trkpt lat="43.279426" lon="13.030309">
        <ele>399.455</ele>
        <time>2022-05-22T09:44:10Z</time>
      </trkpt>
      <trkpt lat="43.279576" lon="13.030734">
        <ele>398.421</ele>
        <time>2022-05-22T09:44:25Z</time>
      </trkpt>
      <trkpt lat="43.279782" lon="13.031225">
        <ele>397.025</ele>
        <time>2022-05-22T09:44:39Z</time>
      </trkpt>
      <trkpt lat="43.279818" lon="13.031355">
        <ele>396.451</ele>
        <time>2022-05-22T09:44:48Z</time>
      </trkpt>
      <trkpt lat="43.279799" lon="13.031289">
        <ele>396.626</ele>
        <time>2022-05-22T09:44:55Z</time>
      </trkpt>
      <trkpt lat="43.279798" lon="13.031193">
        <ele>397.045</ele>
        <time>2022-05-22T09:45:03Z</time>
      </trkpt>
      <trkpt lat="43.279813" lon="13.031293">
        <ele>396.893</ele>
        <time>2022-05-22T09:45:37Z</time>
      </trkpt>
      <trkpt lat="43.279915" lon="13.031839">
        <ele>396.294</ele>
        <time>2022-05-22T09:45:49Z</time>
      </trkpt>
      <trkpt lat="43.279966" lon="13.032200">
        <ele>398.057</ele>
        <time>2022-05-22T09:45:59Z</time>
      </trkpt>
      <trkpt lat="43.280032" lon="13.032303">
        <ele>398.222</ele>
        <time>2022-05-22T09:46:03Z</time>
      </trkpt>
      <trkpt lat="43.280333" lon="13.032570">
        <ele>400.409</ele>
        <time>2022-05-22T09:46:16Z</time>
      </trkpt>
      <trkpt lat="43.280388" lon="13.032644">
        <ele>401.020</ele>
        <time>2022-05-22T09:46:19Z</time>
      </trkpt>
      <trkpt lat="43.280423" lon="13.032730">
        <ele>401.859</ele>
        <time>2022-05-22T09:46:22Z</time>
      </trkpt>
      <trkpt lat="43.280615" lon="13.033104">
        <ele>404.072</ele>
        <time>2022-05-22T09:46:35Z</time>
      </trkpt>
      <trkpt lat="43.280697" lon="13.033403">
        <ele>405.028</ele>
        <time>2022-05-22T09:46:44Z</time>
      </trkpt>
      <trkpt lat="43.280697" lon="13.033439">
        <ele>405.042</ele>
        <time>2022-05-22T09:46:45Z</time>
      </trkpt>
      <trkpt lat="43.280702" lon="13.033473">
        <ele>405.058</ele>
        <time>2022-05-22T09:46:46Z</time>
      </trkpt>
      <trkpt lat="43.280711" lon="13.033509">
        <ele>405.093</ele>
        <time>2022-05-22T09:46:47Z</time>
      </trkpt>
      <trkpt lat="43.280722" lon="13.033549">
        <ele>405.242</ele>
        <time>2022-05-22T09:46:48Z</time>
      </trkpt>
      <trkpt lat="43.280741" lon="13.033592">
        <ele>405.240</ele>
        <time>2022-05-22T09:46:49Z</time>
      </trkpt>
      <trkpt lat="43.280751" lon="13.033632">
        <ele>405.483</ele>
        <time>2022-05-22T09:46:50Z</time>
      </trkpt>
      <trkpt lat="43.280756" lon="13.033669">
        <ele>405.425</ele>
        <time>2022-05-22T09:46:51Z</time>
      </trkpt>
      <trkpt lat="43.280857" lon="13.034128">
        <ele>405.217</ele>
        <time>2022-05-22T09:47:03Z</time>
      </trkpt>
      <trkpt lat="43.280892" lon="13.034196">
        <ele>405.209</ele>
        <time>2022-05-22T09:47:05Z</time>
      </trkpt>
      <trkpt lat="43.280906" lon="13.034227">
        <ele>405.229</ele>
        <time>2022-05-22T09:47:06Z</time>
      </trkpt>
      <trkpt lat="43.280920" lon="13.034262">
        <ele>405.038</ele>
        <time>2022-05-22T09:47:07Z</time>
      </trkpt>
      <trkpt lat="43.280939" lon="13.034307">
        <ele>405.071</ele>
        <time>2022-05-22T09:47:08Z</time>
      </trkpt>
      <trkpt lat="43.280957" lon="13.034348">
        <ele>404.847</ele>
        <time>2022-05-22T09:47:09Z</time>
      </trkpt>
      <trkpt lat="43.280973" lon="13.034387">
        <ele>404.841</ele>
        <time>2022-05-22T09:47:10Z</time>
      </trkpt>
      <trkpt lat="43.280988" lon="13.034427">
        <ele>404.817</ele>
        <time>2022-05-22T09:47:11Z</time>
      </trkpt>
      <trkpt lat="43.281008" lon="13.034469">
        <ele>404.842</ele>
        <time>2022-05-22T09:47:12Z</time>
      </trkpt>
      <trkpt lat="43.281021" lon="13.034507">
        <ele>404.891</ele>
        <time>2022-05-22T09:47:13Z</time>
      </trkpt>
      <trkpt lat="43.281034" lon="13.034547">
        <ele>404.879</ele>
        <time>2022-05-22T09:47:14Z</time>
      </trkpt>
      <trkpt lat="43.281178" lon="13.035081">
        <ele>405.611</ele>
        <time>2022-05-22T09:47:28Z</time>
      </trkpt>
      <trkpt lat="43.281318" lon="13.035611">
        <ele>405.421</ele>
        <time>2022-05-22T09:47:40Z</time>
      </trkpt>
      <trkpt lat="43.281464" lon="13.036091">
        <ele>404.403</ele>
        <time>2022-05-22T09:47:50Z</time>
      </trkpt>
      <trkpt lat="43.281682" lon="13.036514">
        <ele>406.409</ele>
        <time>2022-05-22T09:48:04Z</time>
      </trkpt>
      <trkpt lat="43.281965" lon="13.036698">
        <ele>409.272</ele>
        <time>2022-05-22T09:48:19Z</time>
      </trkpt>
      <trkpt lat="43.282266" lon="13.036777">
        <ele>412.251</ele>
        <time>2022-05-22T09:48:35Z</time>
      </trkpt>
      <trkpt lat="43.282629" lon="13.037092">
        <ele>415.234</ele>
        <time>2022-05-22T09:48:55Z</time>
      </trkpt>
      <trkpt lat="43.282652" lon="13.037137">
        <ele>416.480</ele>
        <time>2022-05-22T09:49:01Z</time>
      </trkpt>
      <trkpt lat="43.282694" lon="13.037230">
        <ele>416.824</ele>
        <time>2022-05-22T09:50:25Z</time>
      </trkpt>
      <trkpt lat="43.282714" lon="13.037319">
        <ele>417.050</ele>
        <time>2022-05-22T09:50:29Z</time>
      </trkpt>
      <trkpt lat="43.282720" lon="13.037342">
        <ele>417.635</ele>
        <time>2022-05-22T09:50:30Z</time>
      </trkpt>
      <trkpt lat="43.282727" lon="13.037365">
        <ele>418.664</ele>
        <time>2022-05-22T09:50:31Z</time>
      </trkpt>
      <trkpt lat="43.282740" lon="13.037385">
        <ele>418.872</ele>
        <time>2022-05-22T09:50:32Z</time>
      </trkpt>
      <trkpt lat="43.282825" lon="13.037646">
        <ele>422.283</ele>
        <time>2022-05-22T09:50:45Z</time>
      </trkpt>
      <trkpt lat="43.282910" lon="13.037848">
        <ele>425.425</ele>
        <time>2022-05-22T09:50:55Z</time>
      </trkpt>
      <trkpt lat="43.282973" lon="13.038109">
        <ele>428.617</ele>
        <time>2022-05-22T09:51:07Z</time>
      </trkpt>
      <trkpt lat="43.282845" lon="13.038256">
        <ele>431.609</ele>
        <time>2022-05-22T09:51:18Z</time>
      </trkpt>
      <trkpt lat="43.282690" lon="13.038376">
        <ele>435.059</ele>
        <time>2022-05-22T09:51:29Z</time>
      </trkpt>
      <trkpt lat="43.282549" lon="13.038580">
        <ele>438.028</ele>
        <time>2022-05-22T09:51:42Z</time>
      </trkpt>
      <trkpt lat="43.282519" lon="13.038825">
        <ele>441.061</ele>
        <time>2022-05-22T09:51:54Z</time>
      </trkpt>
      <trkpt lat="43.282607" lon="13.039138">
        <ele>443.237</ele>
        <time>2022-05-22T09:52:08Z</time>
      </trkpt>
      <trkpt lat="43.282683" lon="13.039444">
        <ele>445.611</ele>
        <time>2022-05-22T09:52:22Z</time>
      </trkpt>
      <trkpt lat="43.282693" lon="13.039466">
        <ele>445.837</ele>
        <time>2022-05-22T09:52:23Z</time>
      </trkpt>
      <trkpt lat="43.282705" lon="13.039488">
        <ele>445.862</ele>
        <time>2022-05-22T09:52:24Z</time>
      </trkpt>
      <trkpt lat="43.282751" lon="13.039761">
        <ele>449.071</ele>
        <time>2022-05-22T09:52:35Z</time>
      </trkpt>
      <trkpt lat="43.282775" lon="13.039999">
        <ele>452.249</ele>
        <time>2022-05-22T09:52:46Z</time>
      </trkpt>
      <trkpt lat="43.282774" lon="13.040166">
        <ele>455.455</ele>
        <time>2022-05-22T09:52:55Z</time>
      </trkpt>
      <trkpt lat="43.282889" lon="13.040247">
        <ele>458.407</ele>
        <time>2022-05-22T09:53:08Z</time>
      </trkpt>
      <trkpt lat="43.283108" lon="13.040613">
        <ele>464.617</ele>
        <time>2022-05-22T09:55:41Z</time>
      </trkpt>
      <trkpt lat="43.282991" lon="13.040911">
        <ele>467.809</ele>
        <time>2022-05-22T09:55:56Z</time>
      </trkpt>
      <trkpt lat="43.282859" lon="13.041310">
        <ele>470.876</ele>
        <time>2022-05-22T09:56:13Z</time>
      </trkpt>
      <trkpt lat="43.282759" lon="13.041619">
        <ele>474.085</ele>
        <time>2022-05-22T09:56:29Z</time>
      </trkpt>
      <trkpt lat="43.282589" lon="13.042180">
        <ele>482.428</ele>
        <time>2022-05-22T09:58:59Z</time>
      </trkpt>
      <trkpt lat="43.282581" lon="13.042198">
        <ele>482.824</ele>
        <time>2022-05-22T09:59:03Z</time>
      </trkpt>
      <trkpt lat="43.282499" lon="13.042358">
        <ele>484.268</ele>
        <time>2022-05-22T10:00:19Z</time>
      </trkpt>
      <trkpt lat="43.282285" lon="13.042669">
        <ele>487.454</ele>
        <time>2022-05-22T10:00:35Z</time>
      </trkpt>
      <trkpt lat="43.282168" lon="13.042902">
        <ele>490.669</ele>
        <time>2022-05-22T10:00:47Z</time>
      </trkpt>
      <trkpt lat="43.282132" lon="13.043297">
        <ele>493.668</ele>
        <time>2022-05-22T10:01:05Z</time>
      </trkpt>
      <trkpt lat="43.282284" lon="13.043580">
        <ele>496.696</ele>
        <time>2022-05-22T10:01:21Z</time>
      </trkpt>
      <trkpt lat="43.282310" lon="13.043622">
        <ele>497.885</ele>
        <time>2022-05-22T10:01:27Z</time>
      </trkpt>
      <trkpt lat="43.282506" lon="13.043897">
        <ele>502.289</ele>
        <time>2022-05-22T10:02:47Z</time>
      </trkpt>
      <trkpt lat="43.282597" lon="13.044034">
        <ele>505.417</ele>
        <time>2022-05-22T10:03:05Z</time>
      </trkpt>
      <trkpt lat="43.282683" lon="13.044174">
        <ele>508.609</ele>
        <time>2022-05-22T10:03:23Z</time>
      </trkpt>
      <trkpt lat="43.282779" lon="13.044306">
        <ele>511.689</ele>
        <time>2022-05-22T10:03:42Z</time>
      </trkpt>
      <trkpt lat="43.282870" lon="13.044446">
        <ele>514.448</ele>
        <time>2022-05-22T10:04:02Z</time>
      </trkpt>
      <trkpt lat="43.282939" lon="13.044559">
        <ele>517.661</ele>
        <time>2022-05-22T10:04:18Z</time>
      </trkpt>
      <trkpt lat="43.283038" lon="13.044627">
        <ele>520.657</ele>
        <time>2022-05-22T10:04:37Z</time>
      </trkpt>
      <trkpt lat="43.283038" lon="13.044626">
        <ele>521.071</ele>
        <time>2022-05-22T10:04:39Z</time>
      </trkpt>
      <trkpt lat="43.283534" lon="13.044840">
        <ele>537.877</ele>
        <time>2022-05-22T10:08:33Z</time>
      </trkpt>
      <trkpt lat="43.283306" lon="13.045287">
        <ele>538.842</ele>
        <time>2022-05-22T10:08:49Z</time>
      </trkpt>
      <trkpt lat="43.282972" lon="13.045592">
        <ele>540.091</ele>
        <time>2022-05-22T10:09:04Z</time>
      </trkpt>
      <trkpt lat="43.282541" lon="13.046238">
        <ele>539.889</ele>
        <time>2022-05-22T10:09:21Z</time>
      </trkpt>
      <trkpt lat="43.282302" lon="13.046901">
        <ele>540.874</ele>
        <time>2022-05-22T10:09:37Z</time>
      </trkpt>
      <trkpt lat="43.282228" lon="13.047564">
        <ele>543.856</ele>
        <time>2022-05-22T10:09:54Z</time>
      </trkpt>
      <trkpt lat="43.282186" lon="13.048203">
        <ele>545.821</ele>
        <time>2022-05-22T10:10:10Z</time>
      </trkpt>
      <trkpt lat="43.281972" lon="13.048784">
        <ele>547.009</ele>
        <time>2022-05-22T10:10:25Z</time>
      </trkpt>
      <trkpt lat="43.281704" lon="13.049290">
        <ele>548.218</ele>
        <time>2022-05-22T10:10:40Z</time>
      </trkpt>
      <trkpt lat="43.281538" lon="13.049707">
        <ele>548.237</ele>
        <time>2022-05-22T10:10:51Z</time>
      </trkpt>
      <trkpt lat="43.281204" lon="13.050163">
        <ele>548.080</ele>
        <time>2022-05-22T10:11:03Z</time>
      </trkpt>
      <trkpt lat="43.280840" lon="13.050087">
        <ele>549.096</ele>
        <time>2022-05-22T10:11:15Z</time>
      </trkpt>
      <trkpt lat="43.280404" lon="13.049899">
        <ele>551.090</ele>
        <time>2022-05-22T10:11:31Z</time>
      </trkpt>
      <trkpt lat="43.279936" lon="13.050136">
        <ele>554.016</ele>
        <time>2022-05-22T10:11:51Z</time>
      </trkpt>
      <trkpt lat="43.279497" lon="13.050358">
        <ele>557.071</ele>
        <time>2022-05-22T10:12:09Z</time>
      </trkpt>
      <trkpt lat="43.279141" lon="13.050557">
        <ele>560.050</ele>
        <time>2022-05-22T10:12:25Z</time>
      </trkpt>
      <trkpt lat="43.278655" lon="13.050872">
        <ele>563.098</ele>
        <time>2022-05-22T10:12:46Z</time>
      </trkpt>
      <trkpt lat="43.278258" lon="13.050932">
        <ele>566.016</ele>
        <time>2022-05-22T10:13:04Z</time>
      </trkpt>
      <trkpt lat="43.278052" lon="13.050992">
        <ele>568.076</ele>
        <time>2022-05-22T10:13:15Z</time>
      </trkpt>
      <trkpt lat="43.278046" lon="13.051013">
        <ele>568.213</ele>
        <time>2022-05-22T10:13:16Z</time>
      </trkpt>
      <trkpt lat="43.278036" lon="13.051034">
        <ele>568.409</ele>
        <time>2022-05-22T10:13:21Z</time>
      </trkpt>
      <trkpt lat="43.278094" lon="13.051092">
        <ele>568.472</ele>
        <time>2022-05-22T10:13:55Z</time>
      </trkpt>
      <trkpt lat="43.278103" lon="13.051104">
        <ele>568.441</ele>
        <time>2022-05-22T10:13:56Z</time>
      </trkpt>
      <trkpt lat="43.278109" lon="13.051117">
        <ele>568.494</ele>
        <time>2022-05-22T10:13:57Z</time>
      </trkpt>
      <trkpt lat="43.278122" lon="13.051135">
        <ele>568.460</ele>
        <time>2022-05-22T10:14:03Z</time>
      </trkpt>
      <trkpt lat="43.278192" lon="13.051176">
        <ele>568.264</ele>
        <time>2022-05-22T10:15:28Z</time>
      </trkpt>
      <trkpt lat="43.278624" lon="13.051562">
        <ele>568.080</ele>
        <time>2022-05-22T10:15:46Z</time>
      </trkpt>
      <trkpt lat="43.279120" lon="13.051677">
        <ele>570.895</ele>
        <time>2022-05-22T10:16:06Z</time>
      </trkpt>
      <trkpt lat="43.279349" lon="13.051341">
        <ele>573.024</ele>
        <time>2022-05-22T10:16:22Z</time>
      </trkpt>
      <trkpt lat="43.279632" lon="13.050978">
        <ele>575.652</ele>
        <time>2022-05-22T10:16:40Z</time>
      </trkpt>
      <trkpt lat="43.280073" lon="13.050757">
        <ele>578.677</ele>
        <time>2022-05-22T10:17:01Z</time>
      </trkpt>
      <trkpt lat="43.280447" lon="13.050642">
        <ele>581.661</ele>
        <time>2022-05-22T10:17:20Z</time>
      </trkpt>
      <trkpt lat="43.280694" lon="13.050832">
        <ele>584.827</ele>
        <time>2022-05-22T10:17:35Z</time>
      </trkpt>
      <trkpt lat="43.280888" lon="13.051142">
        <ele>587.809</ele>
        <time>2022-05-22T10:17:52Z</time>
      </trkpt>
      <trkpt lat="43.281091" lon="13.051398">
        <ele>590.638</ele>
        <time>2022-05-22T10:18:09Z</time>
      </trkpt>
      <trkpt lat="43.281344" lon="13.051461">
        <ele>593.897</ele>
        <time>2022-05-22T10:18:25Z</time>
      </trkpt>
      <trkpt lat="43.281578" lon="13.051422">
        <ele>596.630</ele>
        <time>2022-05-22T10:18:41Z</time>
      </trkpt>
      <trkpt lat="43.281806" lon="13.051318">
        <ele>599.216</ele>
        <time>2022-05-22T10:18:56Z</time>
      </trkpt>
      <trkpt lat="43.282054" lon="13.051205">
        <ele>601.620</ele>
        <time>2022-05-22T10:19:11Z</time>
      </trkpt>
      <trkpt lat="43.282129" lon="13.051188">
        <ele>602.046</ele>
        <time>2022-05-22T10:19:15Z</time>
      </trkpt>
      <trkpt lat="43.282143" lon="13.051178">
        <ele>602.221</ele>
        <time>2022-05-22T10:19:16Z</time>
      </trkpt>
      <trkpt lat="43.282159" lon="13.051170">
        <ele>602.290</ele>
        <time>2022-05-22T10:19:17Z</time>
      </trkpt>
      <trkpt lat="43.282176" lon="13.051160">
        <ele>602.458</ele>
        <time>2022-05-22T10:19:18Z</time>
      </trkpt>
      <trkpt lat="43.282194" lon="13.051152">
        <ele>602.686</ele>
        <time>2022-05-22T10:19:19Z</time>
      </trkpt>
      <trkpt lat="43.282402" lon="13.050968">
        <ele>604.660</ele>
        <time>2022-05-22T10:19:32Z</time>
      </trkpt>
      <trkpt lat="43.282474" lon="13.050619">
        <ele>606.626</ele>
        <time>2022-05-22T10:19:47Z</time>
      </trkpt>
      <trkpt lat="43.282518" lon="13.050213">
        <ele>608.809</ele>
        <time>2022-05-22T10:20:03Z</time>
      </trkpt>
      <trkpt lat="43.282739" lon="13.049996">
        <ele>611.869</ele>
        <time>2022-05-22T10:20:18Z</time>
      </trkpt>
      <trkpt lat="43.283015" lon="13.049780">
        <ele>615.098</ele>
        <time>2022-05-22T10:20:36Z</time>
      </trkpt>
      <trkpt lat="43.283224" lon="13.049517">
        <ele>617.891</ele>
        <time>2022-05-22T10:20:52Z</time>
      </trkpt>
      <trkpt lat="43.283370" lon="13.049039">
        <ele>620.877</ele>
        <time>2022-05-22T10:21:12Z</time>
      </trkpt>
      <trkpt lat="43.283581" lon="13.048774">
        <ele>623.691</ele>
        <time>2022-05-22T10:21:28Z</time>
      </trkpt>
      <trkpt lat="43.283835" lon="13.048539">
        <ele>626.057</ele>
        <time>2022-05-22T10:21:45Z</time>
      </trkpt>
      <trkpt lat="43.284047" lon="13.048307">
        <ele>629.092</ele>
        <time>2022-05-22T10:22:01Z</time>
      </trkpt>
      <trkpt lat="43.284298" lon="13.048077">
        <ele>632.251</ele>
        <time>2022-05-22T10:22:19Z</time>
      </trkpt>
      <trkpt lat="43.284552" lon="13.047831">
        <ele>635.489</ele>
        <time>2022-05-22T10:22:37Z</time>
      </trkpt>
      <trkpt lat="43.284831" lon="13.047652">
        <ele>638.234</ele>
        <time>2022-05-22T10:22:55Z</time>
      </trkpt>
      <trkpt lat="43.285049" lon="13.047509">
        <ele>640.855</ele>
        <time>2022-05-22T10:23:10Z</time>
      </trkpt>
      <trkpt lat="43.285064" lon="13.047502">
        <ele>641.210</ele>
        <time>2022-05-22T10:23:11Z</time>
      </trkpt>
      <trkpt lat="43.285076" lon="13.047493">
        <ele>641.409</ele>
        <time>2022-05-22T10:23:12Z</time>
      </trkpt>
      <trkpt lat="43.285365" lon="13.047332">
        <ele>644.474</ele>
        <time>2022-05-22T10:23:32Z</time>
      </trkpt>
      <trkpt lat="43.285651" lon="13.047210">
        <ele>647.253</ele>
        <time>2022-05-22T10:23:51Z</time>
      </trkpt>
      <trkpt lat="43.285919" lon="13.047104">
        <ele>650.056</ele>
        <time>2022-05-22T10:24:10Z</time>
      </trkpt>
      <trkpt lat="43.286180" lon="13.047015">
        <ele>652.852</ele>
        <time>2022-05-22T10:24:28Z</time>
      </trkpt>
      <trkpt lat="43.286299" lon="13.046974">
        <ele>654.286</ele>
        <time>2022-05-22T10:24:38Z</time>
      </trkpt>
      <trkpt lat="43.286520" lon="13.046977">
        <ele>656.432</ele>
        <time>2022-05-22T10:24:53Z</time>
      </trkpt>
      <trkpt lat="43.286724" lon="13.047111">
        <ele>659.077</ele>
        <time>2022-05-22T10:25:07Z</time>
      </trkpt>
      <trkpt lat="43.286902" lon="13.047326">
        <ele>661.816</ele>
        <time>2022-05-22T10:25:23Z</time>
      </trkpt>
      <trkpt lat="43.287069" lon="13.047500">
        <ele>664.454</ele>
        <time>2022-05-22T10:25:38Z</time>
      </trkpt>
      <trkpt lat="43.287083" lon="13.047504">
        <ele>664.473</ele>
        <time>2022-05-22T10:25:39Z</time>
      </trkpt>
      <trkpt lat="43.287223" lon="13.047569">
        <ele>665.885</ele>
        <time>2022-05-22T10:25:48Z</time>
      </trkpt>
      <trkpt lat="43.287245" lon="13.047563">
        <ele>666.013</ele>
        <time>2022-05-22T10:25:49Z</time>
      </trkpt>
      <trkpt lat="43.287266" lon="13.047554">
        <ele>666.209</ele>
        <time>2022-05-22T10:25:50Z</time>
      </trkpt>
      <trkpt lat="43.287399" lon="13.047513">
        <ele>667.018</ele>
        <time>2022-05-22T10:25:57Z</time>
      </trkpt>
      <trkpt lat="43.287579" lon="13.047185">
        <ele>669.867</ele>
        <time>2022-05-22T10:26:15Z</time>
      </trkpt>
      <trkpt lat="43.287853" lon="13.046822">
        <ele>672.430</ele>
        <time>2022-05-22T10:26:38Z</time>
      </trkpt>
      <trkpt lat="43.288103" lon="13.046676">
        <ele>675.076</ele>
        <time>2022-05-22T10:26:55Z</time>
      </trkpt>
      <trkpt lat="43.288308" lon="13.046566">
        <ele>677.290</ele>
        <time>2022-05-22T10:27:09Z</time>
      </trkpt>
      <trkpt lat="43.288542" lon="13.046504">
        <ele>680.286</ele>
        <time>2022-05-22T10:27:26Z</time>
      </trkpt>
      <trkpt lat="43.288711" lon="13.046481">
        <ele>682.661</ele>
        <time>2022-05-22T10:27:40Z</time>
      </trkpt>
      <trkpt lat="43.288805" lon="13.046500">
        <ele>684.260</ele>
        <time>2022-05-22T10:27:49Z</time>
      </trkpt>
      <trkpt lat="43.288819" lon="13.046503">
        <ele>684.488</ele>
        <time>2022-05-22T10:27:50Z</time>
      </trkpt>
      <trkpt lat="43.288833" lon="13.046505">
        <ele>684.616</ele>
        <time>2022-05-22T10:27:51Z</time>
      </trkpt>
      <trkpt lat="43.289016" lon="13.046503">
        <ele>686.676</ele>
        <time>2022-05-22T10:28:06Z</time>
      </trkpt>
      <trkpt lat="43.289076" lon="13.046479">
        <ele>687.413</ele>
        <time>2022-05-22T10:28:11Z</time>
      </trkpt>
      <trkpt lat="43.289283" lon="13.046287">
        <ele>690.009</ele>
        <time>2022-05-22T10:28:27Z</time>
      </trkpt>
      <trkpt lat="43.289492" lon="13.046141">
        <ele>692.232</ele>
        <time>2022-05-22T10:28:43Z</time>
      </trkpt>
      <trkpt lat="43.289739" lon="13.046091">
        <ele>695.261</ele>
        <time>2022-05-22T10:29:01Z</time>
      </trkpt>
      <trkpt lat="43.289998" lon="13.046079">
        <ele>698.034</ele>
        <time>2022-05-22T10:29:19Z</time>
      </trkpt>
      <trkpt lat="43.290251" lon="13.046029">
        <ele>700.650</ele>
        <time>2022-05-22T10:29:37Z</time>
      </trkpt>
      <trkpt lat="43.290497" lon="13.046058">
        <ele>703.474</ele>
        <time>2022-05-22T10:29:54Z</time>
      </trkpt>
      <trkpt lat="43.290655" lon="13.046125">
        <ele>705.650</ele>
        <time>2022-05-22T10:30:07Z</time>
      </trkpt>
      <trkpt lat="43.290838" lon="13.046261">
        <ele>708.255</ele>
        <time>2022-05-22T10:30:23Z</time>
      </trkpt>
      <trkpt lat="43.291071" lon="13.046456">
        <ele>711.074</ele>
        <time>2022-05-22T10:30:39Z</time>
      </trkpt>
      <trkpt lat="43.291248" lon="13.046737">
        <ele>714.032</ele>
        <time>2022-05-22T10:30:57Z</time>
      </trkpt>
      <trkpt lat="43.291236" lon="13.046749">
        <ele>714.669</ele>
        <time>2022-05-22T10:31:01Z</time>
      </trkpt>
      <trkpt lat="43.291393" lon="13.046818">
        <ele>714.804</ele>
        <time>2022-05-22T10:33:33Z</time>
      </trkpt>
      <trkpt lat="43.291574" lon="13.047010">
        <ele>717.224</ele>
        <time>2022-05-22T10:33:49Z</time>
      </trkpt>
      <trkpt lat="43.291582" lon="13.047019">
        <ele>717.409</ele>
        <time>2022-05-22T10:33:50Z</time>
      </trkpt>
      <trkpt lat="43.291585" lon="13.047039">
        <ele>717.677</ele>
        <time>2022-05-22T10:33:51Z</time>
      </trkpt>
      <trkpt lat="43.291792" lon="13.047199">
        <ele>720.426</ele>
        <time>2022-05-22T10:34:07Z</time>
      </trkpt>
      <trkpt lat="43.291970" lon="13.047343">
        <ele>723.269</ele>
        <time>2022-05-22T10:34:21Z</time>
      </trkpt>
      <trkpt lat="43.292187" lon="13.047512">
        <ele>725.445</ele>
        <time>2022-05-22T10:34:36Z</time>
      </trkpt>
      <trkpt lat="43.292404" lon="13.047653">
        <ele>727.869</ele>
        <time>2022-05-22T10:34:50Z</time>
      </trkpt>
      <trkpt lat="43.292637" lon="13.047511">
        <ele>730.285</ele>
        <time>2022-05-22T10:35:05Z</time>
      </trkpt>
      <trkpt lat="43.292906" lon="13.047174">
        <ele>733.670</ele>
        <time>2022-05-22T10:35:27Z</time>
      </trkpt>
      <trkpt lat="43.293102" lon="13.046916">
        <ele>736.699</ele>
        <time>2022-05-22T10:35:45Z</time>
      </trkpt>
      <trkpt lat="43.293281" lon="13.046610">
        <ele>739.627</ele>
        <time>2022-05-22T10:36:04Z</time>
      </trkpt>
      <trkpt lat="43.293430" lon="13.046294">
        <ele>742.635</ele>
        <time>2022-05-22T10:36:23Z</time>
      </trkpt>
      <trkpt lat="43.293579" lon="13.045990">
        <ele>745.486</ele>
        <time>2022-05-22T10:36:42Z</time>
      </trkpt>
      <trkpt lat="43.293753" lon="13.045653">
        <ele>748.414</ele>
        <time>2022-05-22T10:37:01Z</time>
      </trkpt>
      <trkpt lat="43.293961" lon="13.045446">
        <ele>751.609</ele>
        <time>2022-05-22T10:37:18Z</time>
      </trkpt>
      <trkpt lat="43.294189" lon="13.045322">
        <ele>754.614</ele>
        <time>2022-05-22T10:37:35Z</time>
      </trkpt>
      <trkpt lat="43.294428" lon="13.045242">
        <ele>757.863</ele>
        <time>2022-05-22T10:37:51Z</time>
      </trkpt>
      <trkpt lat="43.294675" lon="13.045158">
        <ele>760.886</ele>
        <time>2022-05-22T10:38:11Z</time>
      </trkpt>
      <trkpt lat="43.294901" lon="13.045074">
        <ele>763.812</ele>
        <time>2022-05-22T10:38:29Z</time>
      </trkpt>
      <trkpt lat="43.295151" lon="13.044930">
        <ele>766.066</ele>
        <time>2022-05-22T10:38:47Z</time>
      </trkpt>
      <trkpt lat="43.295362" lon="13.044787">
        <ele>768.412</ele>
        <time>2022-05-22T10:39:04Z</time>
      </trkpt>
      <trkpt lat="43.295581" lon="13.044641">
        <ele>770.247</ele>
        <time>2022-05-22T10:39:20Z</time>
      </trkpt>
      <trkpt lat="43.295867" lon="13.044499">
        <ele>773.226</ele>
        <time>2022-05-22T10:39:38Z</time>
      </trkpt>
      <trkpt lat="43.296160" lon="13.044388">
        <ele>776.244</ele>
        <time>2022-05-22T10:39:56Z</time>
      </trkpt>
      <trkpt lat="43.296431" lon="13.044302">
        <ele>778.679</ele>
        <time>2022-05-22T10:40:13Z</time>
      </trkpt>
      <trkpt lat="43.296651" lon="13.044281">
        <ele>781.005</ele>
        <time>2022-05-22T10:40:28Z</time>
      </trkpt>
      <trkpt lat="43.296929" lon="13.044293">
        <ele>784.225</ele>
        <time>2022-05-22T10:40:47Z</time>
      </trkpt>
      <trkpt lat="43.297208" lon="13.044313">
        <ele>787.209</ele>
        <time>2022-05-22T10:41:06Z</time>
      </trkpt>
      <trkpt lat="43.297463" lon="13.044393">
        <ele>789.678</ele>
        <time>2022-05-22T10:41:24Z</time>
      </trkpt>
      <trkpt lat="43.297465" lon="13.044416">
        <ele>789.817</ele>
        <time>2022-05-22T10:41:25Z</time>
      </trkpt>
      <trkpt lat="43.297461" lon="13.044438">
        <ele>790.080</ele>
        <time>2022-05-22T10:41:26Z</time>
      </trkpt>
      <trkpt lat="43.297448" lon="13.044458">
        <ele>790.086</ele>
        <time>2022-05-22T10:41:27Z</time>
      </trkpt>
      <trkpt lat="43.297433" lon="13.044474">
        <ele>790.020</ele>
        <time>2022-05-22T10:41:28Z</time>
      </trkpt>
      <trkpt lat="43.297416" lon="13.044487">
        <ele>790.266</ele>
        <time>2022-05-22T10:41:29Z</time>
      </trkpt>
      <trkpt lat="43.297401" lon="13.044498">
        <ele>790.491</ele>
        <time>2022-05-22T10:41:30Z</time>
      </trkpt>
      <trkpt lat="43.297109" lon="13.044493">
        <ele>792.430</ele>
        <time>2022-05-22T10:41:45Z</time>
      </trkpt>
      <trkpt lat="43.296766" lon="13.044623">
        <ele>795.498</ele>
        <time>2022-05-22T10:42:06Z</time>
      </trkpt>
      <trkpt lat="43.296492" lon="13.044836">
        <ele>798.637</ele>
        <time>2022-05-22T10:42:25Z</time>
      </trkpt>
      <trkpt lat="43.296227" lon="13.045145">
        <ele>801.649</ele>
        <time>2022-05-22T10:42:45Z</time>
      </trkpt>
      <trkpt lat="43.296018" lon="13.045526">
        <ele>804.613</ele>
        <time>2022-05-22T10:43:05Z</time>
      </trkpt>
      <trkpt lat="43.295815" lon="13.045861">
        <ele>807.809</ele>
        <time>2022-05-22T10:43:25Z</time>
      </trkpt>
      <trkpt lat="43.295587" lon="13.046131">
        <ele>811.044</ele>
        <time>2022-05-22T10:43:44Z</time>
      </trkpt>
      <trkpt lat="43.295355" lon="13.046382">
        <ele>814.023</ele>
        <time>2022-05-22T10:44:03Z</time>
      </trkpt>
      <trkpt lat="43.295100" lon="13.046617">
        <ele>817.286</ele>
        <time>2022-05-22T10:44:22Z</time>
      </trkpt>
      <trkpt lat="43.294834" lon="13.046899">
        <ele>820.212</ele>
        <time>2022-05-22T10:44:42Z</time>
      </trkpt>
      <trkpt lat="43.294541" lon="13.047256">
        <ele>823.426</ele>
        <time>2022-05-22T10:45:05Z</time>
      </trkpt>
      <trkpt lat="43.294520" lon="13.047584">
        <ele>825.892</ele>
        <time>2022-05-22T10:45:22Z</time>
      </trkpt>
      <trkpt lat="43.294760" lon="13.047397">
        <ele>826.467</ele>
        <time>2022-05-22T10:45:36Z</time>
      </trkpt>
      <trkpt lat="43.295123" lon="13.047076">
        <ele>829.246</ele>
        <time>2022-05-22T10:45:59Z</time>
      </trkpt>
      <trkpt lat="43.295529" lon="13.046932">
        <ele>832.444</ele>
        <time>2022-05-22T10:46:22Z</time>
      </trkpt>
      <trkpt lat="43.295916" lon="13.046769">
        <ele>835.045</ele>
        <time>2022-05-22T10:46:45Z</time>
      </trkpt>
      <trkpt lat="43.296281" lon="13.046680">
        <ele>838.247</ele>
        <time>2022-05-22T10:47:07Z</time>
      </trkpt>
      <trkpt lat="43.296579" lon="13.046594">
        <ele>841.211</ele>
        <time>2022-05-22T10:47:25Z</time>
      </trkpt>
      <trkpt lat="43.296931" lon="13.046506">
        <ele>843.809</ele>
        <time>2022-05-22T10:47:46Z</time>
      </trkpt>
      <trkpt lat="43.297249" lon="13.046482">
        <ele>846.835</ele>
        <time>2022-05-22T10:48:04Z</time>
      </trkpt>
      <trkpt lat="43.297602" lon="13.046691">
        <ele>849.684</ele>
        <time>2022-05-22T10:48:27Z</time>
      </trkpt>
      <trkpt lat="43.297852" lon="13.046914">
        <ele>852.697</ele>
        <time>2022-05-22T10:48:46Z</time>
      </trkpt>
      <trkpt lat="43.298100" lon="13.047218">
        <ele>855.443</ele>
        <time>2022-05-22T10:49:06Z</time>
      </trkpt>
      <trkpt lat="43.298281" lon="13.047526">
        <ele>858.437</ele>
        <time>2022-05-22T10:49:23Z</time>
      </trkpt>
      <trkpt lat="43.298402" lon="13.047897">
        <ele>861.283</ele>
        <time>2022-05-22T10:49:42Z</time>
      </trkpt>
      <trkpt lat="43.298474" lon="13.048158">
        <ele>863.688</ele>
        <time>2022-05-22T10:49:56Z</time>
      </trkpt>
      <trkpt lat="43.298482" lon="13.048175">
        <ele>863.897</ele>
        <time>2022-05-22T10:49:57Z</time>
      </trkpt>
      <trkpt lat="43.298489" lon="13.048193">
        <ele>864.075</ele>
        <time>2022-05-22T10:49:58Z</time>
      </trkpt>
      <trkpt lat="43.298495" lon="13.048211">
        <ele>864.294</ele>
        <time>2022-05-22T10:49:59Z</time>
      </trkpt>
      <trkpt lat="43.298503" lon="13.048228">
        <ele>864.457</ele>
        <time>2022-05-22T10:50:00Z</time>
      </trkpt>
      <trkpt lat="43.298511" lon="13.048246">
        <ele>864.622</ele>
        <time>2022-05-22T10:50:01Z</time>
      </trkpt>
      <trkpt lat="43.298519" lon="13.048259">
        <ele>864.809</ele>
        <time>2022-05-22T10:50:02Z</time>
      </trkpt>
      <trkpt lat="43.298659" lon="13.048557">
        <ele>867.080</ele>
        <time>2022-05-22T10:50:19Z</time>
      </trkpt>
      <trkpt lat="43.298798" lon="13.048899">
        <ele>870.079</ele>
        <time>2022-05-22T10:50:37Z</time>
      </trkpt>
      <trkpt lat="43.298895" lon="13.049257">
        <ele>872.242</ele>
        <time>2022-05-22T10:50:54Z</time>
      </trkpt>
      <trkpt lat="43.299006" lon="13.049624">
        <ele>873.098</ele>
        <time>2022-05-22T10:51:10Z</time>
      </trkpt>
      <trkpt lat="43.299104" lon="13.050010">
        <ele>874.072</ele>
        <time>2022-05-22T10:51:24Z</time>
      </trkpt>
      <trkpt lat="43.299117" lon="13.050037">
        <ele>874.228</ele>
        <time>2022-05-22T10:51:25Z</time>
      </trkpt>
      <trkpt lat="43.299210" lon="13.050424">
        <ele>875.213</ele>
        <time>2022-05-22T10:51:38Z</time>
      </trkpt>
      <trkpt lat="43.299152" lon="13.050910">
        <ele>876.232</ele>
        <time>2022-05-22T10:51:54Z</time>
      </trkpt>
      <trkpt lat="43.299291" lon="13.051372">
        <ele>877.450</ele>
        <time>2022-05-22T10:52:10Z</time>
      </trkpt>
      <trkpt lat="43.299634" lon="13.051641">
        <ele>878.044</ele>
        <time>2022-05-22T10:52:25Z</time>
      </trkpt>
      <trkpt lat="43.299989" lon="13.051766">
        <ele>878.205</ele>
        <time>2022-05-22T10:52:42Z</time>
      </trkpt>
      <trkpt lat="43.300320" lon="13.051906">
        <ele>878.415</ele>
        <time>2022-05-22T10:52:59Z</time>
      </trkpt>
      <trkpt lat="43.300481" lon="13.052245">
        <ele>880.209</ele>
        <time>2022-05-22T10:53:16Z</time>
      </trkpt>
      <trkpt lat="43.300609" lon="13.052604">
        <ele>882.485</ele>
        <time>2022-05-22T10:53:32Z</time>
      </trkpt>
      <trkpt lat="43.300763" lon="13.053066">
        <ele>885.464</ele>
        <time>2022-05-22T10:53:52Z</time>
      </trkpt>
      <trkpt lat="43.300936" lon="13.053395">
        <ele>888.637</ele>
        <time>2022-05-22T10:54:09Z</time>
      </trkpt>
      <trkpt lat="43.301184" lon="13.053582">
        <ele>891.883</ele>
        <time>2022-05-22T10:54:26Z</time>
      </trkpt>
      <trkpt lat="43.301401" lon="13.053705">
        <ele>894.847</ele>
        <time>2022-05-22T10:54:41Z</time>
      </trkpt>
      <trkpt lat="43.301646" lon="13.053581">
        <ele>897.073</ele>
        <time>2022-05-22T10:54:58Z</time>
      </trkpt>
      <trkpt lat="43.301521" lon="13.053280">
        <ele>898.088</ele>
        <time>2022-05-22T10:55:12Z</time>
      </trkpt>
      <trkpt lat="43.301273" lon="13.052879">
        <ele>901.037</ele>
        <time>2022-05-22T10:55:34Z</time>
      </trkpt>
      <trkpt lat="43.301295" lon="13.052455">
        <ele>903.475</ele>
        <time>2022-05-22T10:55:52Z</time>
      </trkpt>
      <trkpt lat="43.301514" lon="13.052189">
        <ele>905.642</ele>
        <time>2022-05-22T10:56:09Z</time>
      </trkpt>
      <trkpt lat="43.301772" lon="13.052248">
        <ele>908.422</ele>
        <time>2022-05-22T10:56:25Z</time>
      </trkpt>
      <trkpt lat="43.302077" lon="13.052401">
        <ele>911.614</ele>
        <time>2022-05-22T10:56:46Z</time>
      </trkpt>
      <trkpt lat="43.302137" lon="13.052454">
        <ele>912.409</ele>
        <time>2022-05-22T10:56:52Z</time>
      </trkpt>
      <trkpt lat="43.302110" lon="13.052570">
        <ele>912.615</ele>
        <time>2022-05-22T10:56:56Z</time>
      </trkpt>
      <trkpt lat="43.302135" lon="13.052637">
        <ele>912.614</ele>
        <time>2022-05-22T10:56:58Z</time>
      </trkpt>
      <trkpt lat="43.302154" lon="13.052652">
        <ele>912.617</ele>
        <time>2022-05-22T10:56:59Z</time>
      </trkpt>
      <trkpt lat="43.302171" lon="13.052664">
        <ele>912.673</ele>
        <time>2022-05-22T10:57:00Z</time>
      </trkpt>
      <trkpt lat="43.302185" lon="13.052676">
        <ele>912.627</ele>
        <time>2022-05-22T10:57:01Z</time>
      </trkpt>
      <trkpt lat="43.302488" lon="13.052969">
        <ele>914.233</ele>
        <time>2022-05-22T10:57:21Z</time>
      </trkpt>
      <trkpt lat="43.302697" lon="13.053263">
        <ele>916.258</ele>
        <time>2022-05-22T10:57:38Z</time>
      </trkpt>
      <trkpt lat="43.302877" lon="13.053395">
        <ele>917.447</ele>
        <time>2022-05-22T10:57:51Z</time>
      </trkpt>
      <trkpt lat="43.303012" lon="13.053417">
        <ele>918.665</ele>
        <time>2022-05-22T10:58:03Z</time>
      </trkpt>
      <trkpt lat="43.303107" lon="13.053447">
        <ele>919.224</ele>
        <time>2022-05-22T11:01:59Z</time>
      </trkpt>
      <trkpt lat="43.303123" lon="13.053446">
        <ele>919.204</ele>
        <time>2022-05-22T11:02:00Z</time>
      </trkpt>
      <trkpt lat="43.303137" lon="13.053447">
        <ele>919.214</ele>
        <time>2022-05-22T11:02:01Z</time>
      </trkpt>
      <trkpt lat="43.303152" lon="13.053451">
        <ele>919.209</ele>
        <time>2022-05-22T11:02:02Z</time>
      </trkpt>
      <trkpt lat="43.303166" lon="13.053457">
        <ele>919.693</ele>
        <time>2022-05-22T11:02:03Z</time>
      </trkpt>
      <trkpt lat="43.303180" lon="13.053461">
        <ele>920.082</ele>
        <time>2022-05-22T11:02:04Z</time>
      </trkpt>
      <trkpt lat="43.303476" lon="13.053587">
        <ele>922.455</ele>
        <time>2022-05-22T11:02:23Z</time>
      </trkpt>
      <trkpt lat="43.303848" lon="13.053891">
        <ele>922.851</ele>
        <time>2022-05-22T11:02:43Z</time>
      </trkpt>
      <trkpt lat="43.304147" lon="13.054244">
        <ele>921.645</ele>
        <time>2022-05-22T11:02:54Z</time>
      </trkpt>
      <trkpt lat="43.304358" lon="13.054624">
        <ele>922.441</ele>
        <time>2022-05-22T11:03:07Z</time>
      </trkpt>
      <trkpt lat="43.304552" lon="13.055043">
        <ele>922.676</ele>
        <time>2022-05-22T11:03:19Z</time>
      </trkpt>
      <trkpt lat="43.304698" lon="13.055525">
        <ele>924.865</ele>
        <time>2022-05-22T11:03:36Z</time>
      </trkpt>
      <trkpt lat="43.304835" lon="13.055878">
        <ele>926.053</ele>
        <time>2022-05-22T11:03:50Z</time>
      </trkpt>
      <trkpt lat="43.304991" lon="13.056003">
        <ele>929.089</ele>
        <time>2022-05-22T11:04:00Z</time>
      </trkpt>
      <trkpt lat="43.305142" lon="13.056267">
        <ele>931.806</ele>
        <time>2022-05-22T11:04:15Z</time>
      </trkpt>
      <trkpt lat="43.305398" lon="13.056747">
        <ele>930.226</ele>
        <time>2022-05-22T11:04:28Z</time>
      </trkpt>
      <trkpt lat="43.305667" lon="13.057296">
        <ele>929.009</ele>
        <time>2022-05-22T11:04:41Z</time>
      </trkpt>
      <trkpt lat="43.305831" lon="13.057685">
        <ele>928.639</ele>
        <time>2022-05-22T11:04:49Z</time>
      </trkpt>
      <trkpt lat="43.305892" lon="13.058284">
        <ele>925.268</ele>
        <time>2022-05-22T11:04:56Z</time>
      </trkpt>
      <trkpt lat="43.305891" lon="13.058354">
        <ele>925.091</ele>
        <time>2022-05-22T11:04:57Z</time>
      </trkpt>
      <trkpt lat="43.305898" lon="13.058412">
        <ele>924.817</ele>
        <time>2022-05-22T11:04:58Z</time>
      </trkpt>
      <trkpt lat="43.305914" lon="13.058455">
        <ele>924.881</ele>
        <time>2022-05-22T11:04:59Z</time>
      </trkpt>
      <trkpt lat="43.305933" lon="13.058485">
        <ele>924.817</ele>
        <time>2022-05-22T11:05:00Z</time>
      </trkpt>
      <trkpt lat="43.305957" lon="13.058509">
        <ele>925.062</ele>
        <time>2022-05-22T11:05:01Z</time>
      </trkpt>
      <trkpt lat="43.305984" lon="13.058524">
        <ele>925.491</ele>
        <time>2022-05-22T11:05:02Z</time>
      </trkpt>
      <trkpt lat="43.306011" lon="13.058532">
        <ele>925.639</ele>
        <time>2022-05-22T11:05:03Z</time>
      </trkpt>
      <trkpt lat="43.306036" lon="13.058535">
        <ele>925.844</ele>
        <time>2022-05-22T11:05:04Z</time>
      </trkpt>
      <trkpt lat="43.306381" lon="13.058596">
        <ele>928.605</ele>
        <time>2022-05-22T11:05:19Z</time>
      </trkpt>
      <trkpt lat="43.306558" lon="13.058627">
        <ele>931.815</ele>
        <time>2022-05-22T11:05:30Z</time>
      </trkpt>
      <trkpt lat="43.306709" lon="13.058705">
        <ele>934.409</ele>
        <time>2022-05-22T11:05:43Z</time>
      </trkpt>
      <trkpt lat="43.306784" lon="13.058732">
        <ele>934.455</ele>
        <time>2022-05-22T11:06:09Z</time>
      </trkpt>
      <trkpt lat="43.306893" lon="13.058800">
        <ele>934.074</ele>
        <time>2022-05-22T11:06:18Z</time>
      </trkpt>
      <trkpt lat="43.307009" lon="13.058863">
        <ele>933.257</ele>
        <time>2022-05-22T11:07:38Z</time>
      </trkpt>
      <trkpt lat="43.307030" lon="13.058873">
        <ele>933.073</ele>
        <time>2022-05-22T11:07:39Z</time>
      </trkpt>
      <trkpt lat="43.307357" lon="13.059109">
        <ele>931.887</ele>
        <time>2022-05-22T11:07:52Z</time>
      </trkpt>
      <trkpt lat="43.307717" lon="13.059385">
        <ele>931.683</ele>
        <time>2022-05-22T11:08:07Z</time>
      </trkpt>
      <trkpt lat="43.308125" lon="13.059663">
        <ele>930.688</ele>
        <time>2022-05-22T11:08:21Z</time>
      </trkpt>
      <trkpt lat="43.308553" lon="13.060157">
        <ele>929.237</ele>
        <time>2022-05-22T11:08:34Z</time>
      </trkpt>
      <trkpt lat="43.308941" lon="13.060458">
        <ele>929.035</ele>
        <time>2022-05-22T11:08:46Z</time>
      </trkpt>
      <trkpt lat="43.309373" lon="13.060885">
        <ele>929.818</ele>
        <time>2022-05-22T11:09:03Z</time>
      </trkpt>
      <trkpt lat="43.309387" lon="13.061181">
        <ele>932.298</ele>
        <time>2022-05-22T11:09:17Z</time>
      </trkpt>
      <trkpt lat="43.309368" lon="13.061192">
        <ele>932.217</ele>
        <time>2022-05-22T11:09:18Z</time>
      </trkpt>
      <trkpt lat="43.309347" lon="13.061200">
        <ele>932.209</ele>
        <time>2022-05-22T11:09:19Z</time>
      </trkpt>
      <trkpt lat="43.309234" lon="13.061215">
        <ele>932.622</ele>
        <time>2022-05-22T11:09:25Z</time>
      </trkpt>
      <trkpt lat="43.309051" lon="13.061114">
        <ele>934.441</ele>
        <time>2022-05-22T11:09:36Z</time>
      </trkpt>
      <trkpt lat="43.308743" lon="13.061036">
        <ele>935.014</ele>
        <time>2022-05-22T11:09:49Z</time>
      </trkpt>
      <trkpt lat="43.308406" lon="13.060941">
        <ele>935.440</ele>
        <time>2022-05-22T11:10:03Z</time>
      </trkpt>
      <trkpt lat="43.307857" lon="13.060865">
        <ele>934.464</ele>
        <time>2022-05-22T11:10:21Z</time>
      </trkpt>
      <trkpt lat="43.307683" lon="13.061000">
        <ele>936.440</ele>
        <time>2022-05-22T11:10:32Z</time>
      </trkpt>
      <trkpt lat="43.307488" lon="13.061203">
        <ele>938.675</ele>
        <time>2022-05-22T11:10:44Z</time>
      </trkpt>
      <trkpt lat="43.307137" lon="13.061343">
        <ele>938.424</ele>
        <time>2022-05-22T11:10:58Z</time>
      </trkpt>
      <trkpt lat="43.306824" lon="13.061404">
        <ele>941.092</ele>
        <time>2022-05-22T11:11:13Z</time>
      </trkpt>
      <trkpt lat="43.306618" lon="13.061506">
        <ele>944.439</ele>
        <time>2022-05-22T11:11:25Z</time>
      </trkpt>
      <trkpt lat="43.306467" lon="13.061458">
        <ele>947.401</ele>
        <time>2022-05-22T11:11:34Z</time>
      </trkpt>
      <trkpt lat="43.306216" lon="13.061409">
        <ele>950.221</ele>
        <time>2022-05-22T11:11:50Z</time>
      </trkpt>
      <trkpt lat="43.305986" lon="13.061423">
        <ele>953.209</ele>
        <time>2022-05-22T11:12:06Z</time>
      </trkpt>
      <trkpt lat="43.305759" lon="13.061408">
        <ele>956.484</ele>
        <time>2022-05-22T11:12:22Z</time>
      </trkpt>
      <trkpt lat="43.305599" lon="13.061392">
        <ele>959.033</ele>
        <time>2022-05-22T11:12:35Z</time>
      </trkpt>
      <trkpt lat="43.305585" lon="13.061396">
        <ele>959.256</ele>
        <time>2022-05-22T11:12:36Z</time>
      </trkpt>
      <trkpt lat="43.305573" lon="13.061392">
        <ele>959.262</ele>
        <time>2022-05-22T11:12:37Z</time>
      </trkpt>
      <trkpt lat="43.305560" lon="13.061386">
        <ele>959.466</ele>
        <time>2022-05-22T11:12:38Z</time>
      </trkpt>
      <trkpt lat="43.305546" lon="13.061386">
        <ele>959.612</ele>
        <time>2022-05-22T11:12:39Z</time>
      </trkpt>
      <trkpt lat="43.305533" lon="13.061384">
        <ele>959.827</ele>
        <time>2022-05-22T11:12:40Z</time>
      </trkpt>
      <trkpt lat="43.305518" lon="13.061385">
        <ele>959.876</ele>
        <time>2022-05-22T11:12:41Z</time>
      </trkpt>
      <trkpt lat="43.305503" lon="13.061384">
        <ele>960.014</ele>
        <time>2022-05-22T11:12:42Z</time>
      </trkpt>
      <trkpt lat="43.305317" lon="13.061364">
        <ele>962.493</ele>
        <time>2022-05-22T11:12:58Z</time>
      </trkpt>
      <trkpt lat="43.304956" lon="13.061303">
        <ele>967.865</ele>
        <time>2022-05-22T11:14:51Z</time>
      </trkpt>
      <trkpt lat="43.304811" lon="13.061273">
        <ele>969.821</ele>
        <time>2022-05-22T11:15:07Z</time>
      </trkpt>
      <trkpt lat="43.304796" lon="13.061288">
        <ele>970.009</ele>
        <time>2022-05-22T11:15:09Z</time>
      </trkpt>
      <trkpt lat="43.304791" lon="13.061320">
        <ele>970.280</ele>
        <time>2022-05-22T11:15:12Z</time>
      </trkpt>
      <trkpt lat="43.304794" lon="13.061337">
        <ele>970.419</ele>
        <time>2022-05-22T11:15:13Z</time>
      </trkpt>
      <trkpt lat="43.304799" lon="13.061355">
        <ele>970.432</ele>
        <time>2022-05-22T11:15:14Z</time>
      </trkpt>
      <trkpt lat="43.304805" lon="13.061372">
        <ele>970.688</ele>
        <time>2022-05-22T11:15:15Z</time>
      </trkpt>
      <trkpt lat="43.304829" lon="13.061411">
        <ele>971.462</ele>
        <time>2022-05-22T11:15:22Z</time>
      </trkpt>
      <trkpt lat="43.304961" lon="13.061561">
        <ele>973.448</ele>
        <time>2022-05-22T11:15:49Z</time>
      </trkpt>
      <trkpt lat="43.304964" lon="13.061582">
        <ele>974.273</ele>
        <time>2022-05-22T11:15:55Z</time>
      </trkpt>
      <trkpt lat="43.305089" lon="13.061668">
        <ele>975.082</ele>
        <time>2022-05-22T11:16:10Z</time>
      </trkpt>
      <trkpt lat="43.305255" lon="13.061856">
        <ele>977.470</ele>
        <time>2022-05-22T11:16:30Z</time>
      </trkpt>
      <trkpt lat="43.305398" lon="13.061953">
        <ele>979.453</ele>
        <time>2022-05-22T11:16:47Z</time>
      </trkpt>
      <trkpt lat="43.305412" lon="13.061989">
        <ele>980.204</ele>
        <time>2022-05-22T11:16:54Z</time>
      </trkpt>
      <trkpt lat="43.305963" lon="13.062496">
        <ele>990.414</ele>
        <time>2022-05-22T11:18:46Z</time>
      </trkpt>
      <trkpt lat="43.306059" lon="13.062595">
        <ele>993.009</ele>
        <time>2022-05-22T11:19:04Z</time>
      </trkpt>
      <trkpt lat="43.306515" lon="13.063421">
        <ele>1009.026</ele>
        <time>2022-05-22T11:21:36Z</time>
      </trkpt>
      <trkpt lat="43.306584" lon="13.063558">
        <ele>1012.055</ele>
        <time>2022-05-22T11:21:51Z</time>
      </trkpt>
      <trkpt lat="43.306676" lon="13.063729">
        <ele>1015.288</ele>
        <time>2022-05-22T11:22:11Z</time>
      </trkpt>
      <trkpt lat="43.306757" lon="13.063901">
        <ele>1018.274</ele>
        <time>2022-05-22T11:22:31Z</time>
      </trkpt>
      <trkpt lat="43.306788" lon="13.063953">
        <ele>1019.838</ele>
        <time>2022-05-22T11:22:41Z</time>
      </trkpt>
      <trkpt lat="43.307018" lon="13.064330">
        <ele>1025.284</ele>
        <time>2022-05-22T11:23:25Z</time>
      </trkpt>
      <trkpt lat="43.307101" lon="13.064517">
        <ele>1028.429</ele>
        <time>2022-05-22T11:23:42Z</time>
      </trkpt>
      <trkpt lat="43.307189" lon="13.064715">
        <ele>1031.428</ele>
        <time>2022-05-22T11:24:02Z</time>
      </trkpt>
      <trkpt lat="43.307210" lon="13.064753">
        <ele>1032.426</ele>
        <time>2022-05-22T11:24:09Z</time>
      </trkpt>
      <trkpt lat="43.307331" lon="13.065110">
        <ele>1037.425</ele>
        <time>2022-05-22T11:24:43Z</time>
      </trkpt>
      <trkpt lat="43.307398" lon="13.065363">
        <ele>1040.426</ele>
        <time>2022-05-22T11:25:05Z</time>
      </trkpt>
      <trkpt lat="43.307492" lon="13.065564">
        <ele>1043.208</ele>
        <time>2022-05-22T11:25:26Z</time>
      </trkpt>
      <trkpt lat="43.307513" lon="13.065643">
        <ele>1044.809</ele>
        <time>2022-05-22T11:25:36Z</time>
      </trkpt>
      <trkpt lat="43.307555" lon="13.065712">
        <ele>1045.233</ele>
        <time>2022-05-22T11:25:53Z</time>
      </trkpt>
      <trkpt lat="43.307692" lon="13.065982">
        <ele>1048.212</ele>
        <time>2022-05-22T11:26:12Z</time>
      </trkpt>
      <trkpt lat="43.307844" lon="13.066254">
        <ele>1051.095</ele>
        <time>2022-05-22T11:26:29Z</time>
      </trkpt>
      <trkpt lat="43.307949" lon="13.066594">
        <ele>1052.811</ele>
        <time>2022-05-22T11:26:47Z</time>
      </trkpt>
      <trkpt lat="43.308082" lon="13.067008">
        <ele>1055.895</ele>
        <time>2022-05-22T11:27:07Z</time>
      </trkpt>
      <trkpt lat="43.308195" lon="13.067543">
        <ele>1058.461</ele>
        <time>2022-05-22T11:27:29Z</time>
      </trkpt>
      <trkpt lat="43.308202" lon="13.067950">
        <ele>1061.476</ele>
        <time>2022-05-22T11:27:46Z</time>
      </trkpt>
      <trkpt lat="43.308103" lon="13.068334">
        <ele>1064.075</ele>
        <time>2022-05-22T11:28:04Z</time>
      </trkpt>
      <trkpt lat="43.308001" lon="13.068639">
        <ele>1067.033</ele>
        <time>2022-05-22T11:28:18Z</time>
      </trkpt>
      <trkpt lat="43.308058" lon="13.068986">
        <ele>1069.438</ele>
        <time>2022-05-22T11:28:33Z</time>
      </trkpt>
      <trkpt lat="43.308223" lon="13.069371">
        <ele>1069.870</ele>
        <time>2022-05-22T11:28:48Z</time>
      </trkpt>
      <trkpt lat="43.308616" lon="13.069845">
        <ele>1068.417</ele>
        <time>2022-05-22T11:29:01Z</time>
      </trkpt>
      <trkpt lat="43.308643" lon="13.069888">
        <ele>1068.409</ele>
        <time>2022-05-22T11:29:02Z</time>
      </trkpt>
      <trkpt lat="43.309009" lon="13.070523">
        <ele>1067.484</ele>
        <time>2022-05-22T11:29:19Z</time>
      </trkpt>
      <trkpt lat="43.309305" lon="13.071069">
        <ele>1066.833</ele>
        <time>2022-05-22T11:29:36Z</time>
      </trkpt>
      <trkpt lat="43.309656" lon="13.071654">
        <ele>1066.476</ele>
        <time>2022-05-22T11:29:56Z</time>
      </trkpt>
      <trkpt lat="43.309741" lon="13.071838">
        <ele>1066.612</ele>
        <time>2022-05-22T11:30:07Z</time>
      </trkpt>
      <trkpt lat="43.309567" lon="13.071937">
        <ele>1066.466</ele>
        <time>2022-05-22T11:34:29Z</time>
      </trkpt>
      <trkpt lat="43.309353" lon="13.072093">
        <ele>1068.032</ele>
        <time>2022-05-22T11:34:43Z</time>
      </trkpt>
      <trkpt lat="43.309259" lon="13.072123">
        <ele>1069.027</ele>
        <time>2022-05-22T11:34:51Z</time>
      </trkpt>
      <trkpt lat="43.309191" lon="13.072156">
        <ele>1069.276</ele>
        <time>2022-05-22T11:34:57Z</time>
      </trkpt>
      <trkpt lat="43.309175" lon="13.072154">
        <ele>1069.224</ele>
        <time>2022-05-22T11:34:58Z</time>
      </trkpt>
      <trkpt lat="43.309154" lon="13.072151">
        <ele>1069.217</ele>
        <time>2022-05-22T11:34:59Z</time>
      </trkpt>
      <trkpt lat="43.309131" lon="13.072146">
        <ele>1069.287</ele>
        <time>2022-05-22T11:35:00Z</time>
      </trkpt>
      <trkpt lat="43.309105" lon="13.072143">
        <ele>1069.215</ele>
        <time>2022-05-22T11:35:01Z</time>
      </trkpt>
      <trkpt lat="43.309079" lon="13.072143">
        <ele>1069.209</ele>
        <time>2022-05-22T11:35:02Z</time>
      </trkpt>
      <trkpt lat="43.309054" lon="13.072137">
        <ele>1069.262</ele>
        <time>2022-05-22T11:35:03Z</time>
      </trkpt>
      <trkpt lat="43.308908" lon="13.072170">
        <ele>1069.441</ele>
        <time>2022-05-22T11:35:11Z</time>
      </trkpt>
      <trkpt lat="43.308893" lon="13.072182">
        <ele>1069.424</ele>
        <time>2022-05-22T11:35:12Z</time>
      </trkpt>
      <trkpt lat="43.308878" lon="13.072191">
        <ele>1069.480</ele>
        <time>2022-05-22T11:35:13Z</time>
      </trkpt>
      <trkpt lat="43.308611" lon="13.072295">
        <ele>1069.894</ele>
        <time>2022-05-22T11:35:26Z</time>
      </trkpt>
      <trkpt lat="43.308406" lon="13.072363">
        <ele>1070.840</ele>
        <time>2022-05-22T11:35:36Z</time>
      </trkpt>
      <trkpt lat="43.308111" lon="13.072498">
        <ele>1072.055</ele>
        <time>2022-05-22T11:35:49Z</time>
      </trkpt>
      <trkpt lat="43.307818" lon="13.072630">
        <ele>1074.254</ele>
        <time>2022-05-22T11:36:03Z</time>
      </trkpt>
      <trkpt lat="43.307589" lon="13.072683">
        <ele>1075.212</ele>
        <time>2022-05-22T11:36:15Z</time>
      </trkpt>
      <trkpt lat="43.307340" lon="13.072749">
        <ele>1075.824</ele>
        <time>2022-05-22T11:36:27Z</time>
      </trkpt>
      <trkpt lat="43.307246" lon="13.072795">
        <ele>1076.004</ele>
        <time>2022-05-22T11:36:31Z</time>
      </trkpt>
      <trkpt lat="43.307223" lon="13.072799">
        <ele>1076.014</ele>
        <time>2022-05-22T11:36:32Z</time>
      </trkpt>
      <trkpt lat="43.307199" lon="13.072799">
        <ele>1076.209</ele>
        <time>2022-05-22T11:36:33Z</time>
      </trkpt>
      <trkpt lat="43.307168" lon="13.072818">
        <ele>1076.283</ele>
        <time>2022-05-22T11:36:34Z</time>
      </trkpt>
      <trkpt lat="43.307141" lon="13.072838">
        <ele>1076.282</ele>
        <time>2022-05-22T11:36:35Z</time>
      </trkpt>
      <trkpt lat="43.307116" lon="13.072855">
        <ele>1076.435</ele>
        <time>2022-05-22T11:36:36Z</time>
      </trkpt>
      <trkpt lat="43.307091" lon="13.072872">
        <ele>1076.431</ele>
        <time>2022-05-22T11:36:37Z</time>
      </trkpt>
      <trkpt lat="43.307067" lon="13.072903">
        <ele>1076.475</ele>
        <time>2022-05-22T11:36:38Z</time>
      </trkpt>
      <trkpt lat="43.307044" lon="13.072924">
        <ele>1076.441</ele>
        <time>2022-05-22T11:36:39Z</time>
      </trkpt>
      <trkpt lat="43.306986" lon="13.072991">
        <ele>1077.276</ele>
        <time>2022-05-22T11:36:46Z</time>
      </trkpt>
      <trkpt lat="43.306848" lon="13.073128">
        <ele>1077.235</ele>
        <time>2022-05-22T11:38:21Z</time>
      </trkpt>
      <trkpt lat="43.306777" lon="13.073441">
        <ele>1077.663</ele>
        <time>2022-05-22T11:38:33Z</time>
      </trkpt>
      <trkpt lat="43.306769" lon="13.073474">
        <ele>1077.698</ele>
        <time>2022-05-22T11:38:34Z</time>
      </trkpt>
      <trkpt lat="43.306764" lon="13.073512">
        <ele>1077.415</ele>
        <time>2022-05-22T11:38:35Z</time>
      </trkpt>
      <trkpt lat="43.306760" lon="13.073552">
        <ele>1077.426</ele>
        <time>2022-05-22T11:38:36Z</time>
      </trkpt>
      <trkpt lat="43.306755" lon="13.073589">
        <ele>1077.209</ele>
        <time>2022-05-22T11:38:37Z</time>
      </trkpt>
      <trkpt lat="43.306642" lon="13.074243">
        <ele>1075.470</ele>
        <time>2022-05-22T11:38:49Z</time>
      </trkpt>
      <trkpt lat="43.306564" lon="13.074656">
        <ele>1074.429</ele>
        <time>2022-05-22T11:38:55Z</time>
      </trkpt>
      <trkpt lat="43.306407" lon="13.075570">
        <ele>1073.052</ele>
        <time>2022-05-22T11:39:09Z</time>
      </trkpt>
      <trkpt lat="43.306294" lon="13.076236">
        <ele>1073.428</ele>
        <time>2022-05-22T11:39:23Z</time>
      </trkpt>
      <trkpt lat="43.306088" lon="13.076655">
        <ele>1074.652</ele>
        <time>2022-05-22T11:39:35Z</time>
      </trkpt>
      <trkpt lat="43.305998" lon="13.077310">
        <ele>1075.058</ele>
        <time>2022-05-22T11:39:49Z</time>
      </trkpt>
      <trkpt lat="43.306011" lon="13.077904">
        <ele>1073.633</ele>
        <time>2022-05-22T11:40:01Z</time>
      </trkpt>
      <trkpt lat="43.306009" lon="13.077972">
        <ele>1073.072</ele>
        <time>2022-05-22T11:40:02Z</time>
      </trkpt>
      <trkpt lat="43.306002" lon="13.078042">
        <ele>1072.650</ele>
        <time>2022-05-22T11:40:03Z</time>
      </trkpt>
      <trkpt lat="43.305961" lon="13.078205">
        <ele>1071.439</ele>
        <time>2022-05-22T11:40:06Z</time>
      </trkpt>
      <trkpt lat="43.305937" lon="13.078252">
        <ele>1071.001</ele>
        <time>2022-05-22T11:40:07Z</time>
      </trkpt>
      <trkpt lat="43.305904" lon="13.078303">
        <ele>1070.621</ele>
        <time>2022-05-22T11:40:08Z</time>
      </trkpt>
      <trkpt lat="43.305860" lon="13.078358">
        <ele>1070.209</ele>
        <time>2022-05-22T11:40:09Z</time>
      </trkpt>
      <trkpt lat="43.305806" lon="13.078419">
        <ele>1069.644</ele>
        <time>2022-05-22T11:40:10Z</time>
      </trkpt>
      <trkpt lat="43.305744" lon="13.078478">
        <ele>1069.233</ele>
        <time>2022-05-22T11:40:11Z</time>
      </trkpt>
      <trkpt lat="43.305678" lon="13.078537">
        <ele>1068.646</ele>
        <time>2022-05-22T11:40:12Z</time>
      </trkpt>
      <trkpt lat="43.305616" lon="13.078601">
        <ele>1067.892</ele>
        <time>2022-05-22T11:40:13Z</time>
      </trkpt>
      <trkpt lat="43.305470" lon="13.078804">
        <ele>1065.816</ele>
        <time>2022-05-22T11:40:16Z</time>
      </trkpt>
      <trkpt lat="43.305435" lon="13.078865">
        <ele>1065.682</ele>
        <time>2022-05-22T11:40:17Z</time>
      </trkpt>
      <trkpt lat="43.305297" lon="13.079149">
        <ele>1068.457</ele>
        <time>2022-05-22T11:40:26Z</time>
      </trkpt>
      <trkpt lat="43.305169" lon="13.079417">
        <ele>1071.646</ele>
        <time>2022-05-22T11:40:36Z</time>
      </trkpt>
      <trkpt lat="43.305021" lon="13.079747">
        <ele>1074.644</ele>
        <time>2022-05-22T11:40:48Z</time>
      </trkpt>
      <trkpt lat="43.305016" lon="13.079757">
        <ele>1075.851</ele>
        <time>2022-05-22T11:40:53Z</time>
      </trkpt>
      <trkpt lat="43.304953" lon="13.079876">
        <ele>1076.401</ele>
        <time>2022-05-22T11:41:32Z</time>
      </trkpt>
      <trkpt lat="43.304941" lon="13.079893">
        <ele>1076.411</ele>
        <time>2022-05-22T11:41:33Z</time>
      </trkpt>
      <trkpt lat="43.304865" lon="13.080044">
        <ele>1078.009</ele>
        <time>2022-05-22T11:41:42Z</time>
      </trkpt>
      <trkpt lat="43.304861" lon="13.080059">
        <ele>1078.216</ele>
        <time>2022-05-22T11:41:43Z</time>
      </trkpt>
      <trkpt lat="43.304823" lon="13.080127">
        <ele>1078.845</ele>
        <time>2022-05-22T11:41:46Z</time>
      </trkpt>
      <trkpt lat="43.304807" lon="13.080147">
        <ele>1079.028</ele>
        <time>2022-05-22T11:41:47Z</time>
      </trkpt>
      <trkpt lat="43.304789" lon="13.080165">
        <ele>1079.294</ele>
        <time>2022-05-22T11:41:48Z</time>
      </trkpt>
      <trkpt lat="43.304658" lon="13.080279">
        <ele>1081.018</ele>
        <time>2022-05-22T11:42:01Z</time>
      </trkpt>
      <trkpt lat="43.304576" lon="13.080462">
        <ele>1081.014</ele>
        <time>2022-05-22T11:44:46Z</time>
      </trkpt>
      <trkpt lat="43.304399" lon="13.080654">
        <ele>1081.089</ele>
        <time>2022-05-22T11:45:00Z</time>
      </trkpt>
      <trkpt lat="43.304139" lon="13.080939">
        <ele>1080.088</ele>
        <time>2022-05-22T11:45:13Z</time>
      </trkpt>
      <trkpt lat="43.303806" lon="13.081154">
        <ele>1077.686</ele>
        <time>2022-05-22T11:45:23Z</time>
      </trkpt>
      <trkpt lat="43.303484" lon="13.081514">
        <ele>1074.679</ele>
        <time>2022-05-22T11:45:33Z</time>
      </trkpt>
      <trkpt lat="43.303295" lon="13.081580">
        <ele>1074.005</ele>
        <time>2022-05-22T11:45:42Z</time>
      </trkpt>
      <trkpt lat="43.303038" lon="13.081753">
        <ele>1072.425</ele>
        <time>2022-05-22T11:45:54Z</time>
      </trkpt>
      <trkpt lat="43.302721" lon="13.081902">
        <ele>1069.609</ele>
        <time>2022-05-22T11:46:05Z</time>
      </trkpt>
      <trkpt lat="43.302399" lon="13.082065">
        <ele>1069.268</ele>
        <time>2022-05-22T11:46:19Z</time>
      </trkpt>
      <trkpt lat="43.302151" lon="13.082179">
        <ele>1069.287</ele>
        <time>2022-05-22T11:46:30Z</time>
      </trkpt>
      <trkpt lat="43.301767" lon="13.082320">
        <ele>1071.810</ele>
        <time>2022-05-22T11:46:47Z</time>
      </trkpt>
      <trkpt lat="43.301436" lon="13.082429">
        <ele>1074.886</ele>
        <time>2022-05-22T11:47:03Z</time>
      </trkpt>
      <trkpt lat="43.301262" lon="13.082757">
        <ele>1077.850</ele>
        <time>2022-05-22T11:47:19Z</time>
      </trkpt>
      <trkpt lat="43.301222" lon="13.083076">
        <ele>1078.686</ele>
        <time>2022-05-22T11:47:31Z</time>
      </trkpt>
      <trkpt lat="43.301245" lon="13.083201">
        <ele>1079.671</ele>
        <time>2022-05-22T11:47:42Z</time>
      </trkpt>
      <trkpt lat="43.301415" lon="13.084211">
        <ele>1084.880</ele>
        <time>2022-05-22T11:50:36Z</time>
      </trkpt>
      <trkpt lat="43.301425" lon="13.084255">
        <ele>1085.298</ele>
        <time>2022-05-22T11:50:38Z</time>
      </trkpt>
      <trkpt lat="43.301425" lon="13.084282">
        <ele>1085.433</ele>
        <time>2022-05-22T11:50:39Z</time>
      </trkpt>
      <trkpt lat="43.301433" lon="13.084325">
        <ele>1085.623</ele>
        <time>2022-05-22T11:50:41Z</time>
      </trkpt>
      <trkpt lat="43.301436" lon="13.084351">
        <ele>1085.815</ele>
        <time>2022-05-22T11:50:42Z</time>
      </trkpt>
      <trkpt lat="43.301435" lon="13.084380">
        <ele>1086.009</ele>
        <time>2022-05-22T11:50:43Z</time>
      </trkpt>
      <trkpt lat="43.301408" lon="13.084700">
        <ele>1087.214</ele>
        <time>2022-05-22T11:50:56Z</time>
      </trkpt>
      <trkpt lat="43.301400" lon="13.085032">
        <ele>1087.443</ele>
        <time>2022-05-22T11:51:10Z</time>
      </trkpt>
      <trkpt lat="43.301394" lon="13.085038">
        <ele>1087.246</ele>
        <time>2022-05-22T11:51:15Z</time>
      </trkpt>
      <trkpt lat="43.301402" lon="13.085113">
        <ele>1087.262</ele>
        <time>2022-05-22T11:51:49Z</time>
      </trkpt>
      <trkpt lat="43.301249" lon="13.085431">
        <ele>1085.816</ele>
        <time>2022-05-22T11:52:01Z</time>
      </trkpt>
      <trkpt lat="43.301049" lon="13.085839">
        <ele>1083.262</ele>
        <time>2022-05-22T11:52:13Z</time>
      </trkpt>
      <trkpt lat="43.300869" lon="13.086110">
        <ele>1080.267</ele>
        <time>2022-05-22T11:52:20Z</time>
      </trkpt>
      <trkpt lat="43.300591" lon="13.086422">
        <ele>1077.276</ele>
        <time>2022-05-22T11:52:27Z</time>
      </trkpt>
      <trkpt lat="43.300553" lon="13.086491">
        <ele>1076.684</ele>
        <time>2022-05-22T11:52:28Z</time>
      </trkpt>
      <trkpt lat="43.300402" lon="13.086797">
        <ele>1074.466</ele>
        <time>2022-05-22T11:52:32Z</time>
      </trkpt>
      <trkpt lat="43.300365" lon="13.086855">
        <ele>1073.629</ele>
        <time>2022-05-22T11:52:33Z</time>
      </trkpt>
      <trkpt lat="43.300327" lon="13.086897">
        <ele>1073.021</ele>
        <time>2022-05-22T11:52:34Z</time>
      </trkpt>
      <trkpt lat="43.300289" lon="13.086927">
        <ele>1072.809</ele>
        <time>2022-05-22T11:52:35Z</time>
      </trkpt>
      <trkpt lat="43.300257" lon="13.086946">
        <ele>1072.687</ele>
        <time>2022-05-22T11:52:36Z</time>
      </trkpt>
      <trkpt lat="43.299963" lon="13.087243">
        <ele>1074.286</ele>
        <time>2022-05-22T11:52:49Z</time>
      </trkpt>
      <trkpt lat="43.299631" lon="13.087721">
        <ele>1074.869</ele>
        <time>2022-05-22T11:53:05Z</time>
      </trkpt>
      <trkpt lat="43.299423" lon="13.088140">
        <ele>1074.655</ele>
        <time>2022-05-22T11:53:19Z</time>
      </trkpt>
      <trkpt lat="43.299337" lon="13.088213">
        <ele>1073.849</ele>
        <time>2022-05-22T11:53:28Z</time>
      </trkpt>
      <trkpt lat="43.299301" lon="13.088257">
        <ele>1073.425</ele>
        <time>2022-05-22T11:53:38Z</time>
      </trkpt>
      <trkpt lat="43.298951" lon="13.088543">
        <ele>1070.610</ele>
        <time>2022-05-22T11:53:50Z</time>
      </trkpt>
      <trkpt lat="43.298777" lon="13.088717">
        <ele>1067.899</ele>
        <time>2022-05-22T11:53:56Z</time>
      </trkpt>
      <trkpt lat="43.298357" lon="13.089098">
        <ele>1065.697</ele>
        <time>2022-05-22T11:54:10Z</time>
      </trkpt>
      <trkpt lat="43.297924" lon="13.089273">
        <ele>1067.628</ele>
        <time>2022-05-22T11:54:26Z</time>
      </trkpt>
      <trkpt lat="43.297686" lon="13.089255">
        <ele>1069.489</ele>
        <time>2022-05-22T11:54:37Z</time>
      </trkpt>
      <trkpt lat="43.297390" lon="13.089291">
        <ele>1070.017</ele>
        <time>2022-05-22T11:54:51Z</time>
      </trkpt>
      <trkpt lat="43.297274" lon="13.089373">
        <ele>1070.009</ele>
        <time>2022-05-22T11:54:57Z</time>
      </trkpt>
      <trkpt lat="43.297258" lon="13.089392">
        <ele>1070.243</ele>
        <time>2022-05-22T11:54:58Z</time>
      </trkpt>
      <trkpt lat="43.297239" lon="13.089409">
        <ele>1070.232</ele>
        <time>2022-05-22T11:54:59Z</time>
      </trkpt>
      <trkpt lat="43.297220" lon="13.089419">
        <ele>1070.455</ele>
        <time>2022-05-22T11:55:00Z</time>
      </trkpt>
      <trkpt lat="43.297201" lon="13.089429">
        <ele>1070.641</ele>
        <time>2022-05-22T11:55:01Z</time>
      </trkpt>
      <trkpt lat="43.297183" lon="13.089438">
        <ele>1070.855</ele>
        <time>2022-05-22T11:55:02Z</time>
      </trkpt>
      <trkpt lat="43.297163" lon="13.089449">
        <ele>1070.861</ele>
        <time>2022-05-22T11:55:03Z</time>
      </trkpt>
      <trkpt lat="43.296916" lon="13.089773">
        <ele>1074.056</ele>
        <time>2022-05-22T11:55:20Z</time>
      </trkpt>
      <trkpt lat="43.296742" lon="13.090111">
        <ele>1073.835</ele>
        <time>2022-05-22T11:55:32Z</time>
      </trkpt>
      <trkpt lat="43.296536" lon="13.090606">
        <ele>1074.263</ele>
        <time>2022-05-22T11:55:51Z</time>
      </trkpt>
      <trkpt lat="43.296456" lon="13.090892">
        <ele>1073.692</ele>
        <time>2022-05-22T11:56:02Z</time>
      </trkpt>
      <trkpt lat="43.296459" lon="13.090917">
        <ele>1073.673</ele>
        <time>2022-05-22T11:56:03Z</time>
      </trkpt>
      <trkpt lat="43.296591" lon="13.091357">
        <ele>1075.820</ele>
        <time>2022-05-22T11:56:18Z</time>
      </trkpt>
      <trkpt lat="43.296851" lon="13.091589">
        <ele>1075.609</ele>
        <time>2022-05-22T11:56:31Z</time>
      </trkpt>
      <trkpt lat="43.297082" lon="13.091865">
        <ele>1076.620</ele>
        <time>2022-05-22T11:56:45Z</time>
      </trkpt>
      <trkpt lat="43.297188" lon="13.092175">
        <ele>1075.229</ele>
        <time>2022-05-22T11:56:57Z</time>
      </trkpt>
      <trkpt lat="43.297329" lon="13.092420">
        <ele>1072.012</ele>
        <time>2022-05-22T11:57:07Z</time>
      </trkpt>
      <trkpt lat="43.297476" lon="13.092743">
        <ele>1068.838</ele>
        <time>2022-05-22T11:57:15Z</time>
      </trkpt>
      <trkpt lat="43.297537" lon="13.093062">
        <ele>1065.272</ele>
        <time>2022-05-22T11:57:21Z</time>
      </trkpt>
      <trkpt lat="43.297573" lon="13.093304">
        <ele>1062.098</ele>
        <time>2022-05-22T11:57:26Z</time>
      </trkpt>
      <trkpt lat="43.297596" lon="13.093465">
        <ele>1058.843</ele>
        <time>2022-05-22T11:57:32Z</time>
      </trkpt>
      <trkpt lat="43.297598" lon="13.093464">
        <ele>1058.482</ele>
        <time>2022-05-22T11:57:34Z</time>
      </trkpt>
      <trkpt lat="43.297660" lon="13.093550">
        <ele>1058.430</ele>
        <time>2022-05-22T12:20:58Z</time>
      </trkpt>
      <trkpt lat="43.297673" lon="13.093590">
        <ele>1058.421</ele>
        <time>2022-05-22T12:20:59Z</time>
      </trkpt>
      <trkpt lat="43.297775" lon="13.094154">
        <ele>1055.241</ele>
        <time>2022-05-22T12:21:11Z</time>
      </trkpt>
      <trkpt lat="43.297852" lon="13.094368">
        <ele>1053.005</ele>
        <time>2022-05-22T12:21:16Z</time>
      </trkpt>
      <trkpt lat="43.297948" lon="13.094658">
        <ele>1049.409</ele>
        <time>2022-05-22T12:21:24Z</time>
      </trkpt>
      <trkpt lat="43.298080" lon="13.094948">
        <ele>1046.223</ele>
        <time>2022-05-22T12:21:33Z</time>
      </trkpt>
      <trkpt lat="43.298210" lon="13.095198">
        <ele>1042.812</ele>
        <time>2022-05-22T12:21:41Z</time>
      </trkpt>
      <trkpt lat="43.298425" lon="13.095526">
        <ele>1039.665</ele>
        <time>2022-05-22T12:21:53Z</time>
      </trkpt>
      <trkpt lat="43.298602" lon="13.095723">
        <ele>1036.481</ele>
        <time>2022-05-22T12:22:01Z</time>
      </trkpt>
      <trkpt lat="43.298907" lon="13.095894">
        <ele>1033.235</ele>
        <time>2022-05-22T12:22:12Z</time>
      </trkpt>
      <trkpt lat="43.299131" lon="13.095935">
        <ele>1030.091</ele>
        <time>2022-05-22T12:22:19Z</time>
      </trkpt>
      <trkpt lat="43.299355" lon="13.095978">
        <ele>1026.876</ele>
        <time>2022-05-22T12:22:25Z</time>
      </trkpt>
      <trkpt lat="43.299483" lon="13.096008">
        <ele>1025.075</ele>
        <time>2022-05-22T12:22:28Z</time>
      </trkpt>
      <trkpt lat="43.299574" lon="13.096040">
        <ele>1023.443</ele>
        <time>2022-05-22T12:22:30Z</time>
      </trkpt>
      <trkpt lat="43.299759" lon="13.096115">
        <ele>1019.825</ele>
        <time>2022-05-22T12:22:34Z</time>
      </trkpt>
      <trkpt lat="43.299950" lon="13.096162">
        <ele>1016.226</ele>
        <time>2022-05-22T12:22:38Z</time>
      </trkpt>
      <trkpt lat="43.300070" lon="13.096234">
        <ele>1013.208</ele>
        <time>2022-05-22T12:22:45Z</time>
      </trkpt>
      <trkpt lat="43.300099" lon="13.096241">
        <ele>1012.409</ele>
        <time>2022-05-22T12:22:49Z</time>
      </trkpt>
      <trkpt lat="43.300229" lon="13.096395">
        <ele>1011.423</ele>
        <time>2022-05-22T12:23:32Z</time>
      </trkpt>
      <trkpt lat="43.300290" lon="13.096711">
        <ele>1008.292</ele>
        <time>2022-05-22T12:23:41Z</time>
      </trkpt>
      <trkpt lat="43.300260" lon="13.097004">
        <ele>1004.825</ele>
        <time>2022-05-22T12:23:48Z</time>
      </trkpt>
      <trkpt lat="43.300185" lon="13.097346">
        <ele>1001.881</ele>
        <time>2022-05-22T12:23:55Z</time>
      </trkpt>
      <trkpt lat="43.300094" lon="13.097546">
        <ele>998.695</ele>
        <time>2022-05-22T12:24:01Z</time>
      </trkpt>
      <trkpt lat="43.299909" lon="13.097767">
        <ele>995.271</ele>
        <time>2022-05-22T12:24:08Z</time>
      </trkpt>
      <trkpt lat="43.299715" lon="13.097978">
        <ele>991.866</ele>
        <time>2022-05-22T12:24:15Z</time>
      </trkpt>
      <trkpt lat="43.299580" lon="13.098293">
        <ele>988.685</ele>
        <time>2022-05-22T12:24:22Z</time>
      </trkpt>
      <trkpt lat="43.299605" lon="13.098502">
        <ele>987.413</ele>
        <time>2022-05-22T12:24:26Z</time>
      </trkpt>
      <trkpt lat="43.299628" lon="13.098552">
        <ele>987.473</ele>
        <time>2022-05-22T12:24:27Z</time>
      </trkpt>
      <trkpt lat="43.299658" lon="13.098596">
        <ele>987.285</ele>
        <time>2022-05-22T12:24:28Z</time>
      </trkpt>
      <trkpt lat="43.299695" lon="13.098632">
        <ele>986.813</ele>
        <time>2022-05-22T12:24:29Z</time>
      </trkpt>
      <trkpt lat="43.299735" lon="13.098661">
        <ele>986.609</ele>
        <time>2022-05-22T12:24:30Z</time>
      </trkpt>
      <trkpt lat="43.299777" lon="13.098682">
        <ele>985.898</ele>
        <time>2022-05-22T12:24:31Z</time>
      </trkpt>
      <trkpt lat="43.299821" lon="13.098698">
        <ele>985.477</ele>
        <time>2022-05-22T12:24:32Z</time>
      </trkpt>
      <trkpt lat="43.299865" lon="13.098706">
        <ele>985.020</ele>
        <time>2022-05-22T12:24:33Z</time>
      </trkpt>
      <trkpt lat="43.299908" lon="13.098710">
        <ele>984.876</ele>
        <time>2022-05-22T12:24:34Z</time>
      </trkpt>
      <trkpt lat="43.299952" lon="13.098709">
        <ele>984.870</ele>
        <time>2022-05-22T12:24:35Z</time>
      </trkpt>
      <trkpt lat="43.299996" lon="13.098706">
        <ele>984.686</ele>
        <time>2022-05-22T12:24:36Z</time>
      </trkpt>
      <trkpt lat="43.300430" lon="13.098424">
        <ele>982.481</ele>
        <time>2022-05-22T12:24:50Z</time>
      </trkpt>
      <trkpt lat="43.300634" lon="13.097949">
        <ele>980.640</ele>
        <time>2022-05-22T12:25:02Z</time>
      </trkpt>
      <trkpt lat="43.300659" lon="13.097947">
        <ele>980.438</ele>
        <time>2022-05-22T12:25:03Z</time>
      </trkpt>
      <trkpt lat="43.300683" lon="13.097960">
        <ele>980.235</ele>
        <time>2022-05-22T12:25:04Z</time>
      </trkpt>
      <trkpt lat="43.300701" lon="13.097985">
        <ele>980.086</ele>
        <time>2022-05-22T12:25:05Z</time>
      </trkpt>
      <trkpt lat="43.300714" lon="13.098018">
        <ele>979.814</ele>
        <time>2022-05-22T12:25:06Z</time>
      </trkpt>
      <trkpt lat="43.300717" lon="13.098058">
        <ele>979.409</ele>
        <time>2022-05-22T12:25:07Z</time>
      </trkpt>
      <trkpt lat="43.300712" lon="13.098105">
        <ele>979.234</ele>
        <time>2022-05-22T12:25:08Z</time>
      </trkpt>
      <trkpt lat="43.300706" lon="13.098153">
        <ele>978.893</ele>
        <time>2022-05-22T12:25:09Z</time>
      </trkpt>
      <trkpt lat="43.300701" lon="13.098205">
        <ele>978.636</ele>
        <time>2022-05-22T12:25:10Z</time>
      </trkpt>
      <trkpt lat="43.300768" lon="13.098746">
        <ele>975.022</ele>
        <time>2022-05-22T12:25:19Z</time>
      </trkpt>
      <trkpt lat="43.300800" lon="13.099146">
        <ele>971.696</ele>
        <time>2022-05-22T12:25:27Z</time>
      </trkpt>
      <trkpt lat="43.300832" lon="13.099538">
        <ele>968.682</ele>
        <time>2022-05-22T12:25:38Z</time>
      </trkpt>
      <trkpt lat="43.300710" lon="13.099788">
        <ele>965.217</ele>
        <time>2022-05-22T12:25:46Z</time>
      </trkpt>
      <trkpt lat="43.300531" lon="13.099907">
        <ele>962.056</ele>
        <time>2022-05-22T12:25:54Z</time>
      </trkpt>
      <trkpt lat="43.300507" lon="13.099919">
        <ele>960.684</ele>
        <time>2022-05-22T12:25:59Z</time>
      </trkpt>
      <trkpt lat="43.300390" lon="13.099962">
        <ele>960.054</ele>
        <time>2022-05-22T12:26:27Z</time>
      </trkpt>
      <trkpt lat="43.300365" lon="13.099963">
        <ele>959.856</ele>
        <time>2022-05-22T12:26:28Z</time>
      </trkpt>
      <trkpt lat="43.300336" lon="13.099971">
        <ele>959.811</ele>
        <time>2022-05-22T12:26:29Z</time>
      </trkpt>
      <trkpt lat="43.300307" lon="13.099978">
        <ele>959.409</ele>
        <time>2022-05-22T12:26:30Z</time>
      </trkpt>
      <trkpt lat="43.300020" lon="13.100002">
        <ele>956.446</ele>
        <time>2022-05-22T12:26:39Z</time>
      </trkpt>
      <trkpt lat="43.299802" lon="13.099994">
        <ele>953.635</ele>
        <time>2022-05-22T12:26:45Z</time>
      </trkpt>
      <trkpt lat="43.299755" lon="13.099994">
        <ele>952.628</ele>
        <time>2022-05-22T12:26:46Z</time>
      </trkpt>
      <trkpt lat="43.299712" lon="13.099986">
        <ele>951.824</ele>
        <time>2022-05-22T12:26:47Z</time>
      </trkpt>
      <trkpt lat="43.299675" lon="13.099989">
        <ele>951.258</ele>
        <time>2022-05-22T12:26:48Z</time>
      </trkpt>
      <trkpt lat="43.299641" lon="13.099993">
        <ele>950.844</ele>
        <time>2022-05-22T12:26:49Z</time>
      </trkpt>
      <trkpt lat="43.299612" lon="13.100001">
        <ele>950.479</ele>
        <time>2022-05-22T12:26:50Z</time>
      </trkpt>
      <trkpt lat="43.299519" lon="13.100030">
        <ele>949.828</ele>
        <time>2022-05-22T12:26:53Z</time>
      </trkpt>
      <trkpt lat="43.299502" lon="13.100061">
        <ele>949.456</ele>
        <time>2022-05-22T12:26:54Z</time>
      </trkpt>
      <trkpt lat="43.299501" lon="13.100101">
        <ele>949.242</ele>
        <time>2022-05-22T12:26:55Z</time>
      </trkpt>
      <trkpt lat="43.299508" lon="13.100144">
        <ele>948.822</ele>
        <time>2022-05-22T12:26:56Z</time>
      </trkpt>
      <trkpt lat="43.299522" lon="13.100179">
        <ele>948.414</ele>
        <time>2022-05-22T12:26:57Z</time>
      </trkpt>
      <trkpt lat="43.299542" lon="13.100212">
        <ele>948.009</ele>
        <time>2022-05-22T12:26:58Z</time>
      </trkpt>
      <trkpt lat="43.299562" lon="13.100239">
        <ele>947.865</ele>
        <time>2022-05-22T12:26:59Z</time>
      </trkpt>
      <trkpt lat="43.299585" lon="13.100259">
        <ele>947.464</ele>
        <time>2022-05-22T12:27:00Z</time>
      </trkpt>
      <trkpt lat="43.299608" lon="13.100282">
        <ele>946.857</ele>
        <time>2022-05-22T12:27:01Z</time>
      </trkpt>
      <trkpt lat="43.299631" lon="13.100307">
        <ele>946.423</ele>
        <time>2022-05-22T12:27:02Z</time>
      </trkpt>
      <trkpt lat="43.299795" lon="13.100525">
        <ele>942.827</ele>
        <time>2022-05-22T12:27:09Z</time>
      </trkpt>
      <trkpt lat="43.299834" lon="13.100596">
        <ele>942.083</ele>
        <time>2022-05-22T12:27:11Z</time>
      </trkpt>
      <trkpt lat="43.299954" lon="13.100772">
        <ele>939.028</ele>
        <time>2022-05-22T12:27:17Z</time>
      </trkpt>
      <trkpt lat="43.300123" lon="13.100997">
        <ele>935.847</ele>
        <time>2022-05-22T12:27:25Z</time>
      </trkpt>
      <trkpt lat="43.300269" lon="13.101316">
        <ele>932.485</ele>
        <time>2022-05-22T12:27:33Z</time>
      </trkpt>
      <trkpt lat="43.300328" lon="13.101586">
        <ele>928.896</ele>
        <time>2022-05-22T12:27:39Z</time>
      </trkpt>
      <trkpt lat="43.300333" lon="13.101633">
        <ele>926.831</ele>
        <time>2022-05-22T12:27:45Z</time>
      </trkpt>
      <trkpt lat="43.300360" lon="13.101734">
        <ele>927.024</ele>
        <time>2022-05-22T12:29:07Z</time>
      </trkpt>
      <trkpt lat="43.300368" lon="13.101758">
        <ele>927.009</ele>
        <time>2022-05-22T12:29:08Z</time>
      </trkpt>
      <trkpt lat="43.300523" lon="13.101969">
        <ele>923.860</ele>
        <time>2022-05-22T12:29:16Z</time>
      </trkpt>
      <trkpt lat="43.300735" lon="13.102213">
        <ele>920.879</ele>
        <time>2022-05-22T12:29:24Z</time>
      </trkpt>
      <trkpt lat="43.300899" lon="13.102374">
        <ele>917.632</ele>
        <time>2022-05-22T12:29:32Z</time>
      </trkpt>
      <trkpt lat="43.300979" lon="13.102478">
        <ele>914.488</ele>
        <time>2022-05-22T12:29:38Z</time>
      </trkpt>
      <trkpt lat="43.300979" lon="13.102479">
        <ele>913.612</ele>
        <time>2022-05-22T12:29:41Z</time>
      </trkpt>
      <trkpt lat="43.300640" lon="13.102147">
        <ele>920.618</ele>
        <time>2022-05-22T12:33:38Z</time>
      </trkpt>
      <trkpt lat="43.300595" lon="13.102081">
        <ele>921.633</ele>
        <time>2022-05-22T12:33:47Z</time>
      </trkpt>
      <trkpt lat="43.300586" lon="13.102072">
        <ele>921.892</ele>
        <time>2022-05-22T12:33:48Z</time>
      </trkpt>
      <trkpt lat="43.300578" lon="13.102059">
        <ele>921.890</ele>
        <time>2022-05-22T12:33:49Z</time>
      </trkpt>
      <trkpt lat="43.300571" lon="13.102046">
        <ele>921.871</ele>
        <time>2022-05-22T12:33:50Z</time>
      </trkpt>
      <trkpt lat="43.300445" lon="13.101895">
        <ele>924.241</ele>
        <time>2022-05-22T12:34:07Z</time>
      </trkpt>
      <trkpt lat="43.300351" lon="13.101737">
        <ele>926.615</ele>
        <time>2022-05-22T12:34:24Z</time>
      </trkpt>
      <trkpt lat="43.300294" lon="13.101542">
        <ele>928.409</ele>
        <time>2022-05-22T12:34:42Z</time>
      </trkpt>
      <trkpt lat="43.300294" lon="13.101434">
        <ele>929.648</ele>
        <time>2022-05-22T12:34:54Z</time>
      </trkpt>
      <trkpt lat="43.299915" lon="13.100688">
        <ele>937.227</ele>
        <time>2022-05-22T12:36:16Z</time>
      </trkpt>
      <trkpt lat="43.299782" lon="13.100534">
        <ele>939.450</ele>
        <time>2022-05-22T12:36:35Z</time>
      </trkpt>
      <trkpt lat="43.299741" lon="13.100463">
        <ele>940.066</ele>
        <time>2022-05-22T12:36:42Z</time>
      </trkpt>
      <trkpt lat="43.299697" lon="13.100418">
        <ele>940.820</ele>
        <time>2022-05-22T12:36:47Z</time>
      </trkpt>
      <trkpt lat="43.299556" lon="13.100263">
        <ele>944.066</ele>
        <time>2022-05-22T12:37:06Z</time>
      </trkpt>
      <trkpt lat="43.299429" lon="13.100132">
        <ele>946.641</ele>
        <time>2022-05-22T12:37:26Z</time>
      </trkpt>
      <trkpt lat="43.299378" lon="13.100057">
        <ele>948.490</ele>
        <time>2022-05-22T12:37:40Z</time>
      </trkpt>
      <trkpt lat="43.299057" lon="13.100057">
        <ele>948.278</ele>
        <time>2022-05-22T12:41:06Z</time>
      </trkpt>
      <trkpt lat="43.299036" lon="13.100047">
        <ele>948.249</ele>
        <time>2022-05-22T12:41:07Z</time>
      </trkpt>
      <trkpt lat="43.298992" lon="13.100053">
        <ele>946.002</ele>
        <time>2022-05-22T12:41:12Z</time>
      </trkpt>
      <trkpt lat="43.298997" lon="13.100073">
        <ele>945.822</ele>
        <time>2022-05-22T12:41:13Z</time>
      </trkpt>
      <trkpt lat="43.299006" lon="13.100092">
        <ele>945.609</ele>
        <time>2022-05-22T12:41:14Z</time>
      </trkpt>
      <trkpt lat="43.299018" lon="13.100110">
        <ele>945.665</ele>
        <time>2022-05-22T12:41:15Z</time>
      </trkpt>
      <trkpt lat="43.299036" lon="13.100130">
        <ele>945.294</ele>
        <time>2022-05-22T12:41:16Z</time>
      </trkpt>
      <trkpt lat="43.299076" lon="13.100158">
        <ele>944.617</ele>
        <time>2022-05-22T12:41:18Z</time>
      </trkpt>
      <trkpt lat="43.299090" lon="13.100180">
        <ele>944.283</ele>
        <time>2022-05-22T12:41:19Z</time>
      </trkpt>
      <trkpt lat="43.299105" lon="13.100199">
        <ele>943.827</ele>
        <time>2022-05-22T12:41:20Z</time>
      </trkpt>
      <trkpt lat="43.299120" lon="13.100214">
        <ele>943.433</ele>
        <time>2022-05-22T12:41:21Z</time>
      </trkpt>
      <trkpt lat="43.299262" lon="13.100418">
        <ele>940.288</ele>
        <time>2022-05-22T12:41:30Z</time>
      </trkpt>
      <trkpt lat="43.299381" lon="13.100564">
        <ele>936.817</ele>
        <time>2022-05-22T12:41:35Z</time>
      </trkpt>
      <trkpt lat="43.299449" lon="13.100622">
        <ele>934.625</ele>
        <time>2022-05-22T12:41:39Z</time>
      </trkpt>
      <trkpt lat="43.299455" lon="13.100638">
        <ele>934.442</ele>
        <time>2022-05-22T12:41:40Z</time>
      </trkpt>
      <trkpt lat="43.299456" lon="13.100654">
        <ele>934.022</ele>
        <time>2022-05-22T12:41:41Z</time>
      </trkpt>
      <trkpt lat="43.299439" lon="13.100675">
        <ele>932.814</ele>
        <time>2022-05-22T12:41:45Z</time>
      </trkpt>
      <trkpt lat="43.299425" lon="13.100681">
        <ele>932.609</ele>
        <time>2022-05-22T12:41:46Z</time>
      </trkpt>
      <trkpt lat="43.299407" lon="13.100682">
        <ele>932.635</ele>
        <time>2022-05-22T12:41:47Z</time>
      </trkpt>
      <trkpt lat="43.299387" lon="13.100683">
        <ele>932.444</ele>
        <time>2022-05-22T12:41:48Z</time>
      </trkpt>
      <trkpt lat="43.299364" lon="13.100682">
        <ele>932.487</ele>
        <time>2022-05-22T12:41:49Z</time>
      </trkpt>
      <trkpt lat="43.299340" lon="13.100679">
        <ele>932.263</ele>
        <time>2022-05-22T12:41:50Z</time>
      </trkpt>
      <trkpt lat="43.299316" lon="13.100674">
        <ele>932.067</ele>
        <time>2022-05-22T12:41:51Z</time>
      </trkpt>
      <trkpt lat="43.299101" lon="13.100632">
        <ele>929.013</ele>
        <time>2022-05-22T12:41:59Z</time>
      </trkpt>
      <trkpt lat="43.298884" lon="13.100613">
        <ele>925.898</ele>
        <time>2022-05-22T12:42:06Z</time>
      </trkpt>
      <trkpt lat="43.298612" lon="13.100502">
        <ele>922.837</ele>
        <time>2022-05-22T12:42:16Z</time>
      </trkpt>
      <trkpt lat="43.298595" lon="13.100489">
        <ele>922.665</ele>
        <time>2022-05-22T12:42:17Z</time>
      </trkpt>
      <trkpt lat="43.298578" lon="13.100476">
        <ele>922.298</ele>
        <time>2022-05-22T12:42:18Z</time>
      </trkpt>
      <trkpt lat="43.298548" lon="13.100464">
        <ele>920.215</ele>
        <time>2022-05-22T12:42:24Z</time>
      </trkpt>
      <trkpt lat="43.298445" lon="13.100432">
        <ele>920.226</ele>
        <time>2022-05-22T12:42:29Z</time>
      </trkpt>
      <trkpt lat="43.298416" lon="13.100422">
        <ele>920.009</ele>
        <time>2022-05-22T12:42:30Z</time>
      </trkpt>
      <trkpt lat="43.298388" lon="13.100406">
        <ele>919.860</ele>
        <time>2022-05-22T12:42:31Z</time>
      </trkpt>
      <trkpt lat="43.298362" lon="13.100394">
        <ele>919.629</ele>
        <time>2022-05-22T12:42:32Z</time>
      </trkpt>
      <trkpt lat="43.298269" lon="13.100347">
        <ele>917.822</ele>
        <time>2022-05-22T12:42:36Z</time>
      </trkpt>
      <trkpt lat="43.298124" lon="13.100296">
        <ele>914.898</ele>
        <time>2022-05-22T12:42:42Z</time>
      </trkpt>
      <trkpt lat="43.297850" lon="13.100190">
        <ele>911.432</ele>
        <time>2022-05-22T12:42:52Z</time>
      </trkpt>
      <trkpt lat="43.297674" lon="13.100139">
        <ele>908.418</ele>
        <time>2022-05-22T12:42:59Z</time>
      </trkpt>
      <trkpt lat="43.297454" lon="13.100030">
        <ele>905.023</ele>
        <time>2022-05-22T12:43:06Z</time>
      </trkpt>
      <trkpt lat="43.297393" lon="13.099981">
        <ele>903.642</ele>
        <time>2022-05-22T12:43:08Z</time>
      </trkpt>
      <trkpt lat="43.297267" lon="13.099903">
        <ele>902.610</ele>
        <time>2022-05-22T12:43:13Z</time>
      </trkpt>
      <trkpt lat="43.297250" lon="13.099916">
        <ele>902.435</ele>
        <time>2022-05-22T12:43:14Z</time>
      </trkpt>
      <trkpt lat="43.297238" lon="13.099947">
        <ele>902.086</ele>
        <time>2022-05-22T12:43:15Z</time>
      </trkpt>
      <trkpt lat="43.297235" lon="13.099980">
        <ele>901.614</ele>
        <time>2022-05-22T12:43:16Z</time>
      </trkpt>
      <trkpt lat="43.297235" lon="13.100013">
        <ele>901.209</ele>
        <time>2022-05-22T12:43:17Z</time>
      </trkpt>
      <trkpt lat="43.297263" lon="13.100242">
        <ele>898.244</ele>
        <time>2022-05-22T12:43:24Z</time>
      </trkpt>
      <trkpt lat="43.297341" lon="13.100542">
        <ele>895.233</ele>
        <time>2022-05-22T12:43:32Z</time>
      </trkpt>
      <trkpt lat="43.297489" lon="13.100856">
        <ele>891.816</ele>
        <time>2022-05-22T12:43:41Z</time>
      </trkpt>
      <trkpt lat="43.297594" lon="13.101044">
        <ele>888.642</ele>
        <time>2022-05-22T12:43:47Z</time>
      </trkpt>
      <trkpt lat="43.297754" lon="13.101188">
        <ele>885.476</ele>
        <time>2022-05-22T12:43:55Z</time>
      </trkpt>
      <trkpt lat="43.297810" lon="13.101237">
        <ele>884.812</ele>
        <time>2022-05-22T12:43:58Z</time>
      </trkpt>
      <trkpt lat="43.297833" lon="13.101250">
        <ele>884.667</ele>
        <time>2022-05-22T12:43:59Z</time>
      </trkpt>
      <trkpt lat="43.297856" lon="13.101266">
        <ele>884.476</ele>
        <time>2022-05-22T12:44:00Z</time>
      </trkpt>
      <trkpt lat="43.298020" lon="13.101555">
        <ele>881.254</ele>
        <time>2022-05-22T12:44:10Z</time>
      </trkpt>
      <trkpt lat="43.298147" lon="13.101785">
        <ele>877.875</ele>
        <time>2022-05-22T12:44:17Z</time>
      </trkpt>
      <trkpt lat="43.298238" lon="13.101985">
        <ele>874.628</ele>
        <time>2022-05-22T12:44:23Z</time>
      </trkpt>
      <trkpt lat="43.298319" lon="13.102206">
        <ele>871.420</ele>
        <time>2022-05-22T12:44:29Z</time>
      </trkpt>
      <trkpt lat="43.298381" lon="13.102415">
        <ele>868.209</ele>
        <time>2022-05-22T12:44:35Z</time>
      </trkpt>
      <trkpt lat="43.298416" lon="13.102511">
        <ele>867.248</ele>
        <time>2022-05-22T12:44:38Z</time>
      </trkpt>
      <trkpt lat="43.298482" lon="13.102791">
        <ele>863.897</ele>
        <time>2022-05-22T12:44:46Z</time>
      </trkpt>
      <trkpt lat="43.298550" lon="13.102991">
        <ele>860.410</ele>
        <time>2022-05-22T12:44:51Z</time>
      </trkpt>
      <trkpt lat="43.298624" lon="13.103189">
        <ele>856.646</ele>
        <time>2022-05-22T12:44:56Z</time>
      </trkpt>
      <trkpt lat="43.298675" lon="13.103360">
        <ele>853.690</ele>
        <time>2022-05-22T12:45:01Z</time>
      </trkpt>
      <trkpt lat="43.298665" lon="13.103425">
        <ele>852.226</ele>
        <time>2022-05-22T12:45:04Z</time>
      </trkpt>
      <trkpt lat="43.298649" lon="13.103439">
        <ele>852.041</ele>
        <time>2022-05-22T12:45:05Z</time>
      </trkpt>
      <trkpt lat="43.298637" lon="13.103436">
        <ele>851.650</ele>
        <time>2022-05-22T12:45:06Z</time>
      </trkpt>
      <trkpt lat="43.298624" lon="13.103434">
        <ele>851.468</ele>
        <time>2022-05-22T12:45:07Z</time>
      </trkpt>
      <trkpt lat="43.298609" lon="13.103432">
        <ele>851.067</ele>
        <time>2022-05-22T12:45:08Z</time>
      </trkpt>
      <trkpt lat="43.298596" lon="13.103427">
        <ele>850.681</ele>
        <time>2022-05-22T12:45:09Z</time>
      </trkpt>
      <trkpt lat="43.298587" lon="13.103426">
        <ele>849.619</ele>
        <time>2022-05-22T12:45:13Z</time>
      </trkpt>
      <trkpt lat="43.298469" lon="13.103373">
        <ele>848.609</ele>
        <time>2022-05-22T12:45:36Z</time>
      </trkpt>
      <trkpt lat="43.298444" lon="13.103361">
        <ele>848.657</ele>
        <time>2022-05-22T12:45:37Z</time>
      </trkpt>
      <trkpt lat="43.298422" lon="13.103350">
        <ele>848.446</ele>
        <time>2022-05-22T12:45:38Z</time>
      </trkpt>
      <trkpt lat="43.298251" lon="13.103244">
        <ele>845.429</ele>
        <time>2022-05-22T12:45:45Z</time>
      </trkpt>
      <trkpt lat="43.298070" lon="13.103151">
        <ele>842.275</ele>
        <time>2022-05-22T12:45:52Z</time>
      </trkpt>
      <trkpt lat="43.297972" lon="13.103087">
        <ele>840.299</ele>
        <time>2022-05-22T12:45:56Z</time>
      </trkpt>
      <trkpt lat="43.297951" lon="13.103064">
        <ele>839.875</ele>
        <time>2022-05-22T12:45:57Z</time>
      </trkpt>
      <trkpt lat="43.297928" lon="13.103053">
        <ele>839.490</ele>
        <time>2022-05-22T12:45:58Z</time>
      </trkpt>
      <trkpt lat="43.297691" lon="13.102941">
        <ele>836.029</ele>
        <time>2022-05-22T12:46:07Z</time>
      </trkpt>
      <trkpt lat="43.297477" lon="13.102878">
        <ele>833.057</ele>
        <time>2022-05-22T12:46:15Z</time>
      </trkpt>
      <trkpt lat="43.297067" lon="13.102775">
        <ele>829.872</ele>
        <time>2022-05-22T12:46:27Z</time>
      </trkpt>
      <trkpt lat="43.296838" lon="13.102580">
        <ele>827.813</ele>
        <time>2022-05-22T12:46:36Z</time>
      </trkpt>
      <trkpt lat="43.296834" lon="13.102576">
        <ele>827.614</ele>
        <time>2022-05-22T12:46:40Z</time>
      </trkpt>
      <trkpt lat="43.296708" lon="13.102502">
        <ele>826.809</ele>
        <time>2022-05-22T12:46:51Z</time>
      </trkpt>
      <trkpt lat="43.296686" lon="13.102473">
        <ele>826.868</ele>
        <time>2022-05-22T12:46:52Z</time>
      </trkpt>
      <trkpt lat="43.296667" lon="13.102450">
        <ele>826.677</ele>
        <time>2022-05-22T12:46:53Z</time>
      </trkpt>
      <trkpt lat="43.296645" lon="13.102437">
        <ele>826.630</ele>
        <time>2022-05-22T12:46:54Z</time>
      </trkpt>
      <trkpt lat="43.296626" lon="13.102426">
        <ele>826.436</ele>
        <time>2022-05-22T12:46:55Z</time>
      </trkpt>
      <trkpt lat="43.296609" lon="13.102409">
        <ele>826.290</ele>
        <time>2022-05-22T12:46:56Z</time>
      </trkpt>
      <trkpt lat="43.296593" lon="13.102386">
        <ele>826.046</ele>
        <time>2022-05-22T12:46:57Z</time>
      </trkpt>
      <trkpt lat="43.296576" lon="13.102364">
        <ele>826.071</ele>
        <time>2022-05-22T12:46:58Z</time>
      </trkpt>
      <trkpt lat="43.296565" lon="13.102349">
        <ele>825.450</ele>
        <time>2022-05-22T12:47:02Z</time>
      </trkpt>
      <trkpt lat="43.296477" lon="13.102277">
        <ele>824.898</ele>
        <time>2022-05-22T12:47:09Z</time>
      </trkpt>
      <trkpt lat="43.296455" lon="13.102256">
        <ele>824.662</ele>
        <time>2022-05-22T12:47:10Z</time>
      </trkpt>
      <trkpt lat="43.296436" lon="13.102230">
        <ele>824.483</ele>
        <time>2022-05-22T12:47:11Z</time>
      </trkpt>
      <trkpt lat="43.296420" lon="13.102206">
        <ele>824.211</ele>
        <time>2022-05-22T12:47:12Z</time>
      </trkpt>
      <trkpt lat="43.296401" lon="13.102191">
        <ele>823.809</ele>
        <time>2022-05-22T12:47:13Z</time>
      </trkpt>
      <trkpt lat="43.296378" lon="13.102173">
        <ele>823.677</ele>
        <time>2022-05-22T12:47:14Z</time>
      </trkpt>
      <trkpt lat="43.296352" lon="13.102152">
        <ele>823.456</ele>
        <time>2022-05-22T12:47:15Z</time>
      </trkpt>
      <trkpt lat="43.296074" lon="13.101861">
        <ele>820.219</ele>
        <time>2022-05-22T12:47:27Z</time>
      </trkpt>
      <trkpt lat="43.295871" lon="13.101642">
        <ele>817.295</ele>
        <time>2022-05-22T12:47:36Z</time>
      </trkpt>
      <trkpt lat="43.295827" lon="13.101595">
        <ele>816.259</ele>
        <time>2022-05-22T12:47:38Z</time>
      </trkpt>
      <trkpt lat="43.295597" lon="13.101349">
        <ele>812.815</ele>
        <time>2022-05-22T12:47:48Z</time>
      </trkpt>
      <trkpt lat="43.295363" lon="13.101061">
        <ele>809.650</ele>
        <time>2022-05-22T12:47:57Z</time>
      </trkpt>
      <trkpt lat="43.295202" lon="13.100750">
        <ele>806.429</ele>
        <time>2022-05-22T12:48:07Z</time>
      </trkpt>
      <trkpt lat="43.295200" lon="13.100420">
        <ele>803.857</ele>
        <time>2022-05-22T12:48:21Z</time>
      </trkpt>
      <trkpt lat="43.295199" lon="13.100421">
        <ele>803.893</ele>
        <time>2022-05-22T12:48:22Z</time>
      </trkpt>
      <trkpt lat="43.295120" lon="13.100383">
        <ele>803.465</ele>
        <time>2022-05-22T12:49:10Z</time>
      </trkpt>
      <trkpt lat="43.295102" lon="13.100406">
        <ele>803.221</ele>
        <time>2022-05-22T12:49:11Z</time>
      </trkpt>
      <trkpt lat="43.295088" lon="13.100429">
        <ele>803.009</ele>
        <time>2022-05-22T12:49:12Z</time>
      </trkpt>
      <trkpt lat="43.295076" lon="13.100450">
        <ele>802.480</ele>
        <time>2022-05-22T12:49:13Z</time>
      </trkpt>
      <trkpt lat="43.295065" lon="13.100472">
        <ele>802.079</ele>
        <time>2022-05-22T12:49:14Z</time>
      </trkpt>
      <trkpt lat="43.294983" lon="13.100645">
        <ele>798.632</ele>
        <time>2022-05-22T12:49:21Z</time>
      </trkpt>
      <trkpt lat="43.294959" lon="13.100874">
        <ele>795.478</ele>
        <time>2022-05-22T12:49:29Z</time>
      </trkpt>
      <trkpt lat="43.295012" lon="13.101201">
        <ele>792.012</ele>
        <time>2022-05-22T12:49:40Z</time>
      </trkpt>
      <trkpt lat="43.295066" lon="13.101447">
        <ele>788.688</ele>
        <time>2022-05-22T12:49:48Z</time>
      </trkpt>
      <trkpt lat="43.295101" lon="13.101709">
        <ele>785.243</ele>
        <time>2022-05-22T12:49:56Z</time>
      </trkpt>
      <trkpt lat="43.295133" lon="13.101890">
        <ele>781.812</ele>
        <time>2022-05-22T12:50:02Z</time>
      </trkpt>
      <trkpt lat="43.295169" lon="13.102101">
        <ele>778.630</ele>
        <time>2022-05-22T12:50:09Z</time>
      </trkpt>
      <trkpt lat="43.295169" lon="13.102122">
        <ele>777.052</ele>
        <time>2022-05-22T12:50:14Z</time>
      </trkpt>
      <trkpt lat="43.295793" lon="13.099072">
        <ele>833.053</ele>
        <time>2022-05-22T13:00:19Z</time>
      </trkpt>
      <trkpt lat="43.295699" lon="13.098982">
        <ele>834.408</ele>
        <time>2022-05-22T13:00:26Z</time>
      </trkpt>
      <trkpt lat="43.295686" lon="13.098968">
        <ele>834.809</ele>
        <time>2022-05-22T13:00:27Z</time>
      </trkpt>
      <trkpt lat="43.295675" lon="13.098946">
        <ele>835.056</ele>
        <time>2022-05-22T13:00:28Z</time>
      </trkpt>
      <trkpt lat="43.295662" lon="13.098920">
        <ele>835.215</ele>
        <time>2022-05-22T13:00:29Z</time>
      </trkpt>
      <trkpt lat="43.295644" lon="13.098903">
        <ele>835.648</ele>
        <time>2022-05-22T13:00:30Z</time>
      </trkpt>
      <trkpt lat="43.295631" lon="13.098882">
        <ele>836.064</ele>
        <time>2022-05-22T13:00:31Z</time>
      </trkpt>
      <trkpt lat="43.295618" lon="13.098861">
        <ele>836.458</ele>
        <time>2022-05-22T13:00:32Z</time>
      </trkpt>
      <trkpt lat="43.295606" lon="13.098839">
        <ele>836.834</ele>
        <time>2022-05-22T13:00:33Z</time>
      </trkpt>
      <trkpt lat="43.295586" lon="13.098801">
        <ele>837.429</ele>
        <time>2022-05-22T13:00:35Z</time>
      </trkpt>
      <trkpt lat="43.295584" lon="13.098776">
        <ele>837.658</ele>
        <time>2022-05-22T13:00:36Z</time>
      </trkpt>
      <trkpt lat="43.295579" lon="13.098753">
        <ele>837.816</ele>
        <time>2022-05-22T13:00:37Z</time>
      </trkpt>
      <trkpt lat="43.295576" lon="13.098727">
        <ele>838.269</ele>
        <time>2022-05-22T13:00:38Z</time>
      </trkpt>
      <trkpt lat="43.295569" lon="13.098704">
        <ele>838.604</ele>
        <time>2022-05-22T13:00:39Z</time>
      </trkpt>
      <trkpt lat="43.295566" lon="13.098679">
        <ele>839.024</ele>
        <time>2022-05-22T13:00:40Z</time>
      </trkpt>
      <trkpt lat="43.295564" lon="13.098655">
        <ele>839.209</ele>
        <time>2022-05-22T13:00:41Z</time>
      </trkpt>
      <trkpt lat="43.295561" lon="13.098631">
        <ele>839.647</ele>
        <time>2022-05-22T13:00:42Z</time>
      </trkpt>
      <trkpt lat="43.295565" lon="13.098610">
        <ele>839.836</ele>
        <time>2022-05-22T13:00:43Z</time>
      </trkpt>
      <trkpt lat="43.295568" lon="13.098595">
        <ele>840.039</ele>
        <time>2022-05-22T13:00:44Z</time>
      </trkpt>
      <trkpt lat="43.295572" lon="13.098576">
        <ele>840.025</ele>
        <time>2022-05-22T13:00:45Z</time>
      </trkpt>
      <trkpt lat="43.295578" lon="13.098539">
        <ele>841.459</ele>
        <time>2022-05-22T13:00:50Z</time>
      </trkpt>
      <trkpt lat="43.295023" lon="13.097798">
        <ele>850.895</ele>
        <time>2022-05-22T13:02:52Z</time>
      </trkpt>
      <trkpt lat="43.294908" lon="13.097535">
        <ele>853.220</ele>
        <time>2022-05-22T13:03:05Z</time>
      </trkpt>
      <trkpt lat="43.294783" lon="13.097277">
        <ele>855.259</ele>
        <time>2022-05-22T13:03:18Z</time>
      </trkpt>
      <trkpt lat="43.294729" lon="13.097186">
        <ele>856.087</ele>
        <time>2022-05-22T13:03:23Z</time>
      </trkpt>
      <trkpt lat="43.294722" lon="13.097163">
        <ele>856.088</ele>
        <time>2022-05-22T13:03:24Z</time>
      </trkpt>
      <trkpt lat="43.294614" lon="13.096777">
        <ele>857.424</ele>
        <time>2022-05-22T13:03:39Z</time>
      </trkpt>
      <trkpt lat="43.294568" lon="13.096464">
        <ele>857.226</ele>
        <time>2022-05-22T13:03:52Z</time>
      </trkpt>
      <trkpt lat="43.294547" lon="13.096158">
        <ele>855.409</ele>
        <time>2022-05-22T13:04:05Z</time>
      </trkpt>
      <trkpt lat="43.294527" lon="13.096108">
        <ele>854.879</ele>
        <time>2022-05-22T13:04:08Z</time>
      </trkpt>
      <trkpt lat="43.294510" lon="13.096092">
        <ele>854.688</ele>
        <time>2022-05-22T13:04:09Z</time>
      </trkpt>
      <trkpt lat="43.294481" lon="13.096080">
        <ele>854.041</ele>
        <time>2022-05-22T13:04:11Z</time>
      </trkpt>
      <trkpt lat="43.294410" lon="13.096018">
        <ele>852.687</ele>
        <time>2022-05-22T13:04:15Z</time>
      </trkpt>
      <trkpt lat="43.294395" lon="13.096001">
        <ele>852.471</ele>
        <time>2022-05-22T13:04:16Z</time>
      </trkpt>
      <trkpt lat="43.294373" lon="13.095988">
        <ele>852.227</ele>
        <time>2022-05-22T13:04:17Z</time>
      </trkpt>
      <trkpt lat="43.294349" lon="13.095982">
        <ele>852.022</ele>
        <time>2022-05-22T13:04:18Z</time>
      </trkpt>
      <trkpt lat="43.294331" lon="13.095976">
        <ele>851.871</ele>
        <time>2022-05-22T13:04:19Z</time>
      </trkpt>
      <trkpt lat="43.294309" lon="13.095974">
        <ele>851.429</ele>
        <time>2022-05-22T13:04:20Z</time>
      </trkpt>
      <trkpt lat="43.294286" lon="13.095975">
        <ele>851.017</ele>
        <time>2022-05-22T13:04:21Z</time>
      </trkpt>
      <trkpt lat="43.294262" lon="13.095974">
        <ele>850.687</ele>
        <time>2022-05-22T13:04:22Z</time>
      </trkpt>
      <trkpt lat="43.294060" lon="13.095901">
        <ele>847.215</ele>
        <time>2022-05-22T13:04:31Z</time>
      </trkpt>
      <trkpt lat="43.293941" lon="13.095738">
        <ele>844.609</ele>
        <time>2022-05-22T13:04:38Z</time>
      </trkpt>
      <trkpt lat="43.293931" lon="13.095707">
        <ele>844.042</ele>
        <time>2022-05-22T13:04:39Z</time>
      </trkpt>
      <trkpt lat="43.293919" lon="13.095672">
        <ele>843.471</ele>
        <time>2022-05-22T13:04:40Z</time>
      </trkpt>
      <trkpt lat="43.293911" lon="13.095640">
        <ele>842.824</ele>
        <time>2022-05-22T13:04:41Z</time>
      </trkpt>
      <trkpt lat="43.293900" lon="13.095615">
        <ele>842.490</ele>
        <time>2022-05-22T13:04:42Z</time>
      </trkpt>
      <trkpt lat="43.293769" lon="13.095365">
        <ele>839.654</ele>
        <time>2022-05-22T13:04:50Z</time>
      </trkpt>
      <trkpt lat="43.293461" lon="13.095255">
        <ele>838.030</ele>
        <time>2022-05-22T13:05:04Z</time>
      </trkpt>
      <trkpt lat="43.293426" lon="13.095258">
        <ele>837.465</ele>
        <time>2022-05-22T13:05:10Z</time>
      </trkpt>
      <trkpt lat="43.293235" lon="13.095315">
        <ele>836.684</ele>
        <time>2022-05-22T13:05:37Z</time>
      </trkpt>
      <trkpt lat="43.293216" lon="13.095315">
        <ele>836.682</ele>
        <time>2022-05-22T13:05:38Z</time>
      </trkpt>
      <trkpt lat="43.293200" lon="13.095319">
        <ele>836.456</ele>
        <time>2022-05-22T13:05:39Z</time>
      </trkpt>
      <trkpt lat="43.293182" lon="13.095325">
        <ele>836.259</ele>
        <time>2022-05-22T13:05:40Z</time>
      </trkpt>
      <trkpt lat="43.293161" lon="13.095331">
        <ele>836.214</ele>
        <time>2022-05-22T13:05:41Z</time>
      </trkpt>
      <trkpt lat="43.293141" lon="13.095333">
        <ele>836.009</ele>
        <time>2022-05-22T13:05:42Z</time>
      </trkpt>
      <trkpt lat="43.293128" lon="13.095334">
        <ele>836.046</ele>
        <time>2022-05-22T13:05:43Z</time>
      </trkpt>
      <trkpt lat="43.293113" lon="13.095338">
        <ele>835.855</ele>
        <time>2022-05-22T13:05:44Z</time>
      </trkpt>
      <trkpt lat="43.293099" lon="13.095337">
        <ele>835.468</ele>
        <time>2022-05-22T13:05:45Z</time>
      </trkpt>
      <trkpt lat="43.293084" lon="13.095336">
        <ele>835.244</ele>
        <time>2022-05-22T13:05:46Z</time>
      </trkpt>
      <trkpt lat="43.293067" lon="13.095338">
        <ele>835.018</ele>
        <time>2022-05-22T13:05:47Z</time>
      </trkpt>
      <trkpt lat="43.293046" lon="13.095343">
        <ele>834.824</ele>
        <time>2022-05-22T13:05:48Z</time>
      </trkpt>
      <trkpt lat="43.293023" lon="13.095346">
        <ele>834.419</ele>
        <time>2022-05-22T13:05:49Z</time>
      </trkpt>
      <trkpt lat="43.293004" lon="13.095348">
        <ele>834.088</ele>
        <time>2022-05-22T13:05:50Z</time>
      </trkpt>
      <trkpt lat="43.292984" lon="13.095354">
        <ele>833.626</ele>
        <time>2022-05-22T13:05:51Z</time>
      </trkpt>
      <trkpt lat="43.292787" lon="13.095371">
        <ele>830.426</ele>
        <time>2022-05-22T13:06:00Z</time>
      </trkpt>
      <trkpt lat="43.292652" lon="13.095173">
        <ele>827.247</ele>
        <time>2022-05-22T13:06:10Z</time>
      </trkpt>
      <trkpt lat="43.292559" lon="13.094959">
        <ele>824.011</ele>
        <time>2022-05-22T13:06:18Z</time>
      </trkpt>
      <trkpt lat="43.292506" lon="13.094947">
        <ele>823.809</ele>
        <time>2022-05-22T13:06:21Z</time>
      </trkpt>
      <trkpt lat="43.292480" lon="13.094949">
        <ele>823.853</ele>
        <time>2022-05-22T13:06:22Z</time>
      </trkpt>
      <trkpt lat="43.292268" lon="13.094972">
        <ele>823.652</ele>
        <time>2022-05-22T13:06:35Z</time>
      </trkpt>
      <trkpt lat="43.292267" lon="13.094972">
        <ele>823.685</ele>
        <time>2022-05-22T13:06:36Z</time>
      </trkpt>
      <trkpt lat="43.292120" lon="13.095043">
        <ele>823.471</ele>
        <time>2022-05-22T13:07:59Z</time>
      </trkpt>
      <trkpt lat="43.292100" lon="13.095055">
        <ele>823.445</ele>
        <time>2022-05-22T13:08:00Z</time>
      </trkpt>
      <trkpt lat="43.292079" lon="13.095065">
        <ele>823.481</ele>
        <time>2022-05-22T13:08:01Z</time>
      </trkpt>
      <trkpt lat="43.292061" lon="13.095070">
        <ele>823.276</ele>
        <time>2022-05-22T13:08:02Z</time>
      </trkpt>
      <trkpt lat="43.292038" lon="13.095083">
        <ele>823.015</ele>
        <time>2022-05-22T13:08:03Z</time>
      </trkpt>
      <trkpt lat="43.291801" lon="13.095162">
        <ele>820.053</ele>
        <time>2022-05-22T13:08:13Z</time>
      </trkpt>
      <trkpt lat="43.291616" lon="13.095126">
        <ele>818.051</ele>
        <time>2022-05-22T13:08:21Z</time>
      </trkpt>
      <trkpt lat="43.291591" lon="13.095112">
        <ele>817.801</ele>
        <time>2022-05-22T13:08:22Z</time>
      </trkpt>
      <trkpt lat="43.291339" lon="13.094932">
        <ele>814.611</ele>
        <time>2022-05-22T13:08:34Z</time>
      </trkpt>
      <trkpt lat="43.291177" lon="13.094822">
        <ele>811.409</ele>
        <time>2022-05-22T13:08:42Z</time>
      </trkpt>
      <trkpt lat="43.290915" lon="13.094649">
        <ele>808.016</ele>
        <time>2022-05-22T13:08:53Z</time>
      </trkpt>
      <trkpt lat="43.290670" lon="13.094394">
        <ele>804.825</ele>
        <time>2022-05-22T13:09:01Z</time>
      </trkpt>
      <trkpt lat="43.290394" lon="13.094039">
        <ele>803.238</ele>
        <time>2022-05-22T13:09:13Z</time>
      </trkpt>
      <trkpt lat="43.290283" lon="13.093898">
        <ele>802.254</ele>
        <time>2022-05-22T13:09:18Z</time>
      </trkpt>
      <trkpt lat="43.290273" lon="13.093870">
        <ele>801.828</ele>
        <time>2022-05-22T13:09:19Z</time>
      </trkpt>
      <trkpt lat="43.290187" lon="13.093715">
        <ele>802.254</ele>
        <time>2022-05-22T13:09:26Z</time>
      </trkpt>
      <trkpt lat="43.290171" lon="13.093694">
        <ele>802.429</ele>
        <time>2022-05-22T13:09:27Z</time>
      </trkpt>
      <trkpt lat="43.290153" lon="13.093668">
        <ele>802.498</ele>
        <time>2022-05-22T13:09:28Z</time>
      </trkpt>
      <trkpt lat="43.290135" lon="13.093643">
        <ele>802.456</ele>
        <time>2022-05-22T13:09:29Z</time>
      </trkpt>
      <trkpt lat="43.290119" lon="13.093605">
        <ele>802.476</ele>
        <time>2022-05-22T13:09:30Z</time>
      </trkpt>
      <trkpt lat="43.290104" lon="13.093574">
        <ele>802.490</ele>
        <time>2022-05-22T13:09:31Z</time>
      </trkpt>
      <trkpt lat="43.289971" lon="13.093225">
        <ele>802.619</ele>
        <time>2022-05-22T13:09:42Z</time>
      </trkpt>
      <trkpt lat="43.289912" lon="13.092951">
        <ele>803.809</ele>
        <time>2022-05-22T13:09:52Z</time>
      </trkpt>
      <trkpt lat="43.289871" lon="13.092608">
        <ele>805.268</ele>
        <time>2022-05-22T13:10:04Z</time>
      </trkpt>
      <trkpt lat="43.289817" lon="13.092316">
        <ele>805.827</ele>
        <time>2022-05-22T13:10:16Z</time>
      </trkpt>
      <trkpt lat="43.289749" lon="13.092096">
        <ele>805.820</ele>
        <time>2022-05-22T13:10:23Z</time>
      </trkpt>
      <trkpt lat="43.289739" lon="13.092062">
        <ele>805.826</ele>
        <time>2022-05-22T13:10:24Z</time>
      </trkpt>
      <trkpt lat="43.289704" lon="13.091910">
        <ele>805.650</ele>
        <time>2022-05-22T13:10:29Z</time>
      </trkpt>
      <trkpt lat="43.289688" lon="13.091884">
        <ele>805.466</ele>
        <time>2022-05-22T13:10:30Z</time>
      </trkpt>
      <trkpt lat="43.289671" lon="13.091863">
        <ele>805.471</ele>
        <time>2022-05-22T13:10:31Z</time>
      </trkpt>
      <trkpt lat="43.289455" lon="13.091503">
        <ele>804.490</ele>
        <time>2022-05-22T13:10:44Z</time>
      </trkpt>
      <trkpt lat="43.289371" lon="13.091350">
        <ele>802.698</ele>
        <time>2022-05-22T13:10:49Z</time>
      </trkpt>
      <trkpt lat="43.289239" lon="13.091154">
        <ele>800.429</ele>
        <time>2022-05-22T13:10:55Z</time>
      </trkpt>
      <trkpt lat="43.289216" lon="13.091137">
        <ele>800.000</ele>
        <time>2022-05-22T13:10:56Z</time>
      </trkpt>
      <trkpt lat="43.289196" lon="13.091113">
        <ele>799.620</ele>
        <time>2022-05-22T13:10:57Z</time>
      </trkpt>
      <trkpt lat="43.289175" lon="13.091083">
        <ele>799.209</ele>
        <time>2022-05-22T13:10:58Z</time>
      </trkpt>
      <trkpt lat="43.289153" lon="13.091040">
        <ele>799.043</ele>
        <time>2022-05-22T13:10:59Z</time>
      </trkpt>
      <trkpt lat="43.289126" lon="13.091003">
        <ele>798.482</ele>
        <time>2022-05-22T13:11:00Z</time>
      </trkpt>
      <trkpt lat="43.289100" lon="13.090970">
        <ele>798.015</ele>
        <time>2022-05-22T13:11:01Z</time>
      </trkpt>
      <trkpt lat="43.288950" lon="13.090784">
        <ele>794.651</ele>
        <time>2022-05-22T13:11:06Z</time>
      </trkpt>
      <trkpt lat="43.288903" lon="13.090684">
        <ele>793.285</ele>
        <time>2022-05-22T13:11:08Z</time>
      </trkpt>
      <trkpt lat="43.288858" lon="13.090546">
        <ele>791.841</ele>
        <time>2022-05-22T13:11:10Z</time>
      </trkpt>
      <trkpt lat="43.288812" lon="13.090392">
        <ele>790.426</ele>
        <time>2022-05-22T13:11:13Z</time>
      </trkpt>
      <trkpt lat="43.288730" lon="13.090089">
        <ele>792.235</ele>
        <time>2022-05-22T13:11:22Z</time>
      </trkpt>
      <trkpt lat="43.288725" lon="13.090054">
        <ele>792.663</ele>
        <time>2022-05-22T13:11:23Z</time>
      </trkpt>
      <trkpt lat="43.288718" lon="13.090016">
        <ele>792.846</ele>
        <time>2022-05-22T13:11:24Z</time>
      </trkpt>
      <trkpt lat="43.288709" lon="13.089983">
        <ele>793.088</ele>
        <time>2022-05-22T13:11:25Z</time>
      </trkpt>
      <trkpt lat="43.288702" lon="13.089950">
        <ele>793.216</ele>
        <time>2022-05-22T13:11:26Z</time>
      </trkpt>
      <trkpt lat="43.288604" lon="13.089650">
        <ele>796.009</ele>
        <time>2022-05-22T13:11:37Z</time>
      </trkpt>
      <trkpt lat="43.288544" lon="13.089393">
        <ele>798.415</ele>
        <time>2022-05-22T13:11:50Z</time>
      </trkpt>
      <trkpt lat="43.288544" lon="13.089392">
        <ele>798.674</ele>
        <time>2022-05-22T13:11:51Z</time>
      </trkpt>
      <trkpt lat="43.288462" lon="13.088894">
        <ele>798.687</ele>
        <time>2022-05-22T13:18:39Z</time>
      </trkpt>
      <trkpt lat="43.288463" lon="13.088872">
        <ele>798.693</ele>
        <time>2022-05-22T13:18:40Z</time>
      </trkpt>
      <trkpt lat="43.288462" lon="13.088851">
        <ele>799.087</ele>
        <time>2022-05-22T13:18:41Z</time>
      </trkpt>
      <trkpt lat="43.288462" lon="13.088829">
        <ele>799.883</ele>
        <time>2022-05-22T13:18:42Z</time>
      </trkpt>
      <trkpt lat="43.288457" lon="13.088487">
        <ele>803.028</ele>
        <time>2022-05-22T13:18:55Z</time>
      </trkpt>
      <trkpt lat="43.288408" lon="13.088045">
        <ele>806.027</ele>
        <time>2022-05-22T13:19:10Z</time>
      </trkpt>
      <trkpt lat="43.288405" lon="13.087622">
        <ele>809.025</ele>
        <time>2022-05-22T13:19:25Z</time>
      </trkpt>
      <trkpt lat="43.288414" lon="13.087244">
        <ele>812.253</ele>
        <time>2022-05-22T13:19:38Z</time>
      </trkpt>
      <trkpt lat="43.288453" lon="13.086911">
        <ele>815.204</ele>
        <time>2022-05-22T13:19:52Z</time>
      </trkpt>
      <trkpt lat="43.288510" lon="13.086412">
        <ele>818.014</ele>
        <time>2022-05-22T13:20:15Z</time>
      </trkpt>
      <trkpt lat="43.288616" lon="13.085584">
        <ele>818.409</ele>
        <time>2022-05-22T13:20:39Z</time>
      </trkpt>
      <trkpt lat="43.288624" lon="13.084759">
        <ele>815.286</ele>
        <time>2022-05-22T13:20:57Z</time>
      </trkpt>
      <trkpt lat="43.288781" lon="13.084272">
        <ele>812.025</ele>
        <time>2022-05-22T13:21:11Z</time>
      </trkpt>
      <trkpt lat="43.288869" lon="13.084101">
        <ele>808.438</ele>
        <time>2022-05-22T13:21:17Z</time>
      </trkpt>
      <trkpt lat="43.288967" lon="13.083913">
        <ele>805.244</ele>
        <time>2022-05-22T13:21:23Z</time>
      </trkpt>
      <trkpt lat="43.289040" lon="13.083767">
        <ele>801.658</ele>
        <time>2022-05-22T13:21:27Z</time>
      </trkpt>
      <trkpt lat="43.289125" lon="13.083628">
        <ele>798.444</ele>
        <time>2022-05-22T13:21:31Z</time>
      </trkpt>
      <trkpt lat="43.289159" lon="13.083468">
        <ele>795.449</ele>
        <time>2022-05-22T13:21:35Z</time>
      </trkpt>
      <trkpt lat="43.289158" lon="13.083432">
        <ele>794.868</ele>
        <time>2022-05-22T13:21:36Z</time>
      </trkpt>
      <trkpt lat="43.289160" lon="13.083393">
        <ele>794.416</ele>
        <time>2022-05-22T13:21:37Z</time>
      </trkpt>
      <trkpt lat="43.289160" lon="13.083361">
        <ele>793.873</ele>
        <time>2022-05-22T13:21:38Z</time>
      </trkpt>
      <trkpt lat="43.289165" lon="13.083327">
        <ele>793.485</ele>
        <time>2022-05-22T13:21:39Z</time>
      </trkpt>
      <trkpt lat="43.289168" lon="13.083303">
        <ele>793.013</ele>
        <time>2022-05-22T13:21:40Z</time>
      </trkpt>
      <trkpt lat="43.289174" lon="13.083269">
        <ele>792.809</ele>
        <time>2022-05-22T13:21:41Z</time>
      </trkpt>
      <trkpt lat="43.289183" lon="13.083228">
        <ele>792.418</ele>
        <time>2022-05-22T13:21:42Z</time>
      </trkpt>
      <trkpt lat="43.289193" lon="13.083197">
        <ele>792.097</ele>
        <time>2022-05-22T13:21:43Z</time>
      </trkpt>
      <trkpt lat="43.289203" lon="13.083152">
        <ele>791.830</ele>
        <time>2022-05-22T13:21:44Z</time>
      </trkpt>
      <trkpt lat="43.289211" lon="13.083115">
        <ele>791.636</ele>
        <time>2022-05-22T13:21:45Z</time>
      </trkpt>
      <trkpt lat="43.289338" lon="13.082756">
        <ele>788.010</ele>
        <time>2022-05-22T13:21:53Z</time>
      </trkpt>
      <trkpt lat="43.289396" lon="13.082559">
        <ele>785.046</ele>
        <time>2022-05-22T13:21:57Z</time>
      </trkpt>
      <trkpt lat="43.289438" lon="13.082298">
        <ele>781.891</ele>
        <time>2022-05-22T13:22:02Z</time>
      </trkpt>
      <trkpt lat="43.289470" lon="13.082062">
        <ele>778.490</ele>
        <time>2022-05-22T13:22:07Z</time>
      </trkpt>
      <trkpt lat="43.289537" lon="13.081832">
        <ele>775.278</ele>
        <time>2022-05-22T13:22:12Z</time>
      </trkpt>
      <trkpt lat="43.289548" lon="13.081792">
        <ele>774.814</ele>
        <time>2022-05-22T13:22:13Z</time>
      </trkpt>
      <trkpt lat="43.289555" lon="13.081748">
        <ele>774.454</ele>
        <time>2022-05-22T13:22:14Z</time>
      </trkpt>
      <trkpt lat="43.289560" lon="13.081701">
        <ele>774.009</ele>
        <time>2022-05-22T13:22:15Z</time>
      </trkpt>
      <trkpt lat="43.289569" lon="13.081669">
        <ele>773.609</ele>
        <time>2022-05-22T13:22:16Z</time>
      </trkpt>
      <trkpt lat="43.289578" lon="13.081635">
        <ele>773.212</ele>
        <time>2022-05-22T13:22:17Z</time>
      </trkpt>
      <trkpt lat="43.289653" lon="13.081393">
        <ele>770.021</ele>
        <time>2022-05-22T13:22:23Z</time>
      </trkpt>
      <trkpt lat="43.289721" lon="13.081218">
        <ele>767.024</ele>
        <time>2022-05-22T13:22:27Z</time>
      </trkpt>
      <trkpt lat="43.289811" lon="13.081013">
        <ele>763.610</ele>
        <time>2022-05-22T13:22:32Z</time>
      </trkpt>
      <trkpt lat="43.289938" lon="13.080786">
        <ele>760.414</ele>
        <time>2022-05-22T13:22:37Z</time>
      </trkpt>
      <trkpt lat="43.290050" lon="13.080649">
        <ele>758.480</ele>
        <time>2022-05-22T13:22:40Z</time>
      </trkpt>
      <trkpt lat="43.290089" lon="13.080588">
        <ele>756.675</ele>
        <time>2022-05-22T13:22:41Z</time>
      </trkpt>
      <trkpt lat="43.290132" lon="13.080514">
        <ele>755.634</ele>
        <time>2022-05-22T13:22:42Z</time>
      </trkpt>
      <trkpt lat="43.290244" lon="13.080295">
        <ele>752.862</ele>
        <time>2022-05-22T13:22:45Z</time>
      </trkpt>
      <trkpt lat="43.290275" lon="13.080233">
        <ele>751.881</ele>
        <time>2022-05-22T13:22:46Z</time>
      </trkpt>
      <trkpt lat="43.290295" lon="13.080174">
        <ele>751.061</ele>
        <time>2022-05-22T13:22:47Z</time>
      </trkpt>
      <trkpt lat="43.290332" lon="13.080045">
        <ele>749.817</ele>
        <time>2022-05-22T13:22:50Z</time>
      </trkpt>
      <trkpt lat="43.290490" lon="13.079615">
        <ele>747.009</ele>
        <time>2022-05-22T13:23:02Z</time>
      </trkpt>
      <trkpt lat="43.290491" lon="13.079560">
        <ele>745.819</ele>
        <time>2022-05-22T13:23:08Z</time>
      </trkpt>
      <trkpt lat="43.290579" lon="13.079258">
        <ele>746.058</ele>
        <time>2022-05-22T13:26:38Z</time>
      </trkpt>
      <trkpt lat="43.290594" lon="13.079251">
        <ele>746.041</ele>
        <time>2022-05-22T13:26:39Z</time>
      </trkpt>
      <trkpt lat="43.290609" lon="13.079236">
        <ele>746.057</ele>
        <time>2022-05-22T13:26:40Z</time>
      </trkpt>
      <trkpt lat="43.290621" lon="13.079219">
        <ele>746.241</ele>
        <time>2022-05-22T13:26:41Z</time>
      </trkpt>
      <trkpt lat="43.290665" lon="13.079141">
        <ele>748.067</ele>
        <time>2022-05-22T13:26:45Z</time>
      </trkpt>
      <trkpt lat="43.290676" lon="13.079114">
        <ele>748.222</ele>
        <time>2022-05-22T13:26:46Z</time>
      </trkpt>
      <trkpt lat="43.290679" lon="13.079084">
        <ele>748.421</ele>
        <time>2022-05-22T13:26:47Z</time>
      </trkpt>
      <trkpt lat="43.290683" lon="13.079054">
        <ele>748.699</ele>
        <time>2022-05-22T13:26:48Z</time>
      </trkpt>
      <trkpt lat="43.290688" lon="13.079025">
        <ele>748.812</ele>
        <time>2022-05-22T13:26:49Z</time>
      </trkpt>
      <trkpt lat="43.290695" lon="13.079000">
        <ele>749.032</ele>
        <time>2022-05-22T13:26:50Z</time>
      </trkpt>
      <trkpt lat="43.290704" lon="13.078972">
        <ele>749.205</ele>
        <time>2022-05-22T13:26:51Z</time>
      </trkpt>
      <trkpt lat="43.290729" lon="13.078530">
        <ele>750.009</ele>
        <time>2022-05-22T13:27:03Z</time>
      </trkpt>
      <trkpt lat="43.290776" lon="13.078191">
        <ele>752.442</ele>
        <time>2022-05-22T13:27:14Z</time>
      </trkpt>
      <trkpt lat="43.290920" lon="13.077742">
        <ele>752.011</ele>
        <time>2022-05-22T13:27:26Z</time>
      </trkpt>
      <trkpt lat="43.290865" lon="13.077392">
        <ele>751.494</ele>
        <time>2022-05-22T13:27:34Z</time>
      </trkpt>
      <trkpt lat="43.290858" lon="13.076997">
        <ele>752.620</ele>
        <time>2022-05-22T13:27:45Z</time>
      </trkpt>
      <trkpt lat="43.290884" lon="13.076890">
        <ele>752.614</ele>
        <time>2022-05-22T13:27:48Z</time>
      </trkpt>
      <trkpt lat="43.290888" lon="13.076848">
        <ele>752.670</ele>
        <time>2022-05-22T13:27:49Z</time>
      </trkpt>
      <trkpt lat="43.290892" lon="13.076805">
        <ele>752.675</ele>
        <time>2022-05-22T13:27:50Z</time>
      </trkpt>
      <trkpt lat="43.290894" lon="13.076763">
        <ele>752.624</ele>
        <time>2022-05-22T13:27:51Z</time>
      </trkpt>
      <trkpt lat="43.290901" lon="13.076727">
        <ele>752.652</ele>
        <time>2022-05-22T13:27:52Z</time>
      </trkpt>
      <trkpt lat="43.290913" lon="13.076691">
        <ele>752.454</ele>
        <time>2022-05-22T13:27:53Z</time>
      </trkpt>
      <trkpt lat="43.290924" lon="13.076651">
        <ele>752.456</ele>
        <time>2022-05-22T13:27:54Z</time>
      </trkpt>
      <trkpt lat="43.290936" lon="13.076607">
        <ele>752.211</ele>
        <time>2022-05-22T13:27:55Z</time>
      </trkpt>
      <trkpt lat="43.290945" lon="13.076557">
        <ele>752.009</ele>
        <time>2022-05-22T13:27:56Z</time>
      </trkpt>
      <trkpt lat="43.290950" lon="13.076506">
        <ele>751.846</ele>
        <time>2022-05-22T13:27:57Z</time>
      </trkpt>
      <trkpt lat="43.290953" lon="13.076452">
        <ele>751.615</ele>
        <time>2022-05-22T13:27:58Z</time>
      </trkpt>
      <trkpt lat="43.290953" lon="13.076399">
        <ele>751.218</ele>
        <time>2022-05-22T13:27:59Z</time>
      </trkpt>
      <trkpt lat="43.290957" lon="13.076350">
        <ele>750.824</ele>
        <time>2022-05-22T13:28:00Z</time>
      </trkpt>
      <trkpt lat="43.290961" lon="13.076309">
        <ele>750.468</ele>
        <time>2022-05-22T13:28:01Z</time>
      </trkpt>
      <trkpt lat="43.290968" lon="13.076278">
        <ele>750.244</ele>
        <time>2022-05-22T13:28:02Z</time>
      </trkpt>
      <trkpt lat="43.290969" lon="13.076252">
        <ele>750.089</ele>
        <time>2022-05-22T13:28:03Z</time>
      </trkpt>
      <trkpt lat="43.290971" lon="13.076226">
        <ele>749.848</ele>
        <time>2022-05-22T13:28:04Z</time>
      </trkpt>
      <trkpt lat="43.290973" lon="13.076191">
        <ele>749.676</ele>
        <time>2022-05-22T13:28:05Z</time>
      </trkpt>
      <trkpt lat="43.291047" lon="13.075723">
        <ele>747.064</ele>
        <time>2022-05-22T13:28:15Z</time>
      </trkpt>
      <trkpt lat="43.291000" lon="13.075203">
        <ele>743.806</ele>
        <time>2022-05-22T13:28:26Z</time>
      </trkpt>
      <trkpt lat="43.290988" lon="13.074898">
        <ele>740.416</ele>
        <time>2022-05-22T13:28:34Z</time>
      </trkpt>
      <trkpt lat="43.290965" lon="13.074871">
        <ele>740.009</ele>
        <time>2022-05-22T13:28:35Z</time>
      </trkpt>
      <trkpt lat="43.290933" lon="13.074850">
        <ele>739.667</ele>
        <time>2022-05-22T13:28:36Z</time>
      </trkpt>
      <trkpt lat="43.290727" lon="13.074738">
        <ele>736.286</ele>
        <time>2022-05-22T13:28:41Z</time>
      </trkpt>
      <trkpt lat="43.290557" lon="13.074655">
        <ele>732.439</ele>
        <time>2022-05-22T13:28:45Z</time>
      </trkpt>
      <trkpt lat="43.290424" lon="13.074571">
        <ele>729.435</ele>
        <time>2022-05-22T13:28:49Z</time>
      </trkpt>
      <trkpt lat="43.290240" lon="13.074511">
        <ele>726.069</ele>
        <time>2022-05-22T13:28:55Z</time>
      </trkpt>
      <trkpt lat="43.290003" lon="13.074523">
        <ele>722.695</ele>
        <time>2022-05-22T13:29:01Z</time>
      </trkpt>
      <trkpt lat="43.289823" lon="13.074561">
        <ele>719.490</ele>
        <time>2022-05-22T13:29:05Z</time>
      </trkpt>
      <trkpt lat="43.289590" lon="13.074589">
        <ele>716.069</ele>
        <time>2022-05-22T13:29:11Z</time>
      </trkpt>
      <trkpt lat="43.289398" lon="13.074585">
        <ele>713.017</ele>
        <time>2022-05-22T13:29:16Z</time>
      </trkpt>
      <trkpt lat="43.289168" lon="13.074524">
        <ele>709.816</ele>
        <time>2022-05-22T13:29:22Z</time>
      </trkpt>
      <trkpt lat="43.288976" lon="13.074470">
        <ele>705.876</ele>
        <time>2022-05-22T13:29:27Z</time>
      </trkpt>
      <trkpt lat="43.288814" lon="13.074405">
        <ele>702.813</ele>
        <time>2022-05-22T13:29:31Z</time>
      </trkpt>
      <trkpt lat="43.288626" lon="13.074299">
        <ele>699.809</ele>
        <time>2022-05-22T13:29:36Z</time>
      </trkpt>
      <trkpt lat="43.288380" lon="13.074193">
        <ele>696.682</ele>
        <time>2022-05-22T13:29:43Z</time>
      </trkpt>
      <trkpt lat="43.288228" lon="13.074281">
        <ele>695.441</ele>
        <time>2022-05-22T13:29:53Z</time>
      </trkpt>
      <trkpt lat="43.288226" lon="13.074280">
        <ele>695.824</ele>
        <time>2022-05-22T13:29:56Z</time>
      </trkpt>
      <trkpt lat="43.288210" lon="13.074337">
        <ele>695.840</ele>
        <time>2022-05-22T13:30:07Z</time>
      </trkpt>
      <trkpt lat="43.288201" lon="13.074358">
        <ele>695.854</ele>
        <time>2022-05-22T13:30:08Z</time>
      </trkpt>
      <trkpt lat="43.288192" lon="13.074377">
        <ele>696.090</ele>
        <time>2022-05-22T13:30:09Z</time>
      </trkpt>
      <trkpt lat="43.288136" lon="13.074535">
        <ele>696.825</ele>
        <time>2022-05-22T13:30:21Z</time>
      </trkpt>
      <trkpt lat="43.288090" lon="13.074610">
        <ele>696.854</ele>
        <time>2022-05-22T13:31:38Z</time>
      </trkpt>
      <trkpt lat="43.288082" lon="13.074637">
        <ele>696.662</ele>
        <time>2022-05-22T13:31:39Z</time>
      </trkpt>
      <trkpt lat="43.288073" lon="13.074665">
        <ele>696.617</ele>
        <time>2022-05-22T13:31:40Z</time>
      </trkpt>
      <trkpt lat="43.288062" lon="13.074695">
        <ele>696.687</ele>
        <time>2022-05-22T13:31:41Z</time>
      </trkpt>
      <trkpt lat="43.288004" lon="13.074945">
        <ele>695.815</ele>
        <time>2022-05-22T13:31:47Z</time>
      </trkpt>
      <trkpt lat="43.288001" lon="13.075005">
        <ele>695.209</ele>
        <time>2022-05-22T13:31:48Z</time>
      </trkpt>
      <trkpt lat="43.287990" lon="13.075348">
        <ele>692.072</ele>
        <time>2022-05-22T13:31:53Z</time>
      </trkpt>
      <trkpt lat="43.287985" lon="13.075934">
        <ele>689.661</ele>
        <time>2022-05-22T13:32:04Z</time>
      </trkpt>
      <trkpt lat="43.287965" lon="13.075952">
        <ele>689.674</ele>
        <time>2022-05-22T13:32:05Z</time>
      </trkpt>
      <trkpt lat="43.287939" lon="13.075957">
        <ele>689.640</ele>
        <time>2022-05-22T13:32:06Z</time>
      </trkpt>
      <trkpt lat="43.287913" lon="13.075948">
        <ele>689.634</ele>
        <time>2022-05-22T13:32:07Z</time>
      </trkpt>
      <trkpt lat="43.287892" lon="13.075925">
        <ele>689.690</ele>
        <time>2022-05-22T13:32:08Z</time>
      </trkpt>
      <trkpt lat="43.287868" lon="13.075892">
        <ele>689.695</ele>
        <time>2022-05-22T13:32:09Z</time>
      </trkpt>
      <trkpt lat="43.287846" lon="13.075855">
        <ele>689.664</ele>
        <time>2022-05-22T13:32:10Z</time>
      </trkpt>
      <trkpt lat="43.287822" lon="13.075818">
        <ele>689.482</ele>
        <time>2022-05-22T13:32:11Z</time>
      </trkpt>
      <trkpt lat="43.287798" lon="13.075780">
        <ele>689.238</ele>
        <time>2022-05-22T13:32:12Z</time>
      </trkpt>
      <trkpt lat="43.287683" lon="13.075548">
        <ele>686.070</ele>
        <time>2022-05-22T13:32:20Z</time>
      </trkpt>
      <trkpt lat="43.287683" lon="13.075529">
        <ele>686.017</ele>
        <time>2022-05-22T13:32:21Z</time>
      </trkpt>
      <trkpt lat="43.287694" lon="13.075456">
        <ele>684.609</ele>
        <time>2022-05-22T13:32:29Z</time>
      </trkpt>
      <trkpt lat="43.287673" lon="13.075360">
        <ele>684.474</ele>
        <time>2022-05-22T13:35:46Z</time>
      </trkpt>
      <trkpt lat="43.287672" lon="13.075323">
        <ele>684.473</ele>
        <time>2022-05-22T13:35:47Z</time>
      </trkpt>
      <trkpt lat="43.287662" lon="13.075285">
        <ele>684.496</ele>
        <time>2022-05-22T13:35:48Z</time>
      </trkpt>
      <trkpt lat="43.287654" lon="13.075245">
        <ele>684.472</ele>
        <time>2022-05-22T13:35:49Z</time>
      </trkpt>
      <trkpt lat="43.287646" lon="13.075200">
        <ele>684.066</ele>
        <time>2022-05-22T13:35:50Z</time>
      </trkpt>
      <trkpt lat="43.287637" lon="13.075160">
        <ele>683.672</ele>
        <time>2022-05-22T13:35:51Z</time>
      </trkpt>
      <trkpt lat="43.287628" lon="13.075117">
        <ele>683.227</ele>
        <time>2022-05-22T13:35:52Z</time>
      </trkpt>
      <trkpt lat="43.287617" lon="13.075071">
        <ele>683.066</ele>
        <time>2022-05-22T13:35:53Z</time>
      </trkpt>
      <trkpt lat="43.287537" lon="13.074729">
        <ele>679.844</ele>
        <time>2022-05-22T13:36:00Z</time>
      </trkpt>
      <trkpt lat="43.287435" lon="13.074471">
        <ele>677.045</ele>
        <time>2022-05-22T13:36:05Z</time>
      </trkpt>
      <trkpt lat="43.287406" lon="13.074426">
        <ele>676.447</ele>
        <time>2022-05-22T13:36:06Z</time>
      </trkpt>
      <trkpt lat="43.287373" lon="13.074381">
        <ele>675.611</ele>
        <time>2022-05-22T13:36:07Z</time>
      </trkpt>
      <trkpt lat="43.287086" lon="13.074012">
        <ele>674.809</ele>
        <time>2022-05-22T13:36:18Z</time>
      </trkpt>
      <trkpt lat="43.286850" lon="13.073514">
        <ele>675.245</ele>
        <time>2022-05-22T13:36:31Z</time>
      </trkpt>
      <trkpt lat="43.286840" lon="13.073425">
        <ele>675.094</ele>
        <time>2022-05-22T13:36:33Z</time>
      </trkpt>
      <trkpt lat="43.286840" lon="13.073385">
        <ele>675.027</ele>
        <time>2022-05-22T13:36:34Z</time>
      </trkpt>
      <trkpt lat="43.286844" lon="13.073345">
        <ele>675.023</ele>
        <time>2022-05-22T13:36:35Z</time>
      </trkpt>
      <trkpt lat="43.286758" lon="13.072793">
        <ele>674.457</ele>
        <time>2022-05-22T13:36:45Z</time>
      </trkpt>
      <trkpt lat="43.286660" lon="13.072400">
        <ele>675.843</ele>
        <time>2022-05-22T13:36:54Z</time>
      </trkpt>
      <trkpt lat="43.286623" lon="13.072263">
        <ele>676.638</ele>
        <time>2022-05-22T13:36:58Z</time>
      </trkpt>
      <trkpt lat="43.286617" lon="13.072230">
        <ele>677.097</ele>
        <time>2022-05-22T13:36:59Z</time>
      </trkpt>
      <trkpt lat="43.286601" lon="13.071883">
        <ele>680.025</ele>
        <time>2022-05-22T13:37:08Z</time>
      </trkpt>
      <trkpt lat="43.286612" lon="13.071660">
        <ele>682.868</ele>
        <time>2022-05-22T13:37:15Z</time>
      </trkpt>
      <trkpt lat="43.286618" lon="13.071638">
        <ele>683.042</ele>
        <time>2022-05-22T13:37:16Z</time>
      </trkpt>
      <trkpt lat="43.286621" lon="13.071612">
        <ele>683.226</ele>
        <time>2022-05-22T13:37:17Z</time>
      </trkpt>
      <trkpt lat="43.286623" lon="13.071456">
        <ele>684.409</ele>
        <time>2022-05-22T13:37:22Z</time>
      </trkpt>
      <trkpt lat="43.286626" lon="13.071424">
        <ele>684.617</ele>
        <time>2022-05-22T13:37:23Z</time>
      </trkpt>
      <trkpt lat="43.286630" lon="13.071390">
        <ele>684.816</ele>
        <time>2022-05-22T13:37:24Z</time>
      </trkpt>
      <trkpt lat="43.286629" lon="13.071356">
        <ele>685.279</ele>
        <time>2022-05-22T13:37:25Z</time>
      </trkpt>
      <trkpt lat="43.286625" lon="13.071323">
        <ele>685.435</ele>
        <time>2022-05-22T13:37:26Z</time>
      </trkpt>
      <trkpt lat="43.286616" lon="13.071288">
        <ele>685.669</ele>
        <time>2022-05-22T13:37:27Z</time>
      </trkpt>
      <trkpt lat="43.286607" lon="13.071258">
        <ele>685.895</ele>
        <time>2022-05-22T13:37:28Z</time>
      </trkpt>
      <trkpt lat="43.286383" lon="13.071017">
        <ele>687.680</ele>
        <time>2022-05-22T13:37:40Z</time>
      </trkpt>
      <trkpt lat="43.285916" lon="13.070674">
        <ele>687.839</ele>
        <time>2022-05-22T13:37:58Z</time>
      </trkpt>
      <trkpt lat="43.285358" lon="13.070219">
        <ele>686.647</ele>
        <time>2022-05-22T13:38:16Z</time>
      </trkpt>
      <trkpt lat="43.284696" lon="13.069693">
        <ele>687.891</ele>
        <time>2022-05-22T13:38:38Z</time>
      </trkpt>
      <trkpt lat="43.284283" lon="13.069341">
        <ele>688.681</ele>
        <time>2022-05-22T13:38:53Z</time>
      </trkpt>
      <trkpt lat="43.283904" lon="13.069089">
        <ele>690.819</ele>
        <time>2022-05-22T13:39:08Z</time>
      </trkpt>
      <trkpt lat="43.283580" lon="13.068843">
        <ele>689.009</ele>
        <time>2022-05-22T13:39:20Z</time>
      </trkpt>
      <trkpt lat="43.283307" lon="13.068655">
        <ele>685.640</ele>
        <time>2022-05-22T13:39:27Z</time>
      </trkpt>
      <trkpt lat="43.283243" lon="13.068596">
        <ele>685.099</ele>
        <time>2022-05-22T13:39:29Z</time>
      </trkpt>
      <trkpt lat="43.283220" lon="13.068545">
        <ele>684.442</ele>
        <time>2022-05-22T13:39:30Z</time>
      </trkpt>
      <trkpt lat="43.283194" lon="13.068479">
        <ele>684.038</ele>
        <time>2022-05-22T13:39:31Z</time>
      </trkpt>
      <trkpt lat="43.283172" lon="13.068404">
        <ele>683.422</ele>
        <time>2022-05-22T13:39:32Z</time>
      </trkpt>
      <trkpt lat="43.283151" lon="13.068321">
        <ele>682.878</ele>
        <time>2022-05-22T13:39:33Z</time>
      </trkpt>
      <trkpt lat="43.283133" lon="13.068235">
        <ele>682.063</ele>
        <time>2022-05-22T13:39:34Z</time>
      </trkpt>
      <trkpt lat="43.283098" lon="13.068060">
        <ele>680.842</ele>
        <time>2022-05-22T13:39:36Z</time>
      </trkpt>
      <trkpt lat="43.283078" lon="13.067968">
        <ele>680.230</ele>
        <time>2022-05-22T13:39:37Z</time>
      </trkpt>
      <trkpt lat="43.283064" lon="13.067874">
        <ele>679.858</ele>
        <time>2022-05-22T13:39:38Z</time>
      </trkpt>
      <trkpt lat="43.283049" lon="13.067808">
        <ele>678.852</ele>
        <time>2022-05-22T13:39:39Z</time>
      </trkpt>
      <trkpt lat="43.283029" lon="13.067729">
        <ele>678.017</ele>
        <time>2022-05-22T13:39:40Z</time>
      </trkpt>
      <trkpt lat="43.282951" lon="13.067458">
        <ele>676.209</ele>
        <time>2022-05-22T13:39:44Z</time>
      </trkpt>
      <trkpt lat="43.282877" lon="13.067122">
        <ele>674.866</ele>
        <time>2022-05-22T13:39:49Z</time>
      </trkpt>
      <trkpt lat="43.282864" lon="13.067050">
        <ele>674.615</ele>
        <time>2022-05-22T13:39:50Z</time>
      </trkpt>
      <trkpt lat="43.282698" lon="13.066382">
        <ele>671.878</ele>
        <time>2022-05-22T13:40:00Z</time>
      </trkpt>
      <trkpt lat="43.282641" lon="13.066260">
        <ele>671.054</ele>
        <time>2022-05-22T13:40:02Z</time>
      </trkpt>
      <trkpt lat="43.282362" lon="13.065966">
        <ele>667.688</ele>
        <time>2022-05-22T13:40:11Z</time>
      </trkpt>
      <trkpt lat="43.282317" lon="13.065935">
        <ele>666.064</ele>
        <time>2022-05-22T13:40:18Z</time>
      </trkpt>
      <trkpt lat="43.282244" lon="13.065906">
        <ele>665.439</ele>
        <time>2022-05-22T13:40:35Z</time>
      </trkpt>
      <trkpt lat="43.281909" lon="13.065676">
        <ele>662.458</ele>
        <time>2022-05-22T13:40:47Z</time>
      </trkpt>
      <trkpt lat="43.281864" lon="13.065645">
        <ele>661.636</ele>
        <time>2022-05-22T13:40:49Z</time>
      </trkpt>
      <trkpt lat="43.281824" lon="13.065600">
        <ele>660.075</ele>
        <time>2022-05-22T13:40:56Z</time>
      </trkpt>
      <trkpt lat="43.281866" lon="13.065641">
        <ele>660.028</ele>
        <time>2022-05-22T13:41:31Z</time>
      </trkpt>
      <trkpt lat="43.282053" lon="13.065801">
        <ele>662.220</ele>
        <time>2022-05-22T13:41:50Z</time>
      </trkpt>
      <trkpt lat="43.282129" lon="13.065863">
        <ele>663.809</ele>
        <time>2022-05-22T13:42:01Z</time>
      </trkpt>
      <trkpt lat="43.282208" lon="13.065906">
        <ele>664.288</ele>
        <time>2022-05-22T13:42:08Z</time>
      </trkpt>
      <trkpt lat="43.282227" lon="13.065920">
        <ele>664.267</ele>
        <time>2022-05-22T13:42:09Z</time>
      </trkpt>
      <trkpt lat="43.282522" lon="13.066065">
        <ele>667.230</ele>
        <time>2022-05-22T13:42:23Z</time>
      </trkpt>
      <trkpt lat="43.282658" lon="13.066269">
        <ele>670.056</ele>
        <time>2022-05-22T13:42:32Z</time>
      </trkpt>
      <trkpt lat="43.282672" lon="13.066287">
        <ele>670.430</ele>
        <time>2022-05-22T13:42:33Z</time>
      </trkpt>
      <trkpt lat="43.282685" lon="13.066296">
        <ele>670.656</ele>
        <time>2022-05-22T13:42:34Z</time>
      </trkpt>
      <trkpt lat="43.282700" lon="13.066308">
        <ele>671.281</ele>
        <time>2022-05-22T13:42:38Z</time>
      </trkpt>
      <trkpt lat="43.282703" lon="13.066224">
        <ele>671.650</ele>
        <time>2022-05-22T13:43:55Z</time>
      </trkpt>
      <trkpt lat="43.282691" lon="13.066197">
        <ele>671.668</ele>
        <time>2022-05-22T13:43:56Z</time>
      </trkpt>
      <trkpt lat="43.282669" lon="13.066163">
        <ele>671.655</ele>
        <time>2022-05-22T13:43:57Z</time>
      </trkpt>
      <trkpt lat="43.282642" lon="13.066132">
        <ele>671.607</ele>
        <time>2022-05-22T13:43:58Z</time>
      </trkpt>
      <trkpt lat="43.282617" lon="13.066102">
        <ele>671.217</ele>
        <time>2022-05-22T13:43:59Z</time>
      </trkpt>
      <trkpt lat="43.282599" lon="13.066072">
        <ele>670.409</ele>
        <time>2022-05-22T13:44:00Z</time>
      </trkpt>
      <trkpt lat="43.282584" lon="13.066044">
        <ele>669.666</ele>
        <time>2022-05-22T13:44:01Z</time>
      </trkpt>
      <trkpt lat="43.282565" lon="13.066012">
        <ele>668.825</ele>
        <time>2022-05-22T13:44:02Z</time>
      </trkpt>
      <trkpt lat="43.282543" lon="13.065990">
        <ele>668.238</ele>
        <time>2022-05-22T13:44:03Z</time>
      </trkpt>
      <trkpt lat="43.282516" lon="13.065970">
        <ele>667.864</ele>
        <time>2022-05-22T13:44:04Z</time>
      </trkpt>
      <trkpt lat="43.282487" lon="13.065952">
        <ele>667.468</ele>
        <time>2022-05-22T13:44:05Z</time>
      </trkpt>
      <trkpt lat="43.282461" lon="13.065940">
        <ele>667.264</ele>
        <time>2022-05-22T13:44:06Z</time>
      </trkpt>
      <trkpt lat="43.282255" lon="13.065880">
        <ele>664.039</ele>
        <time>2022-05-22T13:44:15Z</time>
      </trkpt>
      <trkpt lat="43.282133" lon="13.065822">
        <ele>662.488</ele>
        <time>2022-05-22T13:44:26Z</time>
      </trkpt>
      <trkpt lat="43.282133" lon="13.065822">
        <ele>662.226</ele>
        <time>2022-05-22T13:44:27Z</time>
      </trkpt>
      <trkpt lat="43.282375" lon="13.065879">
        <ele>664.469</ele>
        <time>2022-05-22T13:45:20Z</time>
      </trkpt>
      <trkpt lat="43.282481" lon="13.065940">
        <ele>666.404</ele>
        <time>2022-05-22T13:45:35Z</time>
      </trkpt>
      <trkpt lat="43.282403" lon="13.065979">
        <ele>668.424</ele>
        <time>2022-05-22T13:48:17Z</time>
      </trkpt>
      <trkpt lat="43.282298" lon="13.065948">
        <ele>668.209</ele>
        <time>2022-05-22T13:48:20Z</time>
      </trkpt>
      <trkpt lat="43.282254" lon="13.065920">
        <ele>668.057</ele>
        <time>2022-05-22T13:48:21Z</time>
      </trkpt>
      <trkpt lat="43.282206" lon="13.065887">
        <ele>667.666</ele>
        <time>2022-05-22T13:48:22Z</time>
      </trkpt>
      <trkpt lat="43.282090" lon="13.065815">
        <ele>666.869</ele>
        <time>2022-05-22T13:48:24Z</time>
      </trkpt>
      <trkpt lat="43.281779" lon="13.065559">
        <ele>663.625</ele>
        <time>2022-05-22T13:48:29Z</time>
      </trkpt>
      <trkpt lat="43.281722" lon="13.065521">
        <ele>662.839</ele>
        <time>2022-05-22T13:48:30Z</time>
      </trkpt>
      <trkpt lat="43.281663" lon="13.065492">
        <ele>662.045</ele>
        <time>2022-05-22T13:48:31Z</time>
      </trkpt>
      <trkpt lat="43.281603" lon="13.065478">
        <ele>661.090</ele>
        <time>2022-05-22T13:48:32Z</time>
      </trkpt>
      <trkpt lat="43.281544" lon="13.065475">
        <ele>660.099</ele>
        <time>2022-05-22T13:48:33Z</time>
      </trkpt>
      <trkpt lat="43.281489" lon="13.065479">
        <ele>659.487</ele>
        <time>2022-05-22T13:48:34Z</time>
      </trkpt>
      <trkpt lat="43.281437" lon="13.065478">
        <ele>658.832</ele>
        <time>2022-05-22T13:48:35Z</time>
      </trkpt>
      <trkpt lat="43.281384" lon="13.065464">
        <ele>658.292</ele>
        <time>2022-05-22T13:48:36Z</time>
      </trkpt>
      <trkpt lat="43.281327" lon="13.065435">
        <ele>657.611</ele>
        <time>2022-05-22T13:48:37Z</time>
      </trkpt>
      <trkpt lat="43.281270" lon="13.065395">
        <ele>657.009</ele>
        <time>2022-05-22T13:48:38Z</time>
      </trkpt>
      <trkpt lat="43.281215" lon="13.065359">
        <ele>656.684</ele>
        <time>2022-05-22T13:48:39Z</time>
      </trkpt>
      <trkpt lat="43.281162" lon="13.065327">
        <ele>656.083</ele>
        <time>2022-05-22T13:48:40Z</time>
      </trkpt>
      <trkpt lat="43.281112" lon="13.065307">
        <ele>655.686</ele>
        <time>2022-05-22T13:48:41Z</time>
      </trkpt>
      <trkpt lat="43.281065" lon="13.065303">
        <ele>655.052</ele>
        <time>2022-05-22T13:48:42Z</time>
      </trkpt>
      <trkpt lat="43.281019" lon="13.065310">
        <ele>654.236</ele>
        <time>2022-05-22T13:48:43Z</time>
      </trkpt>
      <trkpt lat="43.280974" lon="13.065328">
        <ele>653.842</ele>
        <time>2022-05-22T13:48:44Z</time>
      </trkpt>
      <trkpt lat="43.280932" lon="13.065351">
        <ele>653.437</ele>
        <time>2022-05-22T13:48:45Z</time>
      </trkpt>
      <trkpt lat="43.280889" lon="13.065368">
        <ele>652.846</ele>
        <time>2022-05-22T13:48:46Z</time>
      </trkpt>
      <trkpt lat="43.280846" lon="13.065379">
        <ele>652.434</ele>
        <time>2022-05-22T13:48:47Z</time>
      </trkpt>
      <trkpt lat="43.280802" lon="13.065384">
        <ele>651.819</ele>
        <time>2022-05-22T13:48:48Z</time>
      </trkpt>
      <trkpt lat="43.280761" lon="13.065381">
        <ele>651.409</ele>
        <time>2022-05-22T13:48:49Z</time>
      </trkpt>
      <trkpt lat="43.280718" lon="13.065366">
        <ele>650.819</ele>
        <time>2022-05-22T13:48:50Z</time>
      </trkpt>
      <trkpt lat="43.280675" lon="13.065338">
        <ele>650.409</ele>
        <time>2022-05-22T13:48:51Z</time>
      </trkpt>
      <trkpt lat="43.280627" lon="13.065296">
        <ele>649.842</ele>
        <time>2022-05-22T13:48:52Z</time>
      </trkpt>
      <trkpt lat="43.280579" lon="13.065250">
        <ele>649.231</ele>
        <time>2022-05-22T13:48:53Z</time>
      </trkpt>
      <trkpt lat="43.280434" lon="13.065100">
        <ele>647.454</ele>
        <time>2022-05-22T13:48:56Z</time>
      </trkpt>
      <trkpt lat="43.280389" lon="13.065036">
        <ele>646.640</ele>
        <time>2022-05-22T13:48:57Z</time>
      </trkpt>
      <trkpt lat="43.280345" lon="13.064966">
        <ele>645.894</ele>
        <time>2022-05-22T13:48:58Z</time>
      </trkpt>
      <trkpt lat="43.280113" lon="13.064523">
        <ele>642.860</ele>
        <time>2022-05-22T13:49:04Z</time>
      </trkpt>
      <trkpt lat="43.279958" lon="13.064164">
        <ele>639.415</ele>
        <time>2022-05-22T13:49:10Z</time>
      </trkpt>
      <trkpt lat="43.279763" lon="13.063766">
        <ele>636.074</ele>
        <time>2022-05-22T13:49:16Z</time>
      </trkpt>
      <trkpt lat="43.279625" lon="13.063486">
        <ele>632.862</ele>
        <time>2022-05-22T13:49:20Z</time>
      </trkpt>
      <trkpt lat="43.279402" lon="13.063055">
        <ele>629.835</ele>
        <time>2022-05-22T13:49:26Z</time>
      </trkpt>
      <trkpt lat="43.279291" lon="13.062816">
        <ele>627.686</ele>
        <time>2022-05-22T13:49:30Z</time>
      </trkpt>
      <trkpt lat="43.279268" lon="13.062772">
        <ele>627.014</ele>
        <time>2022-05-22T13:49:31Z</time>
      </trkpt>
      <trkpt lat="43.279235" lon="13.062737">
        <ele>626.609</ele>
        <time>2022-05-22T13:49:32Z</time>
      </trkpt>
      <trkpt lat="43.279201" lon="13.062718">
        <ele>626.284</ele>
        <time>2022-05-22T13:49:33Z</time>
      </trkpt>
      <trkpt lat="43.279165" lon="13.062713">
        <ele>625.843</ele>
        <time>2022-05-22T13:49:34Z</time>
      </trkpt>
      <trkpt lat="43.279131" lon="13.062725">
        <ele>625.686</ele>
        <time>2022-05-22T13:49:35Z</time>
      </trkpt>
      <trkpt lat="43.279096" lon="13.062745">
        <ele>625.262</ele>
        <time>2022-05-22T13:49:36Z</time>
      </trkpt>
      <trkpt lat="43.279061" lon="13.062773">
        <ele>625.026</ele>
        <time>2022-05-22T13:49:37Z</time>
      </trkpt>
      <trkpt lat="43.279027" lon="13.062807">
        <ele>624.662</ele>
        <time>2022-05-22T13:49:38Z</time>
      </trkpt>
      <trkpt lat="43.278992" lon="13.062844">
        <ele>624.237</ele>
        <time>2022-05-22T13:49:39Z</time>
      </trkpt>
      <trkpt lat="43.278737" lon="13.063132">
        <ele>621.246</ele>
        <time>2022-05-22T13:49:46Z</time>
      </trkpt>
      <trkpt lat="43.278502" lon="13.063411">
        <ele>617.844</ele>
        <time>2022-05-22T13:49:52Z</time>
      </trkpt>
      <trkpt lat="43.278225" lon="13.063752">
        <ele>614.446</ele>
        <time>2022-05-22T13:50:00Z</time>
      </trkpt>
      <trkpt lat="43.278200" lon="13.063783">
        <ele>612.488</ele>
        <time>2022-05-22T13:50:06Z</time>
      </trkpt>
      <trkpt lat="43.278165" lon="13.063842">
        <ele>612.216</ele>
        <time>2022-05-22T13:50:22Z</time>
      </trkpt>
      <trkpt lat="43.278145" lon="13.063872">
        <ele>612.209</ele>
        <time>2022-05-22T13:50:23Z</time>
      </trkpt>
      <trkpt lat="43.278123" lon="13.063912">
        <ele>612.225</ele>
        <time>2022-05-22T13:50:24Z</time>
      </trkpt>
      <trkpt lat="43.278099" lon="13.063958">
        <ele>612.014</ele>
        <time>2022-05-22T13:50:25Z</time>
      </trkpt>
      <trkpt lat="43.277895" lon="13.064370">
        <ele>608.877</ele>
        <time>2022-05-22T13:50:33Z</time>
      </trkpt>
      <trkpt lat="43.277653" lon="13.064809">
        <ele>605.673</ele>
        <time>2022-05-22T13:50:40Z</time>
      </trkpt>
      <trkpt lat="43.277375" lon="13.065198">
        <ele>602.237</ele>
        <time>2022-05-22T13:50:47Z</time>
      </trkpt>
      <trkpt lat="43.277084" lon="13.065584">
        <ele>599.063</ele>
        <time>2022-05-22T13:50:54Z</time>
      </trkpt>
      <trkpt lat="43.276888" lon="13.065845">
        <ele>595.828</ele>
        <time>2022-05-22T13:50:59Z</time>
      </trkpt>
      <trkpt lat="43.276575" lon="13.066164">
        <ele>592.647</ele>
        <time>2022-05-22T13:51:06Z</time>
      </trkpt>
      <trkpt lat="43.276266" lon="13.066439">
        <ele>589.255</ele>
        <time>2022-05-22T13:51:12Z</time>
      </trkpt>
      <trkpt lat="43.275933" lon="13.066665">
        <ele>585.613</ele>
        <time>2022-05-22T13:51:18Z</time>
      </trkpt>
      <trkpt lat="43.275588" lon="13.066802">
        <ele>582.243</ele>
        <time>2022-05-22T13:51:24Z</time>
      </trkpt>
      <trkpt lat="43.275491" lon="13.066841">
        <ele>581.207</ele>
        <time>2022-05-22T13:51:26Z</time>
      </trkpt>
      <trkpt lat="43.275454" lon="13.066868">
        <ele>580.609</ele>
        <time>2022-05-22T13:51:27Z</time>
      </trkpt>
      <trkpt lat="43.275365" lon="13.066898">
        <ele>579.082</ele>
        <time>2022-05-22T13:51:30Z</time>
      </trkpt>
      <trkpt lat="43.275345" lon="13.066878">
        <ele>578.651</ele>
        <time>2022-05-22T13:51:31Z</time>
      </trkpt>
      <trkpt lat="43.275338" lon="13.066850">
        <ele>578.424</ele>
        <time>2022-05-22T13:51:32Z</time>
      </trkpt>
      <trkpt lat="43.275345" lon="13.066818">
        <ele>578.070</ele>
        <time>2022-05-22T13:51:33Z</time>
      </trkpt>
      <trkpt lat="43.275361" lon="13.066787">
        <ele>577.894</ele>
        <time>2022-05-22T13:51:34Z</time>
      </trkpt>
      <trkpt lat="43.275382" lon="13.066763">
        <ele>577.680</ele>
        <time>2022-05-22T13:51:35Z</time>
      </trkpt>
      <trkpt lat="43.275405" lon="13.066746">
        <ele>577.485</ele>
        <time>2022-05-22T13:51:36Z</time>
      </trkpt>
      <trkpt lat="43.275430" lon="13.066735">
        <ele>577.074</ele>
        <time>2022-05-22T13:51:37Z</time>
      </trkpt>
      <trkpt lat="43.275826" lon="13.066403">
        <ele>574.472</ele>
        <time>2022-05-22T13:51:50Z</time>
      </trkpt>
      <trkpt lat="43.276141" lon="13.065928">
        <ele>571.019</ele>
        <time>2022-05-22T13:51:58Z</time>
      </trkpt>
      <trkpt lat="43.276338" lon="13.065614">
        <ele>567.009</ele>
        <time>2022-05-22T13:52:03Z</time>
      </trkpt>
      <trkpt lat="43.276542" lon="13.065194">
        <ele>563.819</ele>
        <time>2022-05-22T13:52:09Z</time>
      </trkpt>
      <trkpt lat="43.276749" lon="13.064770">
        <ele>561.009</ele>
        <time>2022-05-22T13:52:15Z</time>
      </trkpt>
      <trkpt lat="43.276785" lon="13.064697">
        <ele>560.412</ele>
        <time>2022-05-22T13:52:16Z</time>
      </trkpt>
      <trkpt lat="43.276996" lon="13.064305">
        <ele>557.271</ele>
        <time>2022-05-22T13:52:22Z</time>
      </trkpt>
      <trkpt lat="43.277176" lon="13.063926">
        <ele>554.294</ele>
        <time>2022-05-22T13:52:28Z</time>
      </trkpt>
      <trkpt lat="43.277312" lon="13.063535">
        <ele>550.610</ele>
        <time>2022-05-22T13:52:34Z</time>
      </trkpt>
      <trkpt lat="43.277408" lon="13.063164">
        <ele>547.084</ele>
        <time>2022-05-22T13:52:39Z</time>
      </trkpt>
      <trkpt lat="43.277494" lon="13.062852">
        <ele>543.670</ele>
        <time>2022-05-22T13:52:44Z</time>
      </trkpt>
      <trkpt lat="43.277557" lon="13.062628">
        <ele>540.255</ele>
        <time>2022-05-22T13:52:49Z</time>
      </trkpt>
      <trkpt lat="43.277577" lon="13.062566">
        <ele>538.214</ele>
        <time>2022-05-22T13:52:56Z</time>
      </trkpt>
      <trkpt lat="43.277587" lon="13.062488">
        <ele>538.032</ele>
        <time>2022-05-22T13:53:03Z</time>
      </trkpt>
      <trkpt lat="43.277599" lon="13.062452">
        <ele>538.035</ele>
        <time>2022-05-22T13:53:04Z</time>
      </trkpt>
      <trkpt lat="43.277611" lon="13.062408">
        <ele>537.886</ele>
        <time>2022-05-22T13:53:05Z</time>
      </trkpt>
      <trkpt lat="43.277625" lon="13.062364">
        <ele>537.614</ele>
        <time>2022-05-22T13:53:06Z</time>
      </trkpt>
      <trkpt lat="43.277641" lon="13.062325">
        <ele>537.409</ele>
        <time>2022-05-22T13:53:07Z</time>
      </trkpt>
      <trkpt lat="43.277653" lon="13.062282">
        <ele>537.024</ele>
        <time>2022-05-22T13:53:08Z</time>
      </trkpt>
      <trkpt lat="43.277668" lon="13.062243">
        <ele>536.243</ele>
        <time>2022-05-22T13:53:09Z</time>
      </trkpt>
      <trkpt lat="43.277686" lon="13.062207">
        <ele>536.216</ele>
        <time>2022-05-22T13:53:10Z</time>
      </trkpt>
      <trkpt lat="43.277820" lon="13.061936">
        <ele>533.222</ele>
        <time>2022-05-22T13:53:17Z</time>
      </trkpt>
      <trkpt lat="43.277951" lon="13.061657">
        <ele>529.836</ele>
        <time>2022-05-22T13:53:24Z</time>
      </trkpt>
      <trkpt lat="43.278051" lon="13.061429">
        <ele>527.052</ele>
        <time>2022-05-22T13:53:29Z</time>
      </trkpt>
      <trkpt lat="43.278091" lon="13.061318">
        <ele>526.467</ele>
        <time>2022-05-22T13:53:31Z</time>
      </trkpt>
      <trkpt lat="43.278120" lon="13.061257">
        <ele>525.656</ele>
        <time>2022-05-22T13:53:32Z</time>
      </trkpt>
      <trkpt lat="43.278147" lon="13.061191">
        <ele>524.684</ele>
        <time>2022-05-22T13:53:33Z</time>
      </trkpt>
      <trkpt lat="43.278171" lon="13.061115">
        <ele>523.633</ele>
        <time>2022-05-22T13:53:34Z</time>
      </trkpt>
      <trkpt lat="43.278190" lon="13.061027">
        <ele>522.823</ele>
        <time>2022-05-22T13:53:35Z</time>
      </trkpt>
      <trkpt lat="43.278211" lon="13.060939">
        <ele>522.215</ele>
        <time>2022-05-22T13:53:36Z</time>
      </trkpt>
      <trkpt lat="43.278333" lon="13.060498">
        <ele>518.609</ele>
        <time>2022-05-22T13:53:41Z</time>
      </trkpt>
      <trkpt lat="43.278407" lon="13.060227">
        <ele>515.684</ele>
        <time>2022-05-22T13:53:44Z</time>
      </trkpt>
      <trkpt lat="43.278473" lon="13.059941">
        <ele>512.223</ele>
        <time>2022-05-22T13:53:48Z</time>
      </trkpt>
      <trkpt lat="43.278415" lon="13.059376">
        <ele>511.876</ele>
        <time>2022-05-22T13:54:00Z</time>
      </trkpt>
      <trkpt lat="43.278414" lon="13.059312">
        <ele>512.042</ele>
        <time>2022-05-22T13:54:02Z</time>
      </trkpt>
      <trkpt lat="43.278427" lon="13.059312">
        <ele>512.216</ele>
        <time>2022-05-22T13:54:06Z</time>
      </trkpt>
      <trkpt lat="43.278382" lon="13.059266">
        <ele>512.252</ele>
        <time>2022-05-22T13:55:03Z</time>
      </trkpt>
      <trkpt lat="43.278381" lon="13.059235">
        <ele>512.417</ele>
        <time>2022-05-22T13:55:04Z</time>
      </trkpt>
      <trkpt lat="43.278421" lon="13.058776">
        <ele>512.246</ele>
        <time>2022-05-22T13:55:15Z</time>
      </trkpt>
      <trkpt lat="43.278401" lon="13.058641">
        <ele>512.074</ele>
        <time>2022-05-22T13:55:18Z</time>
      </trkpt>
      <trkpt lat="43.278378" lon="13.058585">
        <ele>512.071</ele>
        <time>2022-05-22T13:55:19Z</time>
      </trkpt>
      <trkpt lat="43.278231" lon="13.058214">
        <ele>508.241</ele>
        <time>2022-05-22T13:55:25Z</time>
      </trkpt>
      <trkpt lat="43.278112" lon="13.057883">
        <ele>505.215</ele>
        <time>2022-05-22T13:55:36Z</time>
      </trkpt>
      <trkpt lat="43.278114" lon="13.057883">
        <ele>505.009</ele>
        <time>2022-05-22T13:55:37Z</time>
      </trkpt>
      <trkpt lat="43.278092" lon="13.057780">
        <ele>505.068</ele>
        <time>2022-05-22T13:55:59Z</time>
      </trkpt>
      <trkpt lat="43.278077" lon="13.057748">
        <ele>505.017</ele>
        <time>2022-05-22T13:56:00Z</time>
      </trkpt>
      <trkpt lat="43.278056" lon="13.057712">
        <ele>504.860</ele>
        <time>2022-05-22T13:56:01Z</time>
      </trkpt>
      <trkpt lat="43.278011" lon="13.057621">
        <ele>504.236</ele>
        <time>2022-05-22T13:56:08Z</time>
      </trkpt>
      <trkpt lat="43.278186" lon="13.057450">
        <ele>500.230</ele>
        <time>2022-05-22T14:00:28Z</time>
      </trkpt>
      <trkpt lat="43.278179" lon="13.057504">
        <ele>500.246</ele>
        <time>2022-05-22T14:00:30Z</time>
      </trkpt>
      <trkpt lat="43.278081" lon="13.057661">
        <ele>503.431</ele>
        <time>2022-05-22T14:00:38Z</time>
      </trkpt>
      <trkpt lat="43.278057" lon="13.057665">
        <ele>504.820</ele>
        <time>2022-05-22T14:00:44Z</time>
      </trkpt>
      <trkpt lat="43.278009" lon="13.057633">
        <ele>504.848</ele>
        <time>2022-05-22T14:00:49Z</time>
      </trkpt>
      <trkpt lat="43.277993" lon="13.057608">
        <ele>504.864</ele>
        <time>2022-05-22T14:00:50Z</time>
      </trkpt>
      <trkpt lat="43.277976" lon="13.057578">
        <ele>504.806</ele>
        <time>2022-05-22T14:00:51Z</time>
      </trkpt>
      <trkpt lat="43.277804" lon="13.057271">
        <ele>503.416</ele>
        <time>2022-05-22T14:00:58Z</time>
      </trkpt>
      <trkpt lat="43.277765" lon="13.057231">
        <ele>503.009</ele>
        <time>2022-05-22T14:00:59Z</time>
      </trkpt>
      <trkpt lat="43.277718" lon="13.057197">
        <ele>502.497</ele>
        <time>2022-05-22T14:01:00Z</time>
      </trkpt>
      <trkpt lat="43.277615" lon="13.057124">
        <ele>501.046</ele>
        <time>2022-05-22T14:01:02Z</time>
      </trkpt>
      <trkpt lat="43.277566" lon="13.057072">
        <ele>500.469</ele>
        <time>2022-05-22T14:01:03Z</time>
      </trkpt>
      <trkpt lat="43.277520" lon="13.057010">
        <ele>499.885</ele>
        <time>2022-05-22T14:01:04Z</time>
      </trkpt>
      <trkpt lat="43.277333" lon="13.056744">
        <ele>497.429</ele>
        <time>2022-05-22T14:01:08Z</time>
      </trkpt>
      <trkpt lat="43.276892" lon="13.056381">
        <ele>494.235</ele>
        <time>2022-05-22T14:01:15Z</time>
      </trkpt>
      <trkpt lat="43.276784" lon="13.056300">
        <ele>493.650</ele>
        <time>2022-05-22T14:01:17Z</time>
      </trkpt>
      <trkpt lat="43.276737" lon="13.056246">
        <ele>493.649</ele>
        <time>2022-05-22T14:01:18Z</time>
      </trkpt>
      <trkpt lat="43.276693" lon="13.056188">
        <ele>493.467</ele>
        <time>2022-05-22T14:01:19Z</time>
      </trkpt>
      <trkpt lat="43.276654" lon="13.056124">
        <ele>493.496</ele>
        <time>2022-05-22T14:01:20Z</time>
      </trkpt>
      <trkpt lat="43.276620" lon="13.056061">
        <ele>493.431</ele>
        <time>2022-05-22T14:01:21Z</time>
      </trkpt>
      <trkpt lat="43.276545" lon="13.055871">
        <ele>493.424</ele>
        <time>2022-05-22T14:01:24Z</time>
      </trkpt>
      <trkpt lat="43.276526" lon="13.055810">
        <ele>493.409</ele>
        <time>2022-05-22T14:01:25Z</time>
      </trkpt>
      <trkpt lat="43.276506" lon="13.055751">
        <ele>493.410</ele>
        <time>2022-05-22T14:01:26Z</time>
      </trkpt>
      <trkpt lat="43.276379" lon="13.055476">
        <ele>492.289</ele>
        <time>2022-05-22T14:01:31Z</time>
      </trkpt>
      <trkpt lat="43.276355" lon="13.055420">
        <ele>492.022</ele>
        <time>2022-05-22T14:01:32Z</time>
      </trkpt>
      <trkpt lat="43.276123" lon="13.054931">
        <ele>492.258</ele>
        <time>2022-05-22T14:01:42Z</time>
      </trkpt>
      <trkpt lat="43.275784" lon="13.054807">
        <ele>493.442</ele>
        <time>2022-05-22T14:01:52Z</time>
      </trkpt>
      <trkpt lat="43.275610" lon="13.054614">
        <ele>492.818</ele>
        <time>2022-05-22T14:01:57Z</time>
      </trkpt>
      <trkpt lat="43.275039" lon="13.054113">
        <ele>494.053</ele>
        <time>2022-05-22T14:02:10Z</time>
      </trkpt>
      <trkpt lat="43.274479" lon="13.053635">
        <ele>495.242</ele>
        <time>2022-05-22T14:02:23Z</time>
      </trkpt>
      <trkpt lat="43.274438" lon="13.053587">
        <ele>495.060</ele>
        <time>2022-05-22T14:02:24Z</time>
      </trkpt>
      <trkpt lat="43.274403" lon="13.053532">
        <ele>494.672</ele>
        <time>2022-05-22T14:02:25Z</time>
      </trkpt>
      <trkpt lat="43.274165" lon="13.053105">
        <ele>491.413</ele>
        <time>2022-05-22T14:02:32Z</time>
      </trkpt>
      <trkpt lat="43.274098" lon="13.052988">
        <ele>489.814</ele>
        <time>2022-05-22T14:02:34Z</time>
      </trkpt>
      <trkpt lat="43.274056" lon="13.052933">
        <ele>488.809</ele>
        <time>2022-05-22T14:02:35Z</time>
      </trkpt>
      <trkpt lat="43.274019" lon="13.052889">
        <ele>488.058</ele>
        <time>2022-05-22T14:02:36Z</time>
      </trkpt>
      <trkpt lat="43.273935" lon="13.052806">
        <ele>486.487</ele>
        <time>2022-05-22T14:02:38Z</time>
      </trkpt>
      <trkpt lat="43.273776" lon="13.052708">
        <ele>484.820</ele>
        <time>2022-05-22T14:02:41Z</time>
      </trkpt>
      <trkpt lat="43.273570" lon="13.052602">
        <ele>482.436</ele>
        <time>2022-05-22T14:02:45Z</time>
      </trkpt>
      <trkpt lat="43.273459" lon="13.052554">
        <ele>480.860</ele>
        <time>2022-05-22T14:02:47Z</time>
      </trkpt>
      <trkpt lat="43.273414" lon="13.052538">
        <ele>480.056</ele>
        <time>2022-05-22T14:02:48Z</time>
      </trkpt>
      <trkpt lat="43.273368" lon="13.052524">
        <ele>479.491</ele>
        <time>2022-05-22T14:02:49Z</time>
      </trkpt>
      <trkpt lat="43.273324" lon="13.052481">
        <ele>478.840</ele>
        <time>2022-05-22T14:02:50Z</time>
      </trkpt>
      <trkpt lat="43.273284" lon="13.052431">
        <ele>478.498</ele>
        <time>2022-05-22T14:02:51Z</time>
      </trkpt>
      <trkpt lat="43.273247" lon="13.052374">
        <ele>477.814</ele>
        <time>2022-05-22T14:02:52Z</time>
      </trkpt>
      <trkpt lat="43.273212" lon="13.052326">
        <ele>477.254</ele>
        <time>2022-05-22T14:02:53Z</time>
      </trkpt>
      <trkpt lat="43.273178" lon="13.052290">
        <ele>476.409</ele>
        <time>2022-05-22T14:02:54Z</time>
      </trkpt>
      <trkpt lat="43.273143" lon="13.052263">
        <ele>475.809</ele>
        <time>2022-05-22T14:02:55Z</time>
      </trkpt>
      <trkpt lat="43.273105" lon="13.052260">
        <ele>475.212</ele>
        <time>2022-05-22T14:02:56Z</time>
      </trkpt>
      <trkpt lat="43.273059" lon="13.052263">
        <ele>474.611</ele>
        <time>2022-05-22T14:02:57Z</time>
      </trkpt>
      <trkpt lat="43.273020" lon="13.052284">
        <ele>474.434</ele>
        <time>2022-05-22T14:02:58Z</time>
      </trkpt>
      <trkpt lat="43.272962" lon="13.052276">
        <ele>474.220</ele>
        <time>2022-05-22T14:02:59Z</time>
      </trkpt>
      <trkpt lat="43.272893" lon="13.052260">
        <ele>474.094</ele>
        <time>2022-05-22T14:03:00Z</time>
      </trkpt>
      <trkpt lat="43.272832" lon="13.052240">
        <ele>473.890</ele>
        <time>2022-05-22T14:03:01Z</time>
      </trkpt>
      <trkpt lat="43.272787" lon="13.052214">
        <ele>473.685</ele>
        <time>2022-05-22T14:03:02Z</time>
      </trkpt>
      <trkpt lat="43.272619" lon="13.052083">
        <ele>473.054</ele>
        <time>2022-05-22T14:03:06Z</time>
      </trkpt>
      <trkpt lat="43.272580" lon="13.052029">
        <ele>473.082</ele>
        <time>2022-05-22T14:03:07Z</time>
      </trkpt>
      <trkpt lat="43.272544" lon="13.051995">
        <ele>473.087</ele>
        <time>2022-05-22T14:03:08Z</time>
      </trkpt>
      <trkpt lat="43.272065" lon="13.051665">
        <ele>474.042</ele>
        <time>2022-05-22T14:03:19Z</time>
      </trkpt>
      <trkpt lat="43.271695" lon="13.051414">
        <ele>475.426</ele>
        <time>2022-05-22T14:03:29Z</time>
      </trkpt>
      <trkpt lat="43.271314" lon="13.051210">
        <ele>473.609</ele>
        <time>2022-05-22T14:03:42Z</time>
      </trkpt>
      <trkpt lat="43.270957" lon="13.051072">
        <ele>471.039</ele>
        <time>2022-05-22T14:03:51Z</time>
      </trkpt>
      <trkpt lat="43.270845" lon="13.051030">
        <ele>470.078</ele>
        <time>2022-05-22T14:03:53Z</time>
      </trkpt>
      <trkpt lat="43.270616" lon="13.050961">
        <ele>468.071</ele>
        <time>2022-05-22T14:03:57Z</time>
      </trkpt>
      <trkpt lat="43.270564" lon="13.050934">
        <ele>467.697</ele>
        <time>2022-05-22T14:03:58Z</time>
      </trkpt>
      <trkpt lat="43.270457" lon="13.050863">
        <ele>466.491</ele>
        <time>2022-05-22T14:04:00Z</time>
      </trkpt>
      <trkpt lat="43.270370" lon="13.050778">
        <ele>465.257</ele>
        <time>2022-05-22T14:04:02Z</time>
      </trkpt>
      <trkpt lat="43.270151" lon="13.050349">
        <ele>464.082</ele>
        <time>2022-05-22T14:04:12Z</time>
      </trkpt>
      <trkpt lat="43.270143" lon="13.049776">
        <ele>465.421</ele>
        <time>2022-05-22T14:04:26Z</time>
      </trkpt>
      <trkpt lat="43.270152" lon="13.049666">
        <ele>467.299</ele>
        <time>2022-05-22T14:04:34Z</time>
      </trkpt>
      <trkpt lat="43.270117" lon="13.049663">
        <ele>468.422</ele>
        <time>2022-05-22T14:06:41Z</time>
      </trkpt>
      <trkpt lat="43.270076" lon="13.050003">
        <ele>465.462</ele>
        <time>2022-05-22T14:06:59Z</time>
      </trkpt>
      <trkpt lat="43.270066" lon="13.050137">
        <ele>464.008</ele>
        <time>2022-05-22T14:07:10Z</time>
      </trkpt>
      <trkpt lat="43.270061" lon="13.050199">
        <ele>464.009</ele>
        <time>2022-05-22T14:07:14Z</time>
      </trkpt>
      <trkpt lat="43.270064" lon="13.050225">
        <ele>463.813</ele>
        <time>2022-05-22T14:07:15Z</time>
      </trkpt>
      <trkpt lat="43.270069" lon="13.050256">
        <ele>463.842</ele>
        <time>2022-05-22T14:07:16Z</time>
      </trkpt>
      <trkpt lat="43.270277" lon="13.050651">
        <ele>463.615</ele>
        <time>2022-05-22T14:07:28Z</time>
      </trkpt>
      <trkpt lat="43.270585" lon="13.050898">
        <ele>465.481</ele>
        <time>2022-05-22T14:07:40Z</time>
      </trkpt>
      <trkpt lat="43.270869" lon="13.050974">
        <ele>468.455</ele>
        <time>2022-05-22T14:07:50Z</time>
      </trkpt>
      <trkpt lat="43.271190" lon="13.051077">
        <ele>471.651</ele>
        <time>2022-05-22T14:08:05Z</time>
      </trkpt>
      <trkpt lat="43.271474" lon="13.051190">
        <ele>474.616</ele>
        <time>2022-05-22T14:08:22Z</time>
      </trkpt>
      <trkpt lat="43.271724" lon="13.051318">
        <ele>475.835</ele>
        <time>2022-05-22T14:08:36Z</time>
      </trkpt>
      <trkpt lat="43.271727" lon="13.051318">
        <ele>475.613</ele>
        <time>2022-05-22T14:08:38Z</time>
      </trkpt>
      <trkpt lat="43.271604" lon="13.051256">
        <ele>475.676</ele>
        <time>2022-05-22T14:08:55Z</time>
      </trkpt>
      <trkpt lat="43.271265" lon="13.051158">
        <ele>474.290</ele>
        <time>2022-05-22T14:09:08Z</time>
      </trkpt>
      <trkpt lat="43.271170" lon="13.051097">
        <ele>473.219</ele>
        <time>2022-05-22T14:09:13Z</time>
      </trkpt>
      <trkpt lat="43.271174" lon="13.051034">
        <ele>472.609</ele>
        <time>2022-05-22T14:09:16Z</time>
      </trkpt>
      <trkpt lat="43.271255" lon="13.050900">
        <ele>469.858</ele>
        <time>2022-05-22T14:09:28Z</time>
      </trkpt>
      <trkpt lat="43.271022" lon="13.050997">
        <ele>471.477</ele>
        <time>2022-05-22T14:10:25Z</time>
      </trkpt>
      <trkpt lat="43.270617" lon="13.050889">
        <ele>469.210</ele>
        <time>2022-05-22T14:10:35Z</time>
      </trkpt>
      <trkpt lat="43.270578" lon="13.050881">
        <ele>468.886</ele>
        <time>2022-05-22T14:10:36Z</time>
      </trkpt>
      <trkpt lat="43.270464" lon="13.050830">
        <ele>467.490</ele>
        <time>2022-05-22T14:10:39Z</time>
      </trkpt>
      <trkpt lat="43.270420" lon="13.050792">
        <ele>466.876</ele>
        <time>2022-05-22T14:10:40Z</time>
      </trkpt>
      <trkpt lat="43.270178" lon="13.050531">
        <ele>464.471</ele>
        <time>2022-05-22T14:10:46Z</time>
      </trkpt>
      <trkpt lat="43.270153" lon="13.050484">
        <ele>464.480</ele>
        <time>2022-05-22T14:10:47Z</time>
      </trkpt>
      <trkpt lat="43.270138" lon="13.050433">
        <ele>464.228</ele>
        <time>2022-05-22T14:10:48Z</time>
      </trkpt>
      <trkpt lat="43.270130" lon="13.050381">
        <ele>464.268</ele>
        <time>2022-05-22T14:10:49Z</time>
      </trkpt>
      <trkpt lat="43.270127" lon="13.050328">
        <ele>464.242</ele>
        <time>2022-05-22T14:10:50Z</time>
      </trkpt>
      <trkpt lat="43.270121" lon="13.050276">
        <ele>464.226</ele>
        <time>2022-05-22T14:10:51Z</time>
      </trkpt>
      <trkpt lat="43.270091" lon="13.049929">
        <ele>465.609</ele>
        <time>2022-05-22T14:11:03Z</time>
      </trkpt>
      <trkpt lat="43.270088" lon="13.049917">
        <ele>466.037</ele>
        <time>2022-05-22T14:11:07Z</time>
      </trkpt>
      <trkpt lat="43.270091" lon="13.049842">
        <ele>466.216</ele>
        <time>2022-05-22T14:11:11Z</time>
      </trkpt>
      <trkpt lat="43.270121" lon="13.049633">
        <ele>468.239</ele>
        <time>2022-05-22T14:11:28Z</time>
      </trkpt>
      <trkpt lat="43.270079" lon="13.049097">
        <ele>472.885</ele>
        <time>2022-05-22T14:12:21Z</time>
      </trkpt>
      <trkpt lat="43.270031" lon="13.048881">
        <ele>473.669</ele>
        <time>2022-05-22T14:12:35Z</time>
      </trkpt>
      <trkpt lat="43.269946" lon="13.048701">
        <ele>474.235</ele>
        <time>2022-05-22T14:12:47Z</time>
      </trkpt>
      <trkpt lat="43.269934" lon="13.048670">
        <ele>474.450</ele>
        <time>2022-05-22T14:12:49Z</time>
      </trkpt>
      <trkpt lat="43.269870" lon="13.048507">
        <ele>475.489</ele>
        <time>2022-05-22T14:13:04Z</time>
      </trkpt>
      <trkpt lat="43.269868" lon="13.048505">
        <ele>475.497</ele>
        <time>2022-05-22T14:13:05Z</time>
      </trkpt>
      <trkpt lat="43.269803" lon="13.048370">
        <ele>475.446</ele>
        <time>2022-05-22T14:18:57Z</time>
      </trkpt>
      <trkpt lat="43.269802" lon="13.048276">
        <ele>475.888</ele>
        <time>2022-05-22T14:19:07Z</time>
      </trkpt>
      <trkpt lat="43.269708" lon="13.048182">
        <ele>475.616</ele>
        <time>2022-05-22T14:42:33Z</time>
      </trkpt>
      <trkpt lat="43.269652" lon="13.048005">
        <ele>477.009</ele>
        <time>2022-05-22T14:42:40Z</time>
      </trkpt>
      <trkpt lat="43.269492" lon="13.047713">
        <ele>479.255</ele>
        <time>2022-05-22T14:42:55Z</time>
      </trkpt>
      <trkpt lat="43.269401" lon="13.047567">
        <ele>480.084</ele>
        <time>2022-05-22T14:43:04Z</time>
      </trkpt>
      <trkpt lat="43.269390" lon="13.047548">
        <ele>480.067</ele>
        <time>2022-05-22T14:43:05Z</time>
      </trkpt>
      <trkpt lat="43.269377" lon="13.047530">
        <ele>480.043</ele>
        <time>2022-05-22T14:43:06Z</time>
      </trkpt>
      <trkpt lat="43.269367" lon="13.047512">
        <ele>480.067</ele>
        <time>2022-05-22T14:43:07Z</time>
      </trkpt>
      <trkpt lat="43.269356" lon="13.047495">
        <ele>480.293</ele>
        <time>2022-05-22T14:43:08Z</time>
      </trkpt>
      <trkpt lat="43.269343" lon="13.047478">
        <ele>480.258</ele>
        <time>2022-05-22T14:43:09Z</time>
      </trkpt>
      <trkpt lat="43.269119" lon="13.047223">
        <ele>481.877</ele>
        <time>2022-05-22T14:43:23Z</time>
      </trkpt>
      <trkpt lat="43.268838" lon="13.046777">
        <ele>478.845</ele>
        <time>2022-05-22T14:43:34Z</time>
      </trkpt>
      <trkpt lat="43.268801" lon="13.046704">
        <ele>478.462</ele>
        <time>2022-05-22T14:43:35Z</time>
      </trkpt>
      <trkpt lat="43.268777" lon="13.046655">
        <ele>477.883</ele>
        <time>2022-05-22T14:43:36Z</time>
      </trkpt>
      <trkpt lat="43.268548" lon="13.046354">
        <ele>475.811</ele>
        <time>2022-05-22T14:43:44Z</time>
      </trkpt>
      <trkpt lat="43.268501" lon="13.046325">
        <ele>475.409</ele>
        <time>2022-05-22T14:43:45Z</time>
      </trkpt>
      <trkpt lat="43.268414" lon="13.046270">
        <ele>474.847</ele>
        <time>2022-05-22T14:43:47Z</time>
      </trkpt>
      <trkpt lat="43.268371" lon="13.046241">
        <ele>474.696</ele>
        <time>2022-05-22T14:43:48Z</time>
      </trkpt>
      <trkpt lat="43.268091" lon="13.046094">
        <ele>473.079</ele>
        <time>2022-05-22T14:43:55Z</time>
      </trkpt>
      <trkpt lat="43.267560" lon="13.045776">
        <ele>471.085</ele>
        <time>2022-05-22T14:44:05Z</time>
      </trkpt>
      <trkpt lat="43.267080" lon="13.045529">
        <ele>467.879</ele>
        <time>2022-05-22T14:44:13Z</time>
      </trkpt>
      <trkpt lat="43.266598" lon="13.045076">
        <ele>465.225</ele>
        <time>2022-05-22T14:44:24Z</time>
      </trkpt>
      <trkpt lat="43.266162" lon="13.044612">
        <ele>462.870</ele>
        <time>2022-05-22T14:44:38Z</time>
      </trkpt>
      <trkpt lat="43.266145" lon="13.044608">
        <ele>462.639</ele>
        <time>2022-05-22T14:44:43Z</time>
      </trkpt>
      <trkpt lat="43.266175" lon="13.044676">
        <ele>462.677</ele>
        <time>2022-05-22T14:44:50Z</time>
      </trkpt>
      <trkpt lat="43.266417" lon="13.044913">
        <ele>463.852</ele>
        <time>2022-05-22T14:45:03Z</time>
      </trkpt>
      <trkpt lat="43.266854" lon="13.045370">
        <ele>465.853</ele>
        <time>2022-05-22T14:45:24Z</time>
      </trkpt>
      <trkpt lat="43.267347" lon="13.045677">
        <ele>467.808</ele>
        <time>2022-05-22T14:45:45Z</time>
      </trkpt>
      <trkpt lat="43.267805" lon="13.045902">
        <ele>470.009</ele>
        <time>2022-05-22T14:46:06Z</time>
      </trkpt>
      <trkpt lat="43.268185" lon="13.046114">
        <ele>472.456</ele>
        <time>2022-05-22T14:46:25Z</time>
      </trkpt>
      <trkpt lat="43.268547" lon="13.046381">
        <ele>474.465</ele>
        <time>2022-05-22T14:46:42Z</time>
      </trkpt>
      <trkpt lat="43.268591" lon="13.046418">
        <ele>474.478</ele>
        <time>2022-05-22T14:46:45Z</time>
      </trkpt>
      <trkpt lat="43.268610" lon="13.046451">
        <ele>474.624</ele>
        <time>2022-05-22T14:46:47Z</time>
      </trkpt>
      <trkpt lat="43.268623" lon="13.046454">
        <ele>474.888</ele>
        <time>2022-05-22T14:46:48Z</time>
      </trkpt>
      <trkpt lat="43.268630" lon="13.046442">
        <ele>475.034</ele>
        <time>2022-05-22T14:46:49Z</time>
      </trkpt>
      <trkpt lat="43.268626" lon="13.046427">
        <ele>475.089</ele>
        <time>2022-05-22T14:46:50Z</time>
      </trkpt>
      <trkpt lat="43.268594" lon="13.046395">
        <ele>475.228</ele>
        <time>2022-05-22T14:46:52Z</time>
      </trkpt>
      <trkpt lat="43.268577" lon="13.046384">
        <ele>475.256</ele>
        <time>2022-05-22T14:46:53Z</time>
      </trkpt>
      <trkpt lat="43.268562" lon="13.046384">
        <ele>475.235</ele>
        <time>2022-05-22T14:46:54Z</time>
      </trkpt>
      <trkpt lat="43.268546" lon="13.046374">
        <ele>474.886</ele>
        <time>2022-05-22T14:46:59Z</time>
      </trkpt>
      <trkpt lat="43.268493" lon="13.046271">
        <ele>475.414</ele>
        <time>2022-05-22T14:48:13Z</time>
      </trkpt>
      <trkpt lat="43.268475" lon="13.046264">
        <ele>475.409</ele>
        <time>2022-05-22T14:48:14Z</time>
      </trkpt>
      <trkpt lat="43.268452" lon="13.046253">
        <ele>475.414</ele>
        <time>2022-05-22T14:48:15Z</time>
      </trkpt>
      <trkpt lat="43.268426" lon="13.046241">
        <ele>475.223</ele>
        <time>2022-05-22T14:48:16Z</time>
      </trkpt>
      <trkpt lat="43.268111" lon="13.046020">
        <ele>473.636</ele>
        <time>2022-05-22T14:48:25Z</time>
      </trkpt>
      <trkpt lat="43.268068" lon="13.046000">
        <ele>473.462</ele>
        <time>2022-05-22T14:48:26Z</time>
      </trkpt>
      <trkpt lat="43.267402" lon="13.045662">
        <ele>470.436</ele>
        <time>2022-05-22T14:48:37Z</time>
      </trkpt>
      <trkpt lat="43.267187" lon="13.045559">
        <ele>468.852</ele>
        <time>2022-05-22T14:48:40Z</time>
      </trkpt>
      <trkpt lat="43.266574" lon="13.045048">
        <ele>465.627</ele>
        <time>2022-05-22T14:48:49Z</time>
      </trkpt>
      <trkpt lat="43.265854" lon="13.044393">
        <ele>462.676</ele>
        <time>2022-05-22T14:49:00Z</time>
      </trkpt>
      <trkpt lat="43.265237" lon="13.044206">
        <ele>459.624</ele>
        <time>2022-05-22T14:49:08Z</time>
      </trkpt>
      <trkpt lat="43.264705" lon="13.044150">
        <ele>455.899</ele>
        <time>2022-05-22T14:49:14Z</time>
      </trkpt>
      <trkpt lat="43.264622" lon="13.044126">
        <ele>455.007</ele>
        <time>2022-05-22T14:49:15Z</time>
      </trkpt>
      <trkpt lat="43.263951" lon="13.043627">
        <ele>452.627</ele>
        <time>2022-05-22T14:49:25Z</time>
      </trkpt>
      <trkpt lat="43.263905" lon="13.043559">
        <ele>452.609</ele>
        <time>2022-05-22T14:49:26Z</time>
      </trkpt>
      <trkpt lat="43.263860" lon="13.043489">
        <ele>452.610</ele>
        <time>2022-05-22T14:49:27Z</time>
      </trkpt>
      <trkpt lat="43.263738" lon="13.043257">
        <ele>453.219</ele>
        <time>2022-05-22T14:49:34Z</time>
      </trkpt>
      <trkpt lat="43.263738" lon="13.043256">
        <ele>453.692</ele>
        <time>2022-05-22T14:49:35Z</time>
      </trkpt>
      <trkpt lat="43.263666" lon="13.043138">
        <ele>453.248</ele>
        <time>2022-05-22T14:49:55Z</time>
      </trkpt>
      <trkpt lat="43.263553" lon="13.042977">
        <ele>453.452</ele>
        <time>2022-05-22T14:49:59Z</time>
      </trkpt>
      <trkpt lat="43.263519" lon="13.042936">
        <ele>453.438</ele>
        <time>2022-05-22T14:50:00Z</time>
      </trkpt>
      <trkpt lat="43.263486" lon="13.042896">
        <ele>453.473</ele>
        <time>2022-05-22T14:50:01Z</time>
      </trkpt>
      <trkpt lat="43.263457" lon="13.042854">
        <ele>453.432</ele>
        <time>2022-05-22T14:50:02Z</time>
      </trkpt>
      <trkpt lat="43.263430" lon="13.042818">
        <ele>453.290</ele>
        <time>2022-05-22T14:50:03Z</time>
      </trkpt>
      <trkpt lat="43.263404" lon="13.042785">
        <ele>453.014</ele>
        <time>2022-05-22T14:50:04Z</time>
      </trkpt>
      <trkpt lat="43.263205" lon="13.042560">
        <ele>452.454</ele>
        <time>2022-05-22T14:50:10Z</time>
      </trkpt>
      <trkpt lat="43.263159" lon="13.042519">
        <ele>452.409</ele>
        <time>2022-05-22T14:50:11Z</time>
      </trkpt>
      <trkpt lat="43.263112" lon="13.042479">
        <ele>452.209</ele>
        <time>2022-05-22T14:50:12Z</time>
      </trkpt>
      <trkpt lat="43.263066" lon="13.042428">
        <ele>452.092</ele>
        <time>2022-05-22T14:50:13Z</time>
      </trkpt>
      <trkpt lat="43.263018" lon="13.042374">
        <ele>451.811</ele>
        <time>2022-05-22T14:50:14Z</time>
      </trkpt>
      <trkpt lat="43.262876" lon="13.042186">
        <ele>451.094</ele>
        <time>2022-05-22T14:50:17Z</time>
      </trkpt>
      <trkpt lat="43.262758" lon="13.041945">
        <ele>450.020</ele>
        <time>2022-05-22T14:50:20Z</time>
      </trkpt>
      <trkpt lat="43.262733" lon="13.041855">
        <ele>449.894</ele>
        <time>2022-05-22T14:50:21Z</time>
      </trkpt>
      <trkpt lat="43.262477" lon="13.040499">
        <ele>447.040</ele>
        <time>2022-05-22T14:50:36Z</time>
      </trkpt>
      <trkpt lat="43.262363" lon="13.040001">
        <ele>444.225</ele>
        <time>2022-05-22T14:50:40Z</time>
      </trkpt>
      <trkpt lat="43.262317" lon="13.039872">
        <ele>443.684</ele>
        <time>2022-05-22T14:50:41Z</time>
      </trkpt>
      <trkpt lat="43.262263" lon="13.039743">
        <ele>442.632</ele>
        <time>2022-05-22T14:50:42Z</time>
      </trkpt>
      <trkpt lat="43.262151" lon="13.039475">
        <ele>440.459</ele>
        <time>2022-05-22T14:50:44Z</time>
      </trkpt>
      <trkpt lat="43.262109" lon="13.039336">
        <ele>439.403</ele>
        <time>2022-05-22T14:50:45Z</time>
      </trkpt>
      <trkpt lat="43.261992" lon="13.038894">
        <ele>436.223</ele>
        <time>2022-05-22T14:50:48Z</time>
      </trkpt>
      <trkpt lat="43.261832" lon="13.038519">
        <ele>433.409</ele>
        <time>2022-05-22T14:50:51Z</time>
      </trkpt>
      <trkpt lat="43.261769" lon="13.038418">
        <ele>432.866</ele>
        <time>2022-05-22T14:50:52Z</time>
      </trkpt>
      <trkpt lat="43.261711" lon="13.038320">
        <ele>432.255</ele>
        <time>2022-05-22T14:50:53Z</time>
      </trkpt>
      <trkpt lat="43.261666" lon="13.038217">
        <ele>431.878</ele>
        <time>2022-05-22T14:50:54Z</time>
      </trkpt>
      <trkpt lat="43.261631" lon="13.038112">
        <ele>431.624</ele>
        <time>2022-05-22T14:50:55Z</time>
      </trkpt>
      <trkpt lat="43.261599" lon="13.038008">
        <ele>431.658</ele>
        <time>2022-05-22T14:50:56Z</time>
      </trkpt>
      <trkpt lat="43.261570" lon="13.037900">
        <ele>431.494</ele>
        <time>2022-05-22T14:50:57Z</time>
      </trkpt>
      <trkpt lat="43.261544" lon="13.037792">
        <ele>431.479</ele>
        <time>2022-05-22T14:50:58Z</time>
      </trkpt>
      <trkpt lat="43.261466" lon="13.037495">
        <ele>431.418</ele>
        <time>2022-05-22T14:51:01Z</time>
      </trkpt>
      <trkpt lat="43.261336" lon="13.037152">
        <ele>430.676</ele>
        <time>2022-05-22T14:51:05Z</time>
      </trkpt>
      <trkpt lat="43.261297" lon="13.037080">
        <ele>430.655</ele>
        <time>2022-05-22T14:51:06Z</time>
      </trkpt>
      <trkpt lat="43.261125" lon="13.036798">
        <ele>430.407</ele>
        <time>2022-05-22T14:51:10Z</time>
      </trkpt>
      <trkpt lat="43.260603" lon="13.035750">
        <ele>428.017</ele>
        <time>2022-05-22T14:51:23Z</time>
      </trkpt>
      <trkpt lat="43.260262" lon="13.035006">
        <ele>425.809</ele>
        <time>2022-05-22T14:51:33Z</time>
      </trkpt>
      <trkpt lat="43.260228" lon="13.034933">
        <ele>426.036</ele>
        <time>2022-05-22T14:51:34Z</time>
      </trkpt>
      <trkpt lat="43.260043" lon="13.034369">
        <ele>425.655</ele>
        <time>2022-05-22T14:51:41Z</time>
      </trkpt>
      <trkpt lat="43.259910" lon="13.032894">
        <ele>423.288</ele>
        <time>2022-05-22T14:51:58Z</time>
      </trkpt>
      <trkpt lat="43.259911" lon="13.031709">
        <ele>420.234</ele>
        <time>2022-05-22T14:52:11Z</time>
      </trkpt>
      <trkpt lat="43.259968" lon="13.030363">
        <ele>417.458</ele>
        <time>2022-05-22T14:52:25Z</time>
      </trkpt>
      <trkpt lat="43.260079" lon="13.028685">
        <ele>414.274</ele>
        <time>2022-05-22T14:52:42Z</time>
      </trkpt>
      <trkpt lat="43.260303" lon="13.027394">
        <ele>411.059</ele>
        <time>2022-05-22T14:52:55Z</time>
      </trkpt>
      <trkpt lat="43.260410" lon="13.026244">
        <ele>408.098</ele>
        <time>2022-05-22T14:53:08Z</time>
      </trkpt>
      <trkpt lat="43.260572" lon="13.024801">
        <ele>405.046</ele>
        <time>2022-05-22T14:53:24Z</time>
      </trkpt>
      <trkpt lat="43.260752" lon="13.023541">
        <ele>403.814</ele>
        <time>2022-05-22T14:53:38Z</time>
      </trkpt>
      <trkpt lat="43.260954" lon="13.021727">
        <ele>400.854</ele>
        <time>2022-05-22T14:53:57Z</time>
      </trkpt>
      <trkpt lat="43.261037" lon="13.019965">
        <ele>397.609</ele>
        <time>2022-05-22T14:54:16Z</time>
      </trkpt>
      <trkpt lat="43.261068" lon="13.019582">
        <ele>396.009</ele>
        <time>2022-05-22T14:54:20Z</time>
      </trkpt>
      <trkpt lat="43.261246" lon="13.018423">
        <ele>393.052</ele>
        <time>2022-05-22T14:54:32Z</time>
      </trkpt>
      <trkpt lat="43.261279" lon="13.017037">
        <ele>390.251</ele>
        <time>2022-05-22T14:54:47Z</time>
      </trkpt>
      <trkpt lat="43.261296" lon="13.015647">
        <ele>387.254</ele>
        <time>2022-05-22T14:55:02Z</time>
      </trkpt>
      <trkpt lat="43.261322" lon="13.015099">
        <ele>385.260</ele>
        <time>2022-05-22T14:55:08Z</time>
      </trkpt>
      <trkpt lat="43.261313" lon="13.015006">
        <ele>384.864</ele>
        <time>2022-05-22T14:55:09Z</time>
      </trkpt>
      <trkpt lat="43.261296" lon="13.014910">
        <ele>384.610</ele>
        <time>2022-05-22T14:55:10Z</time>
      </trkpt>
      <trkpt lat="43.261270" lon="13.014816">
        <ele>384.645</ele>
        <time>2022-05-22T14:55:11Z</time>
      </trkpt>
      <trkpt lat="43.261238" lon="13.014723">
        <ele>384.464</ele>
        <time>2022-05-22T14:55:12Z</time>
      </trkpt>
      <trkpt lat="43.261202" lon="13.014632">
        <ele>384.272</ele>
        <time>2022-05-22T14:55:13Z</time>
      </trkpt>
      <trkpt lat="43.261162" lon="13.014542">
        <ele>383.887</ele>
        <time>2022-05-22T14:55:14Z</time>
      </trkpt>
      <trkpt lat="43.260960" lon="13.014044">
        <ele>380.442</ele>
        <time>2022-05-22T14:55:19Z</time>
      </trkpt>
      <trkpt lat="43.260871" lon="13.013678">
        <ele>378.226</ele>
        <time>2022-05-22T14:55:22Z</time>
      </trkpt>
      <trkpt lat="43.260826" lon="13.013556">
        <ele>377.209</ele>
        <time>2022-05-22T14:55:23Z</time>
      </trkpt>
      <trkpt lat="43.260760" lon="13.013449">
        <ele>376.419</ele>
        <time>2022-05-22T14:55:24Z</time>
      </trkpt>
      <trkpt lat="43.260671" lon="13.013368">
        <ele>375.858</ele>
        <time>2022-05-22T14:55:25Z</time>
      </trkpt>
      <trkpt lat="43.260573" lon="13.013314">
        <ele>374.871</ele>
        <time>2022-05-22T14:55:26Z</time>
      </trkpt>
      <trkpt lat="43.260479" lon="13.013265">
        <ele>374.097</ele>
        <time>2022-05-22T14:55:27Z</time>
      </trkpt>
      <trkpt lat="43.260396" lon="13.013209">
        <ele>373.221</ele>
        <time>2022-05-22T14:55:28Z</time>
      </trkpt>
      <trkpt lat="43.260330" lon="13.013144">
        <ele>372.417</ele>
        <time>2022-05-22T14:55:29Z</time>
      </trkpt>
      <trkpt lat="43.260277" lon="13.013081">
        <ele>371.692</ele>
        <time>2022-05-22T14:55:30Z</time>
      </trkpt>
      <trkpt lat="43.260245" lon="13.013022">
        <ele>371.241</ele>
        <time>2022-05-22T14:55:31Z</time>
      </trkpt>
      <trkpt lat="43.260228" lon="13.012961">
        <ele>370.619</ele>
        <time>2022-05-22T14:55:32Z</time>
      </trkpt>
      <trkpt lat="43.260220" lon="13.012903">
        <ele>370.215</ele>
        <time>2022-05-22T14:55:33Z</time>
      </trkpt>
      <trkpt lat="43.260206" lon="13.012787">
        <ele>369.665</ele>
        <time>2022-05-22T14:55:35Z</time>
      </trkpt>
      <trkpt lat="43.260179" lon="13.012737">
        <ele>369.611</ele>
        <time>2022-05-22T14:55:36Z</time>
      </trkpt>
      <trkpt lat="43.260140" lon="13.012703">
        <ele>369.409</ele>
        <time>2022-05-22T14:55:37Z</time>
      </trkpt>
      <trkpt lat="43.260094" lon="13.012682">
        <ele>369.422</ele>
        <time>2022-05-22T14:55:38Z</time>
      </trkpt>
      <trkpt lat="43.260045" lon="13.012666">
        <ele>369.281</ele>
        <time>2022-05-22T14:55:39Z</time>
      </trkpt>
      <trkpt lat="43.259995" lon="13.012651">
        <ele>369.044</ele>
        <time>2022-05-22T14:55:40Z</time>
      </trkpt>
      <trkpt lat="43.259287" lon="13.012235">
        <ele>367.610</ele>
        <time>2022-05-22T14:55:54Z</time>
      </trkpt>
      <trkpt lat="43.258518" lon="13.011852">
        <ele>367.414</ele>
        <time>2022-05-22T14:56:09Z</time>
      </trkpt>
      <trkpt lat="43.258467" lon="13.011850">
        <ele>367.610</ele>
        <time>2022-05-22T14:56:10Z</time>
      </trkpt>
      <trkpt lat="43.257624" lon="13.011840">
        <ele>367.645</ele>
        <time>2022-05-22T14:56:26Z</time>
      </trkpt>
      <trkpt lat="43.257573" lon="13.011821">
        <ele>367.674</ele>
        <time>2022-05-22T14:56:27Z</time>
      </trkpt>
      <trkpt lat="43.257525" lon="13.011797">
        <ele>367.662</ele>
        <time>2022-05-22T14:56:28Z</time>
      </trkpt>
      <trkpt lat="43.256845" lon="13.011230">
        <ele>368.237</ele>
        <time>2022-05-22T14:56:44Z</time>
      </trkpt>
      <trkpt lat="43.256155" lon="13.010505">
        <ele>370.849</ele>
        <time>2022-05-22T14:57:04Z</time>
      </trkpt>
      <trkpt lat="43.255469" lon="13.009783">
        <ele>373.813</ele>
        <time>2022-05-22T14:57:25Z</time>
      </trkpt>
      <trkpt lat="43.254903" lon="13.009601">
        <ele>374.409</ele>
        <time>2022-05-22T14:57:39Z</time>
      </trkpt>
      <trkpt lat="43.254218" lon="13.009699">
        <ele>375.834</ele>
        <time>2022-05-22T14:57:58Z</time>
      </trkpt>
      <trkpt lat="43.253682" lon="13.009604">
        <ele>378.463</ele>
        <time>2022-05-22T14:58:18Z</time>
      </trkpt>
      <trkpt lat="43.253173" lon="13.009393">
        <ele>380.096</ele>
        <time>2022-05-22T14:58:36Z</time>
      </trkpt>
      <trkpt lat="43.252682" lon="13.009272">
        <ele>383.082</ele>
        <time>2022-05-22T14:58:53Z</time>
      </trkpt>
      <trkpt lat="43.251942" lon="13.009229">
        <ele>385.856</ele>
        <time>2022-05-22T14:59:18Z</time>
      </trkpt>
      <trkpt lat="43.251594" lon="13.009181">
        <ele>387.062</ele>
        <time>2022-05-22T14:59:30Z</time>
      </trkpt>
      <trkpt lat="43.251579" lon="13.009145">
        <ele>387.077</ele>
        <time>2022-05-22T14:59:31Z</time>
      </trkpt>
      <trkpt lat="43.251572" lon="13.009106">
        <ele>387.066</ele>
        <time>2022-05-22T14:59:32Z</time>
      </trkpt>
      <trkpt lat="43.251571" lon="13.009065">
        <ele>387.214</ele>
        <time>2022-05-22T14:59:33Z</time>
      </trkpt>
      <trkpt lat="43.251579" lon="13.009027">
        <ele>387.435</ele>
        <time>2022-05-22T14:59:34Z</time>
      </trkpt>
      <trkpt lat="43.251595" lon="13.008994">
        <ele>387.486</ele>
        <time>2022-05-22T14:59:35Z</time>
      </trkpt>
      <trkpt lat="43.251615" lon="13.008968">
        <ele>387.614</ele>
        <time>2022-05-22T14:59:36Z</time>
      </trkpt>
      <trkpt lat="43.251637" lon="13.008947">
        <ele>387.809</ele>
        <time>2022-05-22T14:59:37Z</time>
      </trkpt>
      <trkpt lat="43.251662" lon="13.008929">
        <ele>387.874</ele>
        <time>2022-05-22T14:59:38Z</time>
      </trkpt>
      <trkpt lat="43.251687" lon="13.008912">
        <ele>387.853</ele>
        <time>2022-05-22T14:59:39Z</time>
      </trkpt>
      <trkpt lat="43.251714" lon="13.008897">
        <ele>388.056</ele>
        <time>2022-05-22T14:59:40Z</time>
      </trkpt>
      <trkpt lat="43.251953" lon="13.008743">
        <ele>388.242</ele>
        <time>2022-05-22T14:59:48Z</time>
      </trkpt>
      <trkpt lat="43.251965" lon="13.008699">
        <ele>388.266</ele>
        <time>2022-05-22T14:59:49Z</time>
      </trkpt>
      <trkpt lat="43.251964" lon="13.008648">
        <ele>388.282</ele>
        <time>2022-05-22T14:59:50Z</time>
      </trkpt>
      <trkpt lat="43.251957" lon="13.008602">
        <ele>388.237</ele>
        <time>2022-05-22T14:59:51Z</time>
      </trkpt>
      <trkpt lat="43.251946" lon="13.008560">
        <ele>388.296</ele>
        <time>2022-05-22T14:59:52Z</time>
      </trkpt>
      <trkpt lat="43.251933" lon="13.008518">
        <ele>388.254</ele>
        <time>2022-05-22T14:59:53Z</time>
      </trkpt>
      <trkpt lat="43.251921" lon="13.008479">
        <ele>388.246</ele>
        <time>2022-05-22T14:59:54Z</time>
      </trkpt>
      <trkpt lat="43.251693" lon="13.007706">
        <ele>389.888</ele>
        <time>2022-05-22T15:00:12Z</time>
      </trkpt>
      <trkpt lat="43.251534" lon="13.007080">
        <ele>391.016</ele>
        <time>2022-05-22T15:00:30Z</time>
      </trkpt>
      <trkpt lat="43.251533" lon="13.007080">
        <ele>391.009</ele>
        <time>2022-05-22T15:00:32Z</time>
      </trkpt>
    </trkseg>
  </trk></gpx>